[[{"header":{"parameterUnit":"m.s-1","parameterCategory":1,"la1":31.0,"la2":29.5877,"lo1":-88.7671,"lo2":-86.6584,"dy":0.0162,"dx":0.0185,"nx":115,"ny":88,"refTime":"2023-04-09T12:00:00:Z","depth":0,"parameterNumber":2,"parameterNumberName":"U-component_of_WINDS"},"data":[0.0,0.0,0.0,0.0,0.0,0.0,0.0,0.0,0.0,0.0,0.0,0.0,0.0,0.0,0.0,0.0,0.0,0.0,0.0,0.0,0.0,0.0,0.0,0.0,0.0,0.0,0.0,0.0,0.0,0.0,0.0,0.0,0.0,0.0,0.0,0.0,0.0,0.0,0.0,0.0,0.0,0.0,0.0,0.0,0.0,0.0,0.0,0.0,0.0,0.0,0.0,0.0,0.0,0.0,0.0,0.0,0.0,0.0,0.0,0.0,0.0,0.0,0.0,0.0,0.0,0.0,0.0,0.0,0.0,0.0,0.0,0.0,0.0,0.0,0.0,0.0,0.0,0.0,0.0,0.0,0.0,0.0,0.0,0.0,0.0,0.0,0.0,0.0,0.0,0.0,0.0,0.0,0.0,0.0,0.0,0.0,0.0,0.0,0.0,0.0,0.0,0.0,0.0,0.0,0.0,0.0,0.0,0.0,0.0,0.0,0.0,0.0,0.0,0.0,0.0,0.0,0.0,0.0,0.0,0.0,0.0,0.0,0.0,0.0,0.0,0.0,0.0,0.0,0.0,0.0,0.0,0.0,0.0,0.0,0.0,0.0,0.0,0.0,0.0,0.0,0.0,0.0,0.0,0.0,0.0,0.0,0.0,0.0,0.0,0.0,0.0,0.0,0.0,0.0,0.0,0.0,0.0,0.0,0.0,0.0,0.0,0.0,0.0,0.0,0.0,0.0,0.0,0.0,0.0,0.0,0.0,0.0,0.0,0.0,0.0,0.0,0.0,0.0,0.0,0.0,0.0,0.0,0.0,0.0,0.0,0.0,0.0,0.0,0.0,0.0,0.0,0.0,0.0,0.0,0.0,0.0,0.0,0.0,0.0,0.0,0.0,0.0,0.0,0.0,0.0,0.0,0.0,0.0,0.0,0.0,0.0,0.0,0.0,0.0,0.0,0.0,0.0,0.0,0.0,0.0,0.0,0.0,0.0,0.0,0.0,0.0,0.0,0.0,0.0,0.0,0.0,0.0,0.0,0.0,0.0,0.0,0.0,0.0,0.0,0.0,0.0,0.0,0.0,0.0,0.0,0.0,0.0,0.0,0.0,0.0,0.0,0.0,0.0,0.0,0.0,0.0,0.0,0.0,0.0,0.0,0.0,0.0,0.0,0.0,0.0,0.0,0.0,0.0,0.0,0.0,0.0,0.0,0.0,0.0,0.0,0.0,0.0,0.0,0.0,0.0,0.0,0.0,0.0,0.0,0.0,0.0,0.0,0.0,0.0,0.0,0.0,0.0,0.0,0.0,0.0,0.0,0.0,0.0,0.0,0.0,0.0,0.0,0.0,0.0,0.0,0.0,0.0,0.0,0.0,0.0,0.0,0.0,0.0,0.0,0.0,0.0,0.0,0.0,0.0,0.0,0.0,0.0,0.0,0.0,0.0,0.0,0.0,0.0,0.0,0.0,0.0,0.0,0.0,0.0,0.0,0.0,0.0,0.0,0.0,0.0,0.0,0.0,0.0,0.0,0.0,0.0,0.0,0.0,0.0,0.0,0.0,0.0,0.0,0.0,0.0,0.0,0.0,0.0,0.0,0.0,0.0,0.0,0.0,0.0,0.0,0.0,0.0,0.0,0.0,0.0,0.0,0.0,0.0,0.0,0.0,0.0,0.0,0.0,0.0,0.0,0.0,0.0,0.0,0.0,0.0,0.0,0.0,0.0,0.0,0.0,0.0,0.0,0.0,0.0,0.0,0.0,0.0,0.0,0.0,0.0,0.0,0.0,0.0,0.0,0.0,0.0,0.0,0.0,0.0,0.0,0.0,0.0,0.0,0.0,0.0,0.0,0.0,0.0,0.0,0.0,0.0,0.0,0.0,0.0,0.0,0.0,0.0,0.0,0.0,0.0,0.0,0.0,0.0,0.0,0.0,0.0,0.0,0.0,0.0,0.0,0.0,0.0,0.0,0.0,0.0,0.0,0.0,0.0,0.0,0.0,0.0,0.0,0.0,0.0,0.0,0.0,0.0,0.0,0.0,0.0,0.0,0.0,0.0,0.0,0.0,0.0,0.0,0.0,0.0,0.0,0.0,0.0,0.0,0.0,0.0,0.0,0.0,0.0,0.0,0.0,0.0,0.0,0.0,0.0,0.0,0.0,0.0,0.0,0.0,0.0,0.0,0.0,0.0,0.0,0.0,0.0,0.0,0.0,0.0,0.0,0.0,0.0,0.0,0.0,0.0,0.0,0.0,0.0,0.0,0.0,0.0,0.0,0.0,0.0,0.0,0.0,0.0,0.0,0.0,0.0,0.0,0.0,0.0,0.0,0.0,0.0,0.0,0.0,0.0,0.0,0.0,0.0,0.0,0.0,0.0,0.0,0.0,0.0,0.0,0.0,0.0,0.0,0.0,0.0,0.0,0.0,0.0,0.0,0.0,0.0,0.0,0.0,0.0,0.0,0.0,0.0,0.0,0.0,0.0,0.0,0.0,0.0,0.0,0.0,0.0,0.0,0.0,0.0,0.0,0.0,0.0,0.0,0.0,0.0,0.0,0.0,0.0,0.0,0.0,0.0,0.0,0.0,0.0,0.0,0.0,0.0,0.0,0.0,0.0,0.0,0.0,0.0,0.0,0.0,0.0,0.0,0.0,0.0,0.0,0.0,0.0,0.0,0.0,0.0,0.0,0.0,0.0,0.0,0.0,0.0,0.0,0.0,0.0,0.0,0.0,0.0,0.0,0.0,0.0,0.0,0.0,0.0,0.0,0.0,0.0,0.0,0.0,0.0,0.0,0.0,0.0,0.0,0.0,0.0,0.0,0.0,0.0,0.0,0.0,0.0,0.0,0.0,0.0,0.0,0.0,0.0,0.0,0.0,0.0,0.0,0.0,0.0,0.0,0.0,0.0,0.0,0.0,0.0,0.0,0.0,0.0,0.0,0.0,0.0,0.0,0.0,0.0,0.0,0.0,0.0,0.0,0.0,0.0,0.0,0.0,0.0,0.0,0.0,0.0,0.0,0.0,0.0,0.0,0.0,0.0,0.0,0.0,0.0,0.0,0.0,0.0,0.0,0.0,0.0,0.0,0.0,0.0,0.0,0.0,0.0,0.0,0.0,0.0,0.0,0.0,0.0,0.0,0.0,0.0,0.0,0.0,0.0,0.0,0.0,0.0,0.0,0.0,0.0,0.0,0.0,0.0,0.0,0.0,0.0,0.0,0.0,0.0,0.0,0.0,0.0,0.0,0.0,0.0,0.0,0.0,0.0,0.0,0.0,0.0,0.0,0.0,0.0,0.0,0.0,0.0,0.0,0.0,0.0,0.0,0.0,0.0,0.0,0.0,0.0,0.0,0.0,0.0,0.0,0.0,0.0,0.0,0.0,0.0,0.0,0.0,0.0,0.0,0.0,0.0,0.0,0.0,0.0,0.0,0.0,0.0,0.0,0.0,0.0,0.0,0.0,0.0,0.0,0.0,0.0,0.0,0.0,0.0,0.0,0.0,0.0,0.0,0.0,0.0,0.0,0.0,0.0,0.0,0.0,0.0,0.0,0.0,0.0,0.0,0.0,0.0,0.0,0.0,0.0,0.0,0.0,0.0,0.0,0.0,0.0,0.0,0.0,0.0,0.0,0.0,0.0,0.0,0.0,0.0,0.0,0.0,0.0,0.0,0.0,0.0,0.0,0.0,0.0,0.0,0.0,0.0,0.0,0.0,0.0,0.0,0.0,0.0,0.0,0.0,0.0,0.0,0.0,0.0,0.0,0.0,0.0,0.0,0.0,0.0,0.0,0.0,0.0,0.0,0.0,0.0,0.0,0.0,0.0,0.0,0.0,0.0,0.0,0.0,0.0,0.0,0.0,0.0,0.0,0.0,0.0,0.0,0.0,0.0,0.0,0.0,0.0,0.0,0.0,0.0,0.0,0.0,0.0,0.0,0.0,0.0,0.0,0.0,0.0,0.0,0.0,0.0,0.0,0.0,0.0,0.0,0.0,0.0,0.0,0.0,0.0,0.0,0.0,0.0,0.0,0.0,0.0,0.0,0.0,0.0,0.0,0.0,0.0,0.0,0.0,0.0,0.0,0.0,0.0,0.0,0.0,0.0,0.0,0.0,0.0,0.0,0.0,0.0,0.0,0.0,0.0,0.0,0.0,0.0,0.0,0.0,0.0,0.0,0.0,0.0,0.0,0.0,0.0,0.0,0.0,0.0,0.0,0.0,0.0,0.0,0.0,0.0,0.0,0.0,0.0,0.0,0.0,0.0,0.0,0.0,0.0,0.0,0.0,3.0958,0.0,0.0,0.0,0.0,0.0,0.0,0.0,0.0,0.0,0.0,0.0,0.0,0.0,0.0,0.0,0.0,0.0,0.0,0.0,0.0,0.0,0.0,0.0,0.0,0.0,0.0,0.0,0.0,0.0,0.0,0.0,0.0,0.0,0.0,0.0,0.0,0.0,0.0,0.0,0.0,0.0,0.0,0.0,0.0,0.0,0.0,0.0,0.0,0.0,0.0,0.0,0.0,0.0,0.0,0.0,0.0,0.0,0.0,0.0,0.0,0.0,0.0,0.0,0.0,0.0,0.0,0.0,0.0,0.0,0.0,0.0,0.0,0.0,0.0,0.0,0.0,0.0,0.0,0.0,0.0,0.0,0.0,0.0,0.0,0.0,0.0,0.0,0.0,0.0,0.0,0.0,0.0,0.0,0.0,0.0,0.0,0.0,0.0,0.0,0.0,0.0,0.0,0.0,0.0,0.0,0.0,0.0,0.0,0.0,0.0,3.1772,3.28,3.0563,2.9843,3.0822,0.0,0.0,0.0,0.0,0.0,0.0,0.0,0.0,0.0,0.0,0.0,0.0,0.0,0.0,0.0,0.0,0.0,0.0,0.0,0.0,0.0,0.0,0.0,0.0,0.0,0.0,0.0,0.0,0.0,0.0,0.0,0.0,0.0,0.0,0.0,0.0,0.0,0.0,0.0,0.0,0.0,0.0,0.0,0.0,0.0,0.0,0.0,0.0,0.0,0.0,0.0,0.0,0.0,0.0,0.0,0.0,0.0,0.0,0.0,0.0,0.0,0.0,0.0,0.0,0.0,0.0,0.0,0.0,0.0,0.0,0.0,0.0,0.0,0.0,0.0,0.0,0.0,0.0,0.0,0.0,0.0,0.0,0.0,0.0,0.0,0.0,0.0,0.0,0.0,0.0,0.0,0.0,0.0,0.0,0.0,0.0,0.0,0.0,0.0,0.0,0.0,0.0,0.0,0.0,0.0,0.0,0.0,0.0,0.0,0.0,0.0,0.0,3.0521,2.9458,2.9806,0.0,0.0,0.0,0.0,0.0,0.0,0.0,0.0,0.0,0.0,0.0,0.0,0.0,0.0,0.0,0.0,0.0,0.0,0.0,0.0,0.0,0.0,0.0,0.0,0.0,0.0,0.0,0.0,0.0,0.0,0.0,0.0,0.0,0.0,0.0,0.0,0.0,0.0,0.0,0.0,0.0,0.0,0.0,0.0,0.0,0.0,0.0,0.0,0.0,0.0,0.0,0.0,0.0,0.0,0.0,0.0,0.0,0.0,0.0,0.0,0.0,0.0,0.0,0.0,0.0,0.0,0.0,0.0,0.0,0.0,0.0,0.0,0.0,0.0,0.0,0.0,0.0,0.0,0.0,0.0,0.0,0.0,0.0,0.0,0.0,0.0,0.0,0.0,0.0,0.0,0.0,0.0,0.0,0.0,0.0,0.0,0.0,0.0,0.0,0.0,0.0,0.0,0.0,0.0,0.0,0.0,0.0,0.0,0.0,0.0,3.1825,3.3,3.1522,0.0,2.7955,0.0,0.0,0.0,0.0,0.0,0.0,0.0,0.0,0.0,0.0,0.0,0.0,0.0,0.0,0.0,0.0,0.0,0.0,0.0,0.0,0.0,0.0,0.0,0.0,0.0,0.0,0.0,0.0,0.0,0.0,0.0,0.0,0.0,0.0,0.0,0.0,0.0,0.0,0.0,0.0,0.0,0.0,0.0,0.0,0.0,0.0,0.0,0.0,0.0,0.0,0.0,0.0,0.0,0.0,0.0,0.0,0.0,0.0,0.0,0.0,0.0,0.0,0.0,0.0,0.0,0.0,0.0,0.0,0.0,0.0,0.0,0.0,0.0,0.0,0.0,0.0,0.0,0.0,0.0,0.0,0.0,0.0,0.0,0.0,0.0,0.0,0.0,0.0,0.0,0.0,0.0,0.0,0.0,0.0,0.0,0.0,0.0,0.0,0.0,0.0,0.0,0.0,0.0,0.0,0.0,0.0,0.0,0.0,0.0,0.0,3.2068,3.197,3.0728,2.9233,0.0,0.0,0.0,0.0,0.0,0.0,0.0,0.0,0.0,0.0,0.0,0.0,0.0,0.0,0.0,0.0,0.0,0.0,0.0,0.0,0.0,0.0,0.0,0.0,0.0,0.0,0.0,0.0,0.0,0.0,0.0,0.0,0.0,0.0,0.0,0.0,0.0,0.0,0.0,0.0,0.0,0.0,0.0,0.0,0.0,0.0,0.0,0.0,0.0,0.0,0.0,0.0,0.0,0.0,0.0,0.0,0.0,0.0,0.0,0.0,0.0,0.0,0.0,0.0,0.0,0.0,0.0,0.0,0.0,0.0,0.0,0.0,0.0,0.0,0.0,0.0,0.0,0.0,0.0,0.0,0.0,0.0,0.0,0.0,0.0,0.0,0.0,0.0,0.0,0.0,0.0,0.0,0.0,0.0,0.0,0.0,0.0,0.0,0.0,0.0,0.0,0.0,0.0,0.0,0.0,0.0,0.0,0.0,0.0,0.0,3.1631,3.1571,3.075,2.987,2.8552,2.6848,0.0,0.0,0.0,0.0,0.0,0.0,0.0,0.0,0.0,0.0,0.0,0.0,0.0,0.0,0.0,0.0,0.0,0.0,0.0,0.0,0.0,0.0,0.0,0.0,0.0,0.0,0.0,0.0,0.0,0.0,0.0,0.0,0.0,0.0,0.0,0.0,0.0,0.0,0.0,0.0,0.0,0.0,0.0,0.0,0.0,0.0,0.0,0.0,0.0,0.0,0.0,0.0,0.0,0.0,0.0,0.0,0.0,0.0,0.0,0.0,0.0,0.0,0.0,0.0,0.0,0.0,0.0,0.0,0.0,0.0,0.0,0.0,0.0,0.0,0.0,0.0,0.0,0.0,0.0,0.0,0.0,0.0,0.0,0.0,0.0,0.0,0.0,0.0,0.0,0.0,0.0,0.0,0.0,0.0,0.0,0.0,0.0,0.0,0.0,0.0,0.0,0.0,0.0,0.0,0.0,0.0,0.0,0.0,3.142,3.0673,3.0012,2.9634,2.9258,2.8071,0.0,0.0,0.0,0.0,0.0,0.0,0.0,0.0,0.0,0.0,0.0,0.0,0.0,0.0,0.0,0.0,0.0,0.0,0.0,0.0,0.0,0.0,0.0,0.0,0.0,0.0,0.0,0.0,0.0,0.0,0.0,0.0,0.0,0.0,0.0,0.0,0.0,0.0,0.0,0.0,0.0,0.0,0.0,0.0,0.0,0.0,0.0,0.0,0.0,0.0,0.0,0.0,0.0,0.0,0.0,0.0,0.0,0.0,0.0,0.0,0.0,0.0,0.0,0.0,0.0,0.0,0.0,0.0,0.0,0.0,0.0,0.0,0.0,0.0,0.0,0.0,0.0,0.0,0.0,0.0,0.0,0.0,0.0,0.0,0.0,0.0,0.0,0.0,0.0,0.0,0.0,0.0,0.0,0.0,0.0,0.0,0.0,0.0,0.0,0.0,0.0,0.0,0.0,0.0,0.0,0.0,0.0,0.0,0.0,3.0094,3.0118,2.9965,2.97,2.9036,2.7603,0.0,0.0,0.0,0.0,0.0,0.0,0.0,0.0,0.0,0.0,0.0,0.0,0.0,0.0,0.0,0.0,0.0,0.0,0.0,0.0,0.0,0.0,0.0,0.0,0.0,0.0,0.0,0.0,0.0,0.0,0.0,0.0,0.0,0.0,0.0,0.0,0.0,0.0,0.0,0.0,0.0,0.0,0.0,0.0,0.0,0.0,0.0,0.0,0.0,0.0,0.0,0.0,0.0,0.0,0.0,0.0,0.0,0.0,0.0,0.0,0.0,0.0,0.0,0.0,0.0,0.0,0.0,0.0,0.0,0.0,0.0,0.0,0.0,0.0,0.0,0.0,0.0,0.0,0.0,0.0,0.0,0.0,0.0,0.0,0.0,0.0,0.0,0.0,0.0,0.0,0.0,0.0,0.0,0.0,0.0,0.0,0.0,0.0,0.0,0.0,0.0,0.0,0.0,0.0,0.0,0.0,0.0,0.0,0.0,2.9316,0.0,2.9894,2.9445,2.8541,2.7191,0.0,0.0,0.0,0.0,0.0,0.0,0.0,0.0,0.0,0.0,0.0,0.0,0.0,0.0,0.0,0.0,0.0,0.0,0.0,0.0,0.0,0.0,0.0,0.0,0.0,0.0,0.0,0.0,0.0,0.0,0.0,0.0,0.0,0.0,0.0,0.0,0.0,0.0,0.0,0.0,0.0,0.0,0.0,0.0,0.0,0.0,0.0,0.0,0.0,0.0,0.0,0.0,0.0,0.0,0.0,0.0,0.0,0.0,0.0,0.0,0.0,0.0,0.0,0.0,0.0,0.0,0.0,0.0,0.0,0.0,0.0,0.0,0.0,0.0,0.0,0.0,0.0,0.0,0.0,0.0,0.0,0.0,0.0,0.0,0.0,0.0,0.0,0.0,0.0,0.0,0.0,0.0,0.0,0.0,0.0,0.0,0.0,0.0,0.0,0.0,0.0,0.0,0.0,0.0,0.0,0.0,0.0,0.0,2.8747,2.9271,2.9779,2.956,2.87,2.7796,2.6845,0.0,0.0,0.0,0.0,0.0,0.0,0.0,0.0,0.0,0.0,0.0,0.0,0.0,0.0,0.0,0.0,0.0,0.0,0.0,0.0,0.0,0.0,0.0,0.0,0.0,0.0,0.0,0.0,0.0,0.0,0.0,0.0,0.0,0.0,0.0,0.0,0.0,0.0,0.0,0.0,0.0,0.0,0.0,0.0,0.0,0.0,0.0,0.0,0.0,0.0,0.0,0.0,0.0,0.0,0.0,0.0,0.0,0.0,0.0,0.0,0.0,0.0,0.0,0.0,0.0,0.0,0.0,0.0,0.0,0.0,0.0,0.0,0.0,0.0,0.0,0.0,0.0,0.0,0.0,0.0,0.0,0.0,0.0,0.0,0.0,0.0,0.0,0.0,0.0,0.0,0.0,0.0,0.0,0.0,0.0,0.0,0.0,0.0,0.0,0.0,0.0,0.0,0.0,0.0,0.0,0.0,0.0,0.0,0.0,2.8786,2.8392,2.8232,2.8314,2.7212,2.6201,0.0,0.0,0.0,0.0,0.0,0.0,0.0,0.0,0.0,0.0,0.0,0.0,0.0,0.0,0.0,0.0,0.0,0.0,0.0,0.0,0.0,0.0,0.0,0.0,0.0,0.0,0.0,0.0,0.0,0.0,0.0,0.0,0.0,0.0,0.0,0.0,0.0,0.0,0.0,0.0,0.0,0.0,0.0,0.0,0.0,0.0,0.0,0.0,0.0,0.0,0.0,0.0,0.0,0.0,0.0,0.0,0.0,0.0,0.0,0.0,0.0,0.0,0.0,0.0,0.0,0.0,0.0,0.0,0.0,0.0,0.0,0.0,0.0,0.0,0.0,0.0,0.0,0.0,0.0,0.0,0.0,0.0,0.0,0.0,0.0,0.0,0.0,0.0,0.0,0.0,0.0,0.0,0.0,0.0,0.0,0.0,0.0,0.0,0.0,0.0,0.0,0.0,0.0,0.0,0.0,0.0,0.0,0.0,0.0,2.8733,2.8221,2.7968,2.8049,2.734,2.6392,2.5168,0.0,0.0,0.0,0.0,0.0,0.0,0.0,0.0,0.0,0.0,0.0,0.0,0.0,0.0,0.0,0.0,0.0,0.0,0.0,0.0,0.0,0.0,0.0,0.0,0.0,0.0,0.0,0.0,0.0,0.0,0.0,0.0,0.0,0.0,0.0,0.0,0.0,0.0,0.0,0.0,0.0,0.0,0.0,0.0,0.0,0.0,0.0,0.0,0.0,0.0,0.0,0.0,0.0,0.0,0.0,0.0,0.0,0.0,0.0,0.0,0.0,0.0,0.0,0.0,0.0,0.0,0.0,0.0,0.0,0.0,0.0,0.0,0.0,0.0,0.0,0.0,0.0,0.0,0.0,0.0,0.0,0.0,0.0,0.0,0.0,0.0,0.0,0.0,0.0,0.0,0.0,0.0,0.0,0.0,0.0,0.0,0.0,0.0,0.0,0.0,0.0,0.0,0.0,0.0,0.0,0.0,0.0,0.0,2.9065,2.9172,2.8849,2.8046,2.8056,2.7218,0.0,0.0,0.0,0.0,0.0,0.0,0.0,0.0,0.0,0.0,0.0,0.0,0.0,0.0,0.0,0.0,0.0,0.0,0.0,0.0,0.0,0.0,0.0,0.0,0.0,0.0,0.0,0.0,0.0,0.0,0.0,0.0,0.0,0.0,0.0,0.0,0.0,0.0,0.0,0.0,0.0,0.0,0.0,0.0,0.0,0.0,0.0,0.0,0.0,0.0,0.0,0.0,0.0,0.0,0.0,0.0,0.0,0.0,0.0,0.0,0.0,0.0,0.0,0.0,0.0,0.0,0.0,0.0,0.0,0.0,0.0,0.0,0.0,0.0,0.0,0.0,0.0,0.0,0.0,0.0,0.0,0.0,0.0,0.0,0.0,0.0,0.0,0.0,0.0,0.0,0.0,0.0,0.0,0.0,0.0,0.0,0.0,0.0,0.0,0.0,0.0,0.0,0.0,0.0,0.0,0.0,0.0,0.0,0.0,2.9971,3.1171,3.1248,3.0115,2.8747,2.7374,0.0,0.0,0.0,0.0,0.0,0.0,0.0,0.0,0.0,0.0,0.0,0.0,0.0,0.0,0.0,0.0,0.0,0.0,0.0,0.0,0.0,0.0,0.0,0.0,0.0,0.0,0.0,0.0,0.0,0.0,0.0,0.0,0.0,0.0,0.0,0.0,0.0,0.0,0.0,0.0,0.0,0.0,0.0,0.0,0.0,0.0,0.0,0.0,0.0,0.0,0.0,0.0,0.0,0.0,0.0,0.0,0.0,0.0,0.0,0.0,0.0,0.0,0.0,0.0,0.0,0.0,0.0,0.0,0.0,0.0,0.0,0.0,0.0,0.0,0.0,0.0,0.0,0.0,0.0,0.0,0.0,0.0,0.0,0.0,0.0,0.0,0.0,0.0,0.0,0.0,0.0,0.0,0.0,0.0,0.0,0.0,0.0,0.0,0.0,0.0,0.0,0.0,0.0,0.0,0.0,0.0,0.0,0.0,3.0073,3.082,3.249,3.3033,3.2295,3.0527,2.8468,0.0,0.0,0.0,0.0,0.0,0.0,0.0,0.0,0.0,0.0,0.0,0.0,0.0,0.0,0.0,0.0,0.0,0.0,0.0,0.0,0.0,0.0,0.0,0.0,0.0,0.0,0.0,0.0,0.0,0.0,0.0,0.0,0.0,0.0,0.0,0.0,0.0,0.0,0.0,0.0,0.0,0.0,0.0,0.0,0.0,0.0,0.0,0.0,0.0,0.0,0.0,0.0,0.0,0.0,0.0,0.0,0.0,0.0,0.0,0.0,0.0,0.0,0.0,0.0,0.0,0.0,0.0,0.0,0.0,0.0,0.0,0.0,0.0,0.0,0.0,0.0,0.0,0.0,0.0,0.0,0.0,0.0,0.0,0.0,0.0,0.0,0.0,0.0,0.0,0.0,0.0,0.0,0.0,0.0,0.0,0.0,0.0,0.0,0.0,0.0,0.0,0.0,0.0,0.0,0.0,0.0,0.0,0.0,3.1609,3.1675,3.3411,3.429,3.4112,3.2422,2.9844,0.0,0.0,0.0,0.0,0.0,0.0,0.0,0.0,0.0,0.0,0.0,0.0,0.0,0.0,0.0,0.0,0.0,0.0,0.0,0.0,0.0,0.0,0.0,0.0,0.0,0.0,0.0,0.0,0.0,0.0,0.0,0.0,0.0,0.0,0.0,0.0,0.0,0.0,0.0,0.0,0.0,0.0,0.0,0.0,0.0,0.0,0.0,0.0,0.0,0.0,0.0,0.0,0.0,0.0,0.0,0.0,0.0,0.0,0.0,0.0,0.0,0.0,0.0,0.0,0.0,0.0,0.0,0.0,0.0,0.0,0.0,0.0,0.0,0.0,0.0,0.0,0.0,0.0,0.0,0.0,0.0,0.0,0.0,0.0,0.0,0.0,0.0,0.0,0.0,0.0,0.0,0.0,0.0,0.0,0.0,0.0,0.0,0.0,0.0,0.0,0.0,0.0,0.0,0.0,0.0,0.0,0.0,0.0,3.1586,3.2595,3.4314,3.4786,3.384,3.1312,2.8873,0.0,0.0,0.0,0.0,0.0,0.0,0.0,0.0,0.0,0.0,0.0,0.0,0.0,0.0,0.0,0.0,0.0,0.0,0.0,0.0,0.0,0.0,0.0,0.0,0.0,0.0,0.0,0.0,0.0,0.0,0.0,0.0,0.0,0.0,0.0,0.0,0.0,0.0,0.0,0.0,0.0,0.0,0.0,0.0,0.0,0.0,0.0,0.0,3.2622,0.0,0.0,0.0,0.0,0.0,0.0,0.0,0.0,0.0,0.0,0.0,0.0,0.0,0.0,0.0,0.0,0.0,0.0,0.0,0.0,0.0,0.0,0.0,0.0,0.0,0.0,0.0,0.0,0.0,0.0,0.0,0.0,0.0,0.0,0.0,0.0,0.0,0.0,0.0,0.0,0.0,0.0,0.0,0.0,0.0,0.0,0.0,0.0,0.0,0.0,0.0,0.0,0.0,0.0,0.0,0.0,0.0,0.0,0.0,3.2061,3.3211,3.4351,3.4376,3.3137,3.0515,2.8518,0.0,0.0,0.0,0.0,0.0,0.0,0.0,0.0,0.0,0.0,0.0,0.0,0.0,0.0,0.0,0.0,0.0,0.0,0.0,0.0,0.0,0.0,0.0,0.0,0.0,0.0,0.0,0.0,0.0,0.0,0.0,0.0,0.0,0.0,0.0,0.0,0.0,0.0,0.0,0.0,0.0,0.0,0.0,0.0,0.0,0.0,0.0,0.0,0.0,0.0,0.0,0.0,0.0,0.0,0.0,0.0,0.0,0.0,0.0,0.0,0.0,0.0,0.0,0.0,0.0,0.0,0.0,0.0,0.0,0.0,0.0,0.0,0.0,0.0,0.0,0.0,0.0,0.0,0.0,0.0,0.0,0.0,0.0,0.0,0.0,0.0,0.0,0.0,0.0,0.0,0.0,0.0,0.0,0.0,0.0,0.0,0.0,0.0,0.0,0.0,0.0,0.0,0.0,0.0,0.0,0.0,0.0,3.1358,3.2524,3.3555,3.4,3.3509,3.2101,2.9796,2.8293,2.7702,0.0,0.0,0.0,0.0,0.0,0.0,0.0,0.0,0.0,0.0,0.0,0.0,0.0,0.0,0.0,0.0,0.0,0.0,0.0,0.0,0.0,0.0,0.0,0.0,0.0,0.0,0.0,0.0,0.0,0.0,0.0,0.0,0.0,0.0,0.0,0.0,0.0,0.0,2.652,2.6754,0.0,0.0,0.0,0.0,0.0,0.0,0.0,0.0,3.1971,0.0,0.0,0.0,0.0,0.0,0.0,0.0,0.0,0.0,0.0,0.0,0.0,0.0,0.0,0.0,0.0,0.0,0.0,0.0,0.0,0.0,0.0,0.0,0.0,0.0,0.0,0.0,0.0,0.0,0.0,0.0,0.0,0.0,0.0,0.0,0.0,0.0,0.0,0.0,0.0,0.0,0.0,0.0,0.0,0.0,0.0,0.0,0.0,0.0,0.0,0.0,0.0,0.0,0.0,0.0,0.0,3.2211,3.1513,3.1931,3.3634,3.3792,3.2654,3.0271,2.8741,2.7455,2.6437,0.0,0.0,0.0,0.0,0.0,0.0,0.0,0.0,0.0,0.0,0.0,0.0,0.0,0.0,0.0,0.0,0.0,0.0,0.0,0.0,0.0,0.0,0.0,0.0,0.0,0.0,0.0,0.0,0.0,0.0,0.0,0.0,0.0,0.0,0.0,0.0,0.0,0.0,0.0,2.7713,2.8161,0.0,0.0,0.0,0.0,0.0,0.0,0.0,0.0,3.1158,0.0,0.0,0.0,0.0,0.0,0.0,0.0,0.0,0.0,0.0,0.0,0.0,0.0,0.0,0.0,0.0,0.0,0.0,0.0,0.0,0.0,0.0,0.0,0.0,0.0,0.0,0.0,0.0,0.0,0.0,0.0,0.0,0.0,0.0,0.0,0.0,0.0,0.0,0.0,0.0,0.0,0.0,0.0,0.0,0.0,0.0,0.0,0.0,0.0,0.0,0.0,0.0,0.0,0.0,0.0,3.1352,3.1814,3.2208,3.2772,3.2896,3.202,2.9962,2.8331,2.6981,0.0,0.0,0.0,0.0,0.0,0.0,0.0,0.0,0.0,0.0,0.0,0.0,0.0,0.0,0.0,0.0,0.0,0.0,0.0,0.0,0.0,0.0,0.0,0.0,0.0,0.0,0.0,0.0,0.0,0.0,0.0,0.0,0.0,0.0,0.0,0.0,0.0,0.0,0.0,0.0,2.7552,2.8285,2.808,0.0,0.0,0.0,0.0,0.0,0.0,3.1381,3.0692,0.0,0.0,0.0,0.0,0.0,0.0,0.0,0.0,0.0,0.0,0.0,0.0,0.0,0.0,0.0,0.0,0.0,0.0,0.0,0.0,0.0,0.0,0.0,0.0,0.0,0.0,0.0,0.0,0.0,0.0,0.0,0.0,0.0,0.0,0.0,0.0,0.0,0.0,0.0,0.0,0.0,0.0,0.0,0.0,0.0,0.0,0.0,0.0,0.0,0.0,0.0,0.0,0.0,0.0,0.0,3.0461,3.1897,3.2417,3.2013,3.2161,3.1488,2.9881,2.8143,2.664,0.0,0.0,0.0,0.0,0.0,0.0,0.0,0.0,0.0,0.0,0.0,0.0,0.0,0.0,0.0,0.0,0.0,0.0,0.0,0.0,0.0,0.0,0.0,0.0,0.0,0.0,0.0,0.0,0.0,0.0,0.0,0.0,0.0,0.0,0.0,0.0,0.0,0.0,0.0,0.0,0.0,2.8582,2.9246,2.9436,0.0,0.0,0.0,0.0,3.1324,3.125,0.0,0.0,0.0,0.0,0.0,0.0,0.0,0.0,0.0,0.0,0.0,0.0,0.0,0.0,0.0,0.0,0.0,0.0,0.0,0.0,0.0,0.0,0.0,0.0,0.0,0.0,0.0,0.0,0.0,0.0,0.0,0.0,0.0,0.0,0.0,0.0,0.0,0.0,0.0,0.0,0.0,0.0,0.0,0.0,0.0,0.0,0.0,0.0,0.0,0.0,0.0,0.0,0.0,0.0,0.0,0.0,3.0763,3.1462,3.1894,3.2229,3.1873,3.0851,2.9095,2.7806,2.6344,0.0,0.0,0.0,0.0,0.0,0.0,0.0,0.0,0.0,0.0,0.0,0.0,0.0,0.0,0.0,0.0,0.0,0.0,0.0,0.0,0.0,0.0,0.0,0.0,0.0,0.0,0.0,0.0,0.0,0.0,0.0,0.0,0.0,0.0,0.0,0.0,0.0,0.0,0.0,0.0,0.0,3.0,2.8633,2.9778,3.0444,0.0,0.0,3.0933,3.1548,3.2374,0.0,0.0,0.0,0.0,0.0,0.0,0.0,0.0,0.0,0.0,0.0,0.0,0.0,0.0,0.0,0.0,0.0,0.0,0.0,0.0,0.0,0.0,0.0,0.0,0.0,0.0,0.0,0.0,0.0,0.0,0.0,0.0,0.0,0.0,0.0,0.0,0.0,0.0,0.0,0.0,0.0,0.0,0.0,0.0,0.0,0.0,0.0,0.0,0.0,0.0,0.0,0.0,0.0,0.0,0.0,2.9439,2.9936,3.1515,3.1888,3.0971,3.0905,3.0373,2.9218,2.7431,2.6027,0.0,0.0,0.0,0.0,0.0,0.0,0.0,0.0,0.0,0.0,0.0,0.0,0.0,0.0,0.0,0.0,0.0,0.0,0.0,0.0,0.0,0.0,0.0,0.0,0.0,0.0,0.0,0.0,0.0,0.0,0.0,0.0,0.0,0.0,0.0,0.0,0.0,0.0,0.0,0.0,0.0,0.0,2.9824,3.065,0.0,0.0,0.0,3.154,3.2624,0.0,0.0,0.0,0.0,0.0,0.0,0.0,0.0,0.0,0.0,0.0,0.0,0.0,0.0,0.0,0.0,0.0,0.0,0.0,0.0,0.0,0.0,0.0,0.0,0.0,0.0,0.0,0.0,0.0,0.0,0.0,0.0,0.0,0.0,0.0,0.0,0.0,0.0,0.0,0.0,0.0,0.0,0.0,0.0,0.0,0.0,0.0,0.0,0.0,0.0,0.0,0.0,0.0,0.0,0.0,0.0,0.0,2.9278,3.1465,3.1826,3.0207,3.0375,3.0159,2.9525,2.7577,0.0,0.0,0.0,0.0,0.0,0.0,0.0,0.0,0.0,0.0,0.0,0.0,0.0,0.0,0.0,0.0,0.0,0.0,0.0,0.0,0.0,0.0,0.0,0.0,0.0,0.0,0.0,2.4118,0.0,0.0,0.0,0.0,0.0,0.0,0.0,0.0,0.0,0.0,0.0,0.0,0.0,0.0,3.0644,3.0996,3.1747,3.2536,0.0,0.0,3.2662,3.3695,3.4017,3.3457,0.0,0.0,0.0,0.0,0.0,0.0,0.0,0.0,0.0,0.0,0.0,0.0,0.0,0.0,0.0,0.0,0.0,0.0,0.0,0.0,0.0,0.0,0.0,0.0,0.0,0.0,0.0,0.0,0.0,0.0,0.0,0.0,0.0,0.0,0.0,0.0,0.0,0.0,0.0,0.0,0.0,0.0,0.0,0.0,0.0,0.0,0.0,0.0,0.0,0.0,0.0,0.0,0.0,0.0,0.0,2.9627,3.1048,3.1451,3.0771,3.0746,3.0481,2.9862,2.8555,2.7413,0.0,0.0,0.0,0.0,0.0,0.0,0.0,0.0,0.0,0.0,0.0,0.0,0.0,0.0,0.0,0.0,0.0,0.0,0.0,0.0,0.0,0.0,0.0,0.0,0.0,0.0,0.0,0.0,0.0,0.0,0.0,0.0,0.0,0.0,0.0,0.0,0.0,0.0,0.0,0.0,0.0,3.1416,3.1435,3.3203,3.4355,0.0,0.0,3.4512,3.4603,3.625,3.643,3.3203,0.0,0.0,0.0,0.0,0.0,0.0,0.0,0.0,0.0,0.0,0.0,0.0,0.0,0.0,0.0,0.0,0.0,0.0,0.0,0.0,0.0,0.0,0.0,0.0,0.0,0.0,0.0,0.0,0.0,0.0,0.0,0.0,0.0,0.0,0.0,0.0,0.0,0.0,0.0,0.0,0.0,0.0,0.0,0.0,0.0,0.0,0.0,0.0,0.0,0.0,0.0,0.0,0.0,2.9859,2.9979,3.1115,3.1416,3.0829,3.0776,3.0612,3.0214,2.8979,2.7988,0.0,0.0,0.0,0.0,0.0,0.0,0.0,0.0,0.0,0.0,0.0,0.0,0.0,0.0,0.0,0.0,0.0,0.0,0.0,0.0,0.0,0.0,0.0,0.0,0.0,0.0,0.0,0.0,2.569,2.5617,2.5388,0.0,0.0,0.0,0.0,0.0,0.0,0.0,0.0,0.0,0.0,3.2402,3.3711,3.4824,0.0,0.0,3.5801,3.6094,3.6601,3.6484,3.5742,3.3919,3.2383,0.0,0.0,0.0,0.0,0.0,0.0,0.0,0.0,0.0,0.0,0.0,0.0,0.0,0.0,0.0,0.0,0.0,0.0,0.0,0.0,0.0,0.0,0.0,0.0,0.0,0.0,0.0,0.0,0.0,0.0,0.0,0.0,0.0,0.0,0.0,0.0,0.0,0.0,0.0,0.0,0.0,0.0,0.0,0.0,0.0,0.0,0.0,0.0,0.0,0.0,0.0,0.0,2.9844,3.0203,3.1096,3.1385,3.1084,3.1147,3.104,3.0636,2.9705,2.8883,0.0,0.0,0.0,0.0,0.0,0.0,0.0,0.0,0.0,0.0,0.0,0.0,0.0,0.0,0.0,0.0,0.0,0.0,0.0,0.0,0.0,0.0,0.0,0.0,0.0,0.0,0.0,0.0,2.6144,2.5992,2.5727,0.0,0.0,0.0,0.0,0.0,0.0,0.0,0.0,0.0,0.0,3.3762,3.5351,3.6269,3.6855,3.7047,3.6934,3.707,3.7637,3.6621,3.5424,3.429,0.0,0.0,0.0,0.0,0.0,0.0,0.0,0.0,0.0,0.0,0.0,0.0,0.0,0.0,0.0,0.0,0.0,0.0,0.0,0.0,0.0,0.0,0.0,0.0,0.0,0.0,0.0,0.0,0.0,0.0,3.0089,0.0,0.0,0.0,0.0,0.0,0.0,0.0,0.0,0.0,0.0,0.0,0.0,0.0,0.0,0.0,0.0,0.0,0.0,0.0,0.0,0.0,0.0,2.9641,3.0293,3.0911,3.1342,3.1574,3.1965,3.1869,3.1197,3.0894,3.0217,2.9095,0.0,0.0,0.0,0.0,0.0,0.0,0.0,0.0,0.0,0.0,0.0,0.0,0.0,0.0,0.0,0.0,0.0,0.0,0.0,0.0,0.0,0.0,0.0,0.0,0.0,0.0,2.5943,2.6,2.5994,0.0,0.0,0.0,0.0,0.0,0.0,0.0,0.0,0.0,0.0,3.3753,3.5469,3.5957,3.7422,3.8281,3.793,3.7539,3.7285,3.7324,3.6914,3.6089,0.0,0.0,0.0,0.0,0.0,0.0,0.0,0.0,0.0,0.0,0.0,0.0,0.0,0.0,0.0,0.0,0.0,0.0,0.0,0.0,0.0,0.0,0.0,0.0,0.0,0.0,0.0,3.0125,2.9487,0.0,0.0,0.0,0.0,0.0,0.0,0.0,0.0,0.0,0.0,0.0,2.7005,2.6873,0.0,0.0,0.0,0.0,0.0,0.0,0.0,0.0,0.0,0.0,0.0,0.0,3.0054,3.072,3.1028,3.1326,3.1599,3.2006,3.1961,3.1503,3.1238,3.0592,2.94,0.0,0.0,0.0,0.0,0.0,0.0,0.0,0.0,0.0,0.0,0.0,0.0,0.0,0.0,0.0,0.0,0.0,0.0,0.0,0.0,0.0,0.0,0.0,0.0,0.0,2.6843,0.0,0.0,0.0,0.0,0.0,0.0,0.0,0.0,0.0,0.0,0.0,3.0537,3.2603,3.4069,3.541,3.668,3.7344,3.7773,0.0,0.0,0.0,0.0,0.0,0.0,0.0,0.0,0.0,0.0,0.0,0.0,0.0,0.0,3.4898,3.2475,3.363,3.4888,3.4763,0.0,0.0,0.0,0.0,0.0,0.0,0.0,0.0,0.0,0.0,0.0,0.0,0.0,0.0,3.0869,0.0,2.9734,0.0,0.0,0.0,0.0,0.0,0.0,0.0,0.0,2.7736,2.7448,2.7519,2.7538,2.7621,0.0,2.8481,2.8223,0.0,0.0,0.0,0.0,0.0,0.0,0.0,0.0,3.0425,3.0909,3.1532,3.1858,3.1901,3.2381,3.2396,3.1916,3.1268,3.0565,2.9784,2.9034,2.8433,0.0,0.0,0.0,0.0,0.0,0.0,0.0,0.0,0.0,0.0,0.0,0.0,0.0,0.0,0.0,0.0,0.0,0.0,0.0,0.0,0.0,0.0,0.0,2.726,0.0,0.0,0.0,0.0,0.0,0.0,0.0,0.0,0.0,2.8884,3.0325,3.2041,3.3739,3.5041,3.6195,3.7187,0.0,0.0,0.0,0.0,0.0,0.0,0.0,3.519,3.5137,3.4326,3.3894,3.4453,3.5341,3.6093,3.6417,0.0,0.0,3.4268,3.5024,3.6036,3.6036,3.6914,3.7351,3.6436,3.6764,3.6935,0.0,0.0,0.0,0.0,0.0,0.0,0.0,0.0,3.1788,3.2275,0.0,3.1659,0.0,0.0,0.0,0.0,0.0,2.9373,0.0,0.0,2.9026,2.9039,2.8564,2.8556,2.839,2.8114,2.8521,2.87,2.8729,2.904,0.0,0.0,0.0,0.0,0.0,0.0,3.0735,3.0787,3.2254,3.283,3.2412,3.3079,3.3095,3.2388,3.1068,3.031,3.0301,2.9774,2.9273,2.887,2.9431,0.0,0.0,0.0,0.0,0.0,0.0,0.0,0.0,0.0,0.0,0.0,0.0,0.0,0.0,0.0,0.0,0.0,0.0,0.0,0.0,2.7865,0.0,0.0,0.0,0.0,0.0,0.0,0.0,0.0,0.0,0.0,3.0121,3.2092,3.3964,3.4763,0.0,0.0,0.0,0.0,3.8236,3.7468,3.7624,3.7741,3.7351,3.6623,3.6089,3.6,0.0,0.0,3.5541,3.5899,3.6238,3.6182,3.721,3.7765,3.7446,3.7055,3.6842,3.6808,3.6336,3.5801,3.6026,3.6518,3.6576,3.4734,0.0,0.0,0.0,0.0,3.3383,3.3591,3.348,3.406,3.3511,3.208,3.1724,0.0,0.0,0.0,0.0,0.0,0.0,3.0104,3.0156,3.0111,3.0026,2.9853,2.9899,2.9886,2.9798,3.0203,3.0532,3.0796,3.0693,3.023,2.9346,0.0,0.0,0.0,0.0,3.1397,3.1215,3.218,3.2624,3.2396,3.2618,3.2657,3.2532,3.1355,3.0724,3.0727,3.0027,2.9676,2.9733,2.9599,0.0,0.0,0.0,0.0,0.0,0.0,0.0,0.0,0.0,0.0,0.0,0.0,0.0,0.0,0.0,0.0,0.0,0.0,0.0,2.8726,2.8992,2.8973,0.0,0.0,0.0,0.0,0.0,0.0,0.0,0.0,0.0,3.3737,3.4648,3.551,0.0,0.0,3.7436,3.7324,3.7475,3.7661,3.781,3.7623,0.0,3.7318,3.6882,3.6417,3.604,3.6664,3.7363,3.7934,3.8598,3.9077,3.9019,3.9281,3.9508,3.9671,3.9201,3.8656,3.8355,3.8519,3.8726,3.8625,3.9038,3.9571,3.7334,3.5521,3.4747,3.443,3.4585,3.5236,3.5252,3.4883,3.5436,3.4832,3.3449,3.3113,3.2801,3.2482,3.1821,0.0,0.0,0.0,3.1722,3.1886,3.1378,3.1089,3.0986,3.1049,3.0977,3.0853,3.1115,3.1431,3.181,3.1488,3.0987,3.0327,0.0,0.0,3.049,3.1458,3.1774,3.1388,3.2284,3.2608,3.2205,3.2221,3.2342,3.2566,3.1659,3.1222,3.134,3.0584,3.0322,3.0601,3.0327,3.0221,0.0,0.0,0.0,0.0,0.0,0.0,0.0,0.0,0.0,0.0,0.0,2.7422,0.0,0.0,0.0,0.0,2.8776,2.9224,2.9584,2.9939,0.0,0.0,0.0,0.0,0.0,0.0,0.0,3.2491,3.3476,3.434,3.5175,3.6091,3.6681,3.6831,3.7054,3.7241,3.7426,0.0,3.7532,3.7897,3.7817,3.7755,3.778,3.7444,3.7143,3.7016,3.7747,3.8487,3.8912,3.9683,4.01,3.9976,4.0042,4.0193,4.0419,4.0054,3.9691,3.9568,3.9786,3.9985,3.9916,4.0225,4.0565,3.9902,3.9423,3.8137,3.6968,3.6029,3.6757,3.6369,3.5248,3.6302,3.6327,3.5659,3.5514,3.5264,3.485,3.4531,0.0,3.4251,3.39,3.3699,3.3622,3.2852,3.2359,3.2083,3.205,3.187,3.1612,3.1579,3.1735,3.2108,3.1771,3.1803,3.2154,3.1414,3.1136,3.1359,3.1878,3.1902,3.1515,3.2489,3.2677,3.1967,3.1983,3.2174,3.261,3.194,3.1758,3.2085,3.1409,3.1139,3.1384,3.1386,3.1309,3.1199,0.0,0.0,0.0,0.0,0.0,0.0,0.0,0.0,0.0,0.0,0.0,0.0,0.0,0.0,0.0,3.027,0.0,3.0598,3.0894,0.0,0.0,0.0,3.182,3.2346,3.241,3.2719,3.3429,0.0,0.0,3.5285,3.671,3.7532,3.7171,3.709,3.7218,3.7574,3.7697,3.7751,3.7855,3.8188,3.846,3.8344,3.8028,3.7899,3.8206,3.8764,3.8905,3.8923,3.9382,3.9654,3.9403,3.9664,3.9985,4.0035,3.9841,3.9838,4.0208,4.0048,3.9922,4.0125,3.9982,3.9908,4.2286,4.209,4.1438,4.0266,3.8895,3.8701,3.8832,3.9121,3.9097,3.8627,3.7848,3.7822,3.7234,3.6317,3.653,3.6278,3.5711,3.593,3.5616,3.4959,3.4483,3.4106,3.3706,3.3487,3.3316,3.3214,3.2923,3.297,3.337,3.3286,3.3447,3.3836,3.3325,3.26,3.1892,3.2198,3.235,3.2239,3.2452,3.2482,3.2301,3.2571,3.2818,3.2898,3.2528,3.2388,3.2493,3.2064,3.1722,3.1509,3.1726,3.1655,3.1302,3.1035,0.0,0.0,0.0,0.0,0.0,0.0,0.0,0.0,0.0,2.8549,2.8226,0.0,2.9764,0.0,3.1133,3.2099,3.2354,3.2444,0.0,0.0,3.2789,3.295,3.3316,3.3929,3.4642,3.5432,3.6287,3.7036,3.733,3.793,3.8066,3.7569,3.7666,3.7854,3.7989,3.7986,3.8011,3.8049,3.8138,3.8228,3.8249,3.7919,3.7777,3.8151,3.8238,3.8345,3.858,3.8869,3.911,3.9249,3.897,3.9037,3.9495,3.9196,3.9063,3.9364,3.9563,3.963,3.9413,3.9481,3.9756,4.3945,4.3926,4.3672,4.293,4.1836,4.0996,4.082,4.1074,4.084,4.0409,3.9764,3.9539,3.9062,3.8471,3.8668,3.8404,3.7801,3.7708,3.7258,3.6546,3.581,3.5262,3.4844,3.4684,3.4504,3.427,3.4055,3.407,3.4315,3.4343,3.4361,3.4405,3.4269,3.3795,3.2938,3.2609,3.2473,3.244,3.2237,3.2213,3.2372,3.2602,3.3017,3.3559,3.31,3.2923,3.318,3.2806,3.2472,3.2288,3.2579,3.2629,3.2309,3.1867,3.1255,0.0,0.0,0.0,0.0,0.0,0.0,0.0,0.0,0.0,0.0,0.0,3.0939,3.1069,3.2039,3.2914,3.3569,3.3617,3.3819,3.4276,3.4464,3.4603,3.4818,3.5257,3.5784,3.6366,3.6645,3.6911,3.7287,3.7537,3.7572,3.7383,3.7681,3.7826,3.7782,3.7948,3.8125,3.8173,3.838,3.8508,3.854,3.8346,3.8302,3.8651,3.8523,3.8471,3.8715,3.878,3.8878,3.8953,3.874,3.8691,3.9008,3.8867,3.8612,3.8774,3.9029,3.912,3.9107,3.9234,3.9451,4.5055,4.5098,4.4996,4.4805,4.4394,4.316,4.2381,4.1953,4.1953,4.1757,4.1406,4.0914,4.0757,4.0736,4.0723,4.0428,3.9952,3.9299,3.8693,3.8093,3.701,3.6285,3.591,3.5835,3.5608,3.5213,3.5175,3.5123,3.5131,3.5123,3.4925,3.4502,3.4735,3.4666,3.4294,3.3162,3.2539,3.2506,3.2201,3.2241,3.2562,3.2594,3.3128,3.4104,3.354,3.3365,3.3762,3.3357,3.3149,3.3148,3.3455,3.3641,3.3635,3.2842,3.2256,0.0,3.1897,0.0,0.0,0.0,0.0,0.0,0.0,0.0,0.0,3.2255,3.2377,3.3028,3.3167,3.3627,3.4536,3.4657,3.4894,3.5611,3.6032,3.6274,3.6344,3.6317,3.6435,3.6712,3.6328,3.6172,3.6574,3.6712,3.6995,3.7252,3.7544,3.7678,3.747,3.7773,3.8117,3.8282,3.8604,3.8697,3.8708,3.8738,3.8789,3.9145,3.8885,3.8765,3.8956,3.888,3.8796,3.8668,3.8686,3.8734,3.8721,3.8649,3.85,3.8537,3.8582,3.8649,3.8917,3.8984,3.8938,4.5547,4.5527,4.5176,4.498,4.484,4.4226,4.3513,4.2832,4.2832,4.2785,4.2609,4.2157,4.1951,4.197,4.1944,4.1568,4.0868,4.0711,4.0039,3.8976,3.8391,3.7957,3.7532,3.7137,3.694,3.6803,3.6504,3.6182,3.5795,3.5797,3.574,3.5563,3.5295,3.5243,3.5375,0.0,0.0,0.0,3.3274,3.3442,3.3552,3.3634,3.3633,3.358,3.3597,0.0,3.3254,3.2932,3.2789,3.2804,3.3117,0.0,0.0,0.0,0.0,0.0,0.0,0.0,0.0,0.0,0.0,0.0,3.3306,3.3102,3.2977,3.3644,3.4316,3.497,3.5372,3.5656,3.59,3.5913,3.5997,3.6303,3.6381,3.6422,3.6513,3.6745,3.696,3.7022,3.714,3.7259,3.7335,3.7834,3.8014,3.7744,3.7994,3.8044,3.761,3.7874,3.8126,3.8146,3.8326,3.8201,3.7905,3.7954,3.8081,3.7982,3.8166,3.8377,3.8614,3.8568,3.8601,3.8678,3.8485,3.8317,3.8538,3.85,3.8491,3.8491,3.8491,3.8551,3.8575,3.8597,3.8575,4.5976,4.5957,4.5483,4.5202,0.0,4.4473,4.3908,4.3356,4.3356,4.3346,4.3285,4.2777,4.2608,4.2565,4.2414,4.209,4.1674,4.1267,4.0653,3.9754,3.9168,3.8554,3.7951,3.7724,3.7381,3.6914,3.671,3.6341,3.5889,3.5908,3.58,3.5551,3.5492,3.5443,3.5375,3.5113,3.4533,3.3549,3.3746,3.3916,3.4112,3.4224,3.433,3.458,3.4299,0.0,0.0,0.0,0.0,0.0,0.0,0.0,0.0,3.4513,0.0,3.4732,3.4448,3.4494,3.4948,3.5019,3.5045,3.5142,3.5132,3.4729,3.3831,3.4624,3.5326,3.5558,3.5777,3.6031,3.6406,3.6434,3.6521,3.6745,3.673,3.6758,3.686,3.6963,3.7194,3.7328,3.7424,3.755,3.7666,3.7904,3.8093,3.8004,3.8116,3.8228,3.8061,3.8162,3.8293,3.8527,3.8562,3.8566,3.8413,3.8367,3.8303,3.8333,3.8272,3.8364,3.8631,3.8472,3.8338,3.8582,3.845,3.8368,3.8485,3.8491,3.8491,3.8491,3.8491,3.8491,3.8491,3.8491,3.8491,4.6479,4.6347,4.5951,4.5582,4.5143,4.4642,4.4134,4.3676,0.0,0.0,0.0,4.3174,4.2976,4.2994,4.2665,4.2454,4.2387,4.1727,4.1123,4.0583,3.985,3.9027,3.8167,3.8083,3.7604,3.6803,3.6761,3.6533,3.6067,3.6067,3.5854,3.5504,3.5736,3.5654,3.5316,3.587,3.5539,3.4337,3.4267,3.4404,3.4746,3.4768,3.5071,3.5745,3.5105,3.4935,3.5237,3.4898,3.4672,3.471,3.5305,3.5526,3.5258,3.5342,3.5266,3.4998,3.4849,3.5157,3.5897,3.5929,3.6138,3.6608,3.6612,3.611,3.4916,3.5547,3.5956,3.5866,3.5852,3.6127,3.6645,3.6706,3.6826,3.7111,3.7156,3.7154,3.7178,3.7194,3.7311,3.7538,3.754,3.7611,3.7829,3.7802,3.7892,3.8075,3.8185,3.8236,3.8464,3.8435,3.8516,3.8791,3.8842,3.8928,3.8903,3.8822,3.8903,3.8756,3.8549,3.8445,3.861,3.8457,3.8302,3.8456,3.8491,3.8477,3.8477,3.8491,3.8491,3.8491,3.8491,3.8491,3.8491,3.8491,3.8491,4.7114,4.671,4.6665,4.6356,4.5913,4.5461,4.4766,4.3999,4.3651,4.3528,4.3503,4.3416,4.3405,4.3405,4.3379,4.3177,4.2828,4.27,4.2174,4.1326,4.0854,4.0149,3.9189,3.8795,3.8311,3.7827,3.7783,3.7545,3.7147,3.7059,3.6837,3.6438,3.6441,3.6364,3.6212,3.6336,3.6172,3.5792,3.5678,3.5636,3.571,3.5753,3.5704,3.5526,3.5533,3.5405,3.5134,3.5089,3.5027,3.5044,3.5286,3.5618,3.5987,3.5854,3.5894,3.6283,3.6315,3.6349,3.65,3.648,3.6501,3.6617,3.6612,3.6569,3.6576,3.666,3.6802,3.687,3.6872,3.695,3.7009,3.7039,3.7121,3.7309,3.7365,3.7427,3.7504,3.7478,3.7543,3.7616,3.7869,3.798,3.8053,3.8229,3.8368,3.8441,3.8426,3.8485,3.85,3.847,3.8515,3.8553,3.8604,3.8487,3.842,3.8244,3.8295,3.8258,3.8244,3.8295,3.8538,3.8478,3.8456,3.8477,3.8491,3.8491,3.8491,3.8491,3.8491,3.8491,3.8491,3.8491,3.8491,3.8491,3.8491,4.6657,4.6386,4.6159,4.5932,4.564,4.4981,4.4349,4.3783,4.3549,4.3472,4.349,4.3497,4.3481,4.3481,4.3481,4.3389,4.3188,4.2703,4.2106,4.146,4.0693,3.9984,3.9333,3.8756,3.8223,3.7769,3.7481,3.7087,3.6677,3.6631,3.6539,3.6357,3.6311,3.639,3.6529,3.6498,3.6574,3.6645,3.6252,3.599,3.599,3.6019,3.5984,3.5792,3.588,3.5844,3.564,3.564,3.5624,3.5624,3.59,3.6179,3.6421,3.6404,3.6599,3.6967,3.6922,3.6948,3.7124,3.6963,3.6787,3.6626,3.6773,3.6916,3.7002,3.6825,3.6834,3.706,3.7109,3.7183,3.7362,3.7377,3.7412,3.7495,3.7539,3.7557,3.7555,3.7578,3.7702,3.7863,3.8024,3.8185,3.8309,3.8389,3.8491,3.8491,3.8491,3.8491,3.8491,3.8491,3.8491,3.8543,3.8543,3.8485,3.8339,3.8324,3.8324,3.8324,3.8324,3.8382,3.8529,3.8491,3.8491,3.8491,3.8491,3.8491,3.8491,3.8491,3.8491,3.8491,3.8491,3.8491,3.8491,3.8491,3.8491,4.6401,4.6169,4.5803,4.562,4.5445,4.4598,4.4031,4.3756,4.3573,4.3554,4.3609,4.3554,4.3481,4.3499,4.3591,4.3546,4.3303,4.2755,4.2201,4.1532,4.0722,3.9977,3.9412,3.8773,3.8238,3.7695,3.7273,3.6898,3.6584,3.6537,3.6552,3.6552,3.6552,3.6657,3.6866,3.6881,3.7,3.7176,3.669,3.6392,3.6339,3.6324,3.6324,3.6324,3.6355,3.6308,3.6324,3.6385,3.643,3.6445,3.6716,3.6881,3.6896,3.7005,3.716,3.7363,3.7316,3.7314,3.7534,3.7344,3.7095,3.6861,3.7065,3.7197,3.7183,3.6978,3.6919,3.7153,3.7218,3.7335,3.7511,3.7584,3.7607,3.7716,3.7746,3.7775,3.7782,3.7797,3.7885,3.8134,3.8178,3.828,3.847,3.8491,3.8491,3.8491,3.8491,3.8491,3.8491,3.8491,3.8491,3.8491,3.8491,3.8529,3.8491,3.8529,3.8529,3.8491,3.8529,3.8529,3.8491,3.8491,3.8491,3.8491,3.8491,3.8491,3.8491,3.8491,3.8491,3.8491,3.8491,3.8491,3.8491,3.8491,3.8491,4.731,4.6588,4.6439,4.6242,4.5739,4.4976,4.4609,4.4453,4.3811,4.3701,4.3995,4.3664,4.3518,4.3536,4.3866,4.3668,4.2991,4.3451,4.3039,4.1922,4.162,4.0936,3.9815,3.9276,3.865,3.809,3.7959,3.7846,3.7748,3.7828,3.7892,3.7907,3.7907,3.7799,3.769,3.7685,3.765,3.7539,3.7495,3.7323,3.7022,3.6978,3.7041,3.6994,3.6994,3.6978,3.6991,3.7283,3.745,3.7496,3.7602,3.7685,3.7665,3.7593,3.7547,3.7576,3.757,3.7599,3.7628,3.7548,3.7555,3.7555,3.7504,3.7534,3.7534,3.7519,3.7555,3.7548,3.7534,3.7563,3.7578,3.7607,3.7739,3.8039,3.8068,3.8134,3.8353,3.8389,3.8418,3.8433,3.8456,3.8462,3.8529,3.8491,3.8491,3.8491,3.8491,3.8491,3.8491,3.8491,3.8491,3.8491,3.8491,3.8491,3.8491,3.8491,3.8491,3.8491,3.8491,3.8491,3.8491,3.8491,3.8491,3.8491,3.8491,3.8491,3.8491,3.8491,3.8491,3.8491,3.8491,3.8491,3.8491,3.8491,3.8491,4.6549,4.6213,4.6166,4.5943,4.5462,4.4911,4.4719,4.4664,4.4086,4.4068,4.438,4.427,4.4178,4.4242,4.4361,4.4097,4.3469,4.3472,4.288,4.1786,4.1335,4.0615,3.9772,3.9167,3.866,3.8269,3.7984,3.7784,3.7784,3.7784,3.7784,3.7784,3.7784,3.7758,3.7675,3.7675,3.7648,3.7614,3.7578,3.7501,3.7407,3.7383,3.7432,3.7383,3.7432,3.7383,3.7397,3.7516,3.7576,3.7591,3.7643,3.7675,3.7675,3.7656,3.7716,3.7907,3.8046,3.8061,3.7936,3.787,3.7834,3.7592,3.7804,3.7921,3.787,3.8031,3.8148,3.8119,3.7973,3.7929,3.8104,3.8148,3.8207,3.8324,3.8339,3.8397,3.8514,3.8491,3.8491,3.8491,3.8491,3.8491,3.8491,3.8491,3.8491,3.8491,3.8491,3.8491,3.8491,3.8491,3.8491,3.8491,3.8491,3.8491,3.8491,3.8491,3.8491,3.8491,3.8491,3.8491,3.8491,3.8491,3.8491,3.8491,3.8491,3.8491,3.8491,3.8491,3.8491,3.8491,3.8491,3.8491,3.8491,3.8491,3.8491,4.6085,4.5902,4.5883,4.5718,4.5425,4.5021,4.4884,4.4829,4.4462,4.4517,4.482,4.4838,4.4958,4.5031,4.4893,4.4461,4.3726,4.3413,4.2702,4.1702,4.1064,4.0513,3.994,3.9262,3.8847,3.8612,3.8147,3.7841,3.7841,3.7841,3.7841,3.7841,3.7841,3.7841,3.7841,3.7841,3.7841,3.7856,3.7841,3.7841,3.7841,3.7841,3.7753,3.7607,3.7578,3.7578,3.7578,3.7665,3.776,3.7709,3.7782,3.7841,3.7841,3.7841,3.7943,3.8178,3.8412,3.8441,3.8207,3.8192,3.809,3.79,3.8075,3.8192,3.8236,3.8397,3.8529,3.8448,3.8324,3.8295,3.8433,3.8491,3.8491,3.8491,3.8491,3.8491,3.8491,3.8491,3.8491,3.8491,3.8491,3.8491,3.8491,3.8491,3.8491,3.8491,3.8491,3.8491,3.8491,3.8491,3.8491,3.8491,3.8491,3.8491,3.8491,3.8491,3.8491,3.8491,3.8491,3.8491,3.8491,3.8491,3.8491,3.8491,3.8491,3.8491,3.8491,3.8491,3.8491,3.8491,3.8491,3.8491,3.8491,3.8491,3.8491,4.6599,4.5938,4.5883,4.5865,4.5828,4.5425,4.526,4.5242,4.4838,4.4875,4.5242,4.5278,4.548,4.5755,4.5425,4.4549,4.3406,4.3521,4.2886,4.1635,4.1242,4.0931,4.0637,3.9992,3.955,3.921,3.8656,3.8426,3.8389,3.8418,3.8448,3.847,3.8389,3.847,3.8389,3.8374,3.8433,3.8426,3.8426,3.8418,3.8418,3.8418,3.8178,3.7695,3.7592,3.7622,3.7636,3.7936,3.8097,3.8097,3.8309,3.847,3.8418,3.8418,3.8418,3.85,3.8529,3.8477,3.8448,3.8433,3.847,3.8418,3.8456,3.8448,3.847,3.8462,3.8491,3.8491,3.8448,3.8514,3.8529,3.8491,3.8491,3.8491,3.8491,3.8491,3.8491,3.8491,3.8491,3.8491,3.8491,3.8491,3.8491,3.8491,3.8491,3.8491,3.8491,3.8491,3.8491,3.8491,3.8491,3.8491,3.8491,3.8491,3.8491,3.8491,3.8491,3.8491,3.8491,3.8491,3.8491,3.8491,3.8491,3.8491,3.8491,3.8491,3.8491,3.8491,3.8491,3.8491,3.8491,3.8491,3.8491,3.8491,3.8491,4.6158,4.5883,4.5883,4.5883,4.5847,4.5462,4.5443,4.5627,4.5242,4.5297,4.5627,4.5682,4.5755,4.5883,4.5737,4.5028,4.4045,4.4074,4.3283,4.1989,4.1667,4.1226,4.0685,4.0023,3.961,3.9315,3.8803,3.8491,3.8491,3.8491,3.8491,3.8491,3.8491,3.8491,3.8491,3.8491,3.8491,3.8491,3.8491,3.8491,3.8491,3.8491,3.8412,3.8221,3.8192,3.8192,3.8141,3.8309,3.8368,3.8368,3.8485,3.8491,3.8491,3.8491,3.8491,3.8491,3.8491,3.8491,3.8491,3.8491,3.8491,3.8491,3.8491,3.8491,3.8491,3.8491,3.8491,3.8491,3.8491,3.8491,3.8491,3.8491,3.8491,3.8491,3.8491,3.8491,3.8491,3.8491,3.8491,3.8491,3.8491,3.8491,3.8491,3.8491,3.8491,3.8491,3.8491,3.8491,3.8491,3.8491,3.8491,3.8491,3.8491,3.8491,3.8491,3.8491,3.8491,3.8491,3.8491,3.8491,3.8491,3.8491,3.8491,3.8491,3.8491,3.8491,3.8491,3.8491,3.8491,3.8491,3.8491,3.8491,3.8491,3.8491,3.8491,4.5883,4.5883,4.5883,4.5883,4.5865,4.5608,4.5645,4.5847,4.5608,4.5645,4.5883,4.6012,4.6085,4.6103,4.6213,4.5859,4.5012,4.4417,4.3487,4.2326,4.2094,4.1702,4.116,4.0599,4.0128,3.9588,3.8841,3.8543,3.8491,3.8491,3.8491,3.8491,3.8491,3.8491,3.8491,3.8491,3.8491,3.8491,3.8491,3.8491,3.8491,3.8491,3.8491,3.8491,3.8491,3.8491,3.8491,3.8491,3.8491,3.8491,3.8491,3.8491,3.8491,3.8491,3.8491,3.8491,3.8491,3.8491,3.8491,3.8491,3.8491,3.8491,3.8491,3.8491,3.8491,3.8491,3.8491,3.8491,3.8491,3.8491,3.8491,3.8491,3.8491,3.8491,3.8491,3.8491,3.8491,3.8491,3.8491,3.8491,3.8491,3.8491,3.8491,3.8491,3.8491,3.8491,3.8491,3.8491,3.8491,3.8491,3.8491,3.8491,3.8491,3.8491,3.8491,3.8491,3.8491,3.8491,3.8491,3.8491,3.8491,3.8491,3.8491,3.8491,3.8491,3.8491,3.8491,3.8491,3.8491,3.8491,3.8491,3.8491,3.8491,3.8491,3.8491,4.592,4.5957,4.592,4.5975,4.5993,4.592,4.5902,4.5938,4.5902,4.592,4.6012,4.6305,4.6489,4.6544,4.6819,4.6749,4.5958,4.4617,4.3551,4.2794,4.2623,4.236,4.2018,4.1713,4.0965,4.0032,3.8996,3.8543,3.8491,3.8491,3.8491,3.8491,3.8491,3.8491,3.8491,3.8491,3.8491,3.8491,3.8491,3.8491,3.8491,3.8491,3.8491,3.8491,3.8491,3.8491,3.8491,3.8491,3.8491,3.8491,3.8491,3.8491,3.8491,3.8491,3.8491,3.8491,3.8491,3.8491,3.8491,3.8491,3.8491,3.8491,3.8491,3.8491,3.8491,3.8491,3.8491,3.8491,3.8491,3.8491,3.8491,3.8491,3.8491,3.8491,3.8491,3.8491,3.8491,3.8491,3.8491,3.8491,3.8491,3.8491,3.8491,3.8491,3.8491,3.8491,3.8491,3.8491,3.8491,3.8491,3.8491,3.8491,3.8491,3.8491,3.8491,3.8491,3.8491,3.8491,3.8491,3.8491,3.8491,3.8491,3.8491,3.8491,3.8491,3.8491,3.8491,3.8491,3.8491,3.8491,3.8491,3.8491,3.8491,3.8491,3.8491,4.6452,4.6727,4.6727,4.6727,4.669,4.6415,4.6287,4.6334,4.6287,4.6287,4.6426,4.6727,4.691,4.6929,4.7057,4.6822,4.6252,4.5662,4.4997,4.4214,4.3932,4.3406,4.2686,4.2032,4.1012,3.9722,3.8893,3.8491,3.8506,3.8506,3.8491,3.8491,3.8491,3.8491,3.8491,3.8491,3.8491,3.8491,3.8491,3.8491,3.8491,3.8491,3.8491,3.8491,3.8491,3.8491,3.8491,3.8491,3.8491,3.8491,3.8491,3.8491,3.8491,3.8491,3.8491,3.8491,3.8491,3.8491,3.8491,3.8491,3.8491,3.8491,3.8491,3.8491,3.8491,3.8491,3.8491,3.8491,3.8491,3.8491,3.8491,3.8491,3.8491,3.8491,3.8491,3.8491,3.8491,3.8491,3.8491,3.8491,3.8491,3.8491,3.8491,3.8491,3.8491,3.8491,3.8491,3.8491,3.8491,3.8491,3.8491,3.8491,3.8491,3.8491,3.8491,3.8491,3.8491,3.8491,3.8491,3.8491,3.8491,3.8491,3.8491,3.8491,3.8491,3.8491,3.8491,3.8491,3.8491,3.8491,3.8491,3.8491,3.8491,3.8491,3.8491,4.6727,4.7075,4.6929,4.6984,4.7057,4.6654,4.6562,4.669,4.6709,4.6709,4.68,4.7149,4.7332,4.7351,4.7479,4.7339,4.7046,4.7046,4.6547,4.5699,4.5017,4.4191,4.3052,4.1865,4.08,3.9725,3.9098,3.8842,3.8895,3.8725,3.8667,3.8719,3.855,3.8387,3.8217,3.8164,3.8127,3.7956,3.7904,3.7904,3.7904,3.7904,3.7904,3.7918,3.7904,3.7904,3.7904,3.7918,3.8112,3.8439,3.8491,3.8491,3.8491,3.8491,3.8491,3.8491,3.8491,3.8491,3.8491,3.8491,3.8491,3.8491,3.8491,3.8491,3.8491,3.8491,3.8491,3.8491,3.8491,3.8491,3.8491,3.8491,3.8491,3.8491,3.8491,3.8491,3.8491,3.8491,3.8491,3.8491,3.8491,3.8491,3.8491,3.8491,3.8491,3.8491,3.8491,3.8491,3.8491,3.8491,3.8491,3.8491,3.8491,3.8491,3.8491,3.8491,3.8491,3.8491,3.8491,3.8491,3.8491,3.8491,3.8491,3.8491,3.8491,3.8491,3.8491,3.8491,3.8491,3.8491,3.8491,3.8491,3.8491,3.8491,3.8491,4.68,4.7094,4.6727,4.6892,4.7222,4.6819,4.6892,4.7204,4.7259,4.7277,4.7351,4.7736,4.7882,4.7919,4.8231,4.831,4.8291,4.821,4.7708,4.6927,4.596,4.4782,4.3258,4.1692,4.0497,3.9717,3.9304,3.9238,3.9058,3.8855,3.895,3.8763,3.8492,3.8199,3.7838,3.7714,3.7562,3.7275,3.7076,3.7128,3.7086,3.7005,3.6977,3.703,3.7016,3.7016,3.7068,3.7068,3.7486,3.8283,3.8387,3.8439,3.8491,3.8491,3.8491,3.8491,3.8491,3.8491,3.8491,3.8491,3.8491,3.8491,3.8491,3.8491,3.8491,3.8491,3.8491,3.8491,3.8491,3.8491,3.8491,3.8491,3.8491,3.8439,3.8387,3.8387,3.8387,3.8335,3.8269,3.8373,3.8439,3.8491,3.8491,3.8491,3.8491,3.8491,3.8491,3.8491,3.8491,3.8491,3.8491,3.8491,3.8491,3.8491,3.8491,3.8491,3.8491,3.8491,3.8491,3.8491,3.8491,3.8491,3.8491,3.8491,3.8491,3.8491,3.8491,3.8491,3.8491,3.8491,3.8491,3.8491,3.8491,3.8491,3.8491,4.7607,4.7919,4.7534,4.7791,4.8286,4.7699,4.7772,4.8396,4.8414,4.8359,4.8506,4.8854,4.8964,4.9019,4.9093,4.8982,4.8675,4.8592,4.7987,4.7158,4.678,4.5139,4.3153,4.168,4.0317,3.9073,3.8587,3.8172,3.8172,3.8209,3.8098,3.8045,3.7999,3.785,3.7705,3.7676,3.7665,3.7505,3.7438,3.7351,3.717,3.7142,3.7083,3.6925,3.6887,3.6887,3.6925,3.6911,3.7173,3.78,3.7904,3.8112,3.8387,3.8439,3.8439,3.8439,3.8439,3.8491,3.8491,3.8491,3.8491,3.8491,3.8491,3.8491,3.8491,3.8491,3.8491,3.8491,3.8491,3.8491,3.8491,3.8491,3.8335,3.8023,3.7904,3.7747,3.7486,3.733,3.7434,3.78,3.7918,3.8127,3.8387,3.8491,3.8491,3.8491,3.8491,3.8491,3.8491,3.8491,3.8491,3.8491,3.8491,3.8491,3.8491,3.8491,3.8491,3.8491,3.8491,3.8491,3.8491,3.8491,3.8491,3.8491,3.8491,3.8491,3.8491,3.8491,3.8491,3.8491,3.8491,3.8491,3.8491,3.8491,3.8491,4.7919,4.8267,4.8047,4.8212,4.8579,4.8139,4.8322,4.8836,4.8859,4.9019,4.9134,4.9133,4.9293,4.9445,4.8988,4.8784,4.8682,4.8427,4.7901,4.7252,4.6385,4.4699,4.2593,4.1074,3.9631,3.8586,3.8213,3.8188,3.816,3.8008,3.7939,3.7951,3.7745,3.7582,3.7339,3.7367,3.7259,3.7084,3.7044,3.6934,3.6836,3.6823,3.6754,3.6589,3.6562,3.6562,3.6562,3.6562,3.6836,3.7257,3.7382,3.7486,3.78,3.78,3.78,3.7852,3.78,3.7904,3.8112,3.8164,3.8283,3.8439,3.8491,3.8491,3.8491,3.8491,3.8491,3.8491,3.8491,3.8491,3.8491,3.8491,3.8112,3.7539,3.7382,3.7225,3.6911,3.6963,3.7173,3.7486,3.7695,3.7904,3.8439,3.8491,3.8491,3.8491,3.8491,3.8491,3.8491,3.8491,3.8491,3.8491,3.8491,3.8491,3.8491,3.8491,3.8491,3.8491,3.8491,3.8491,3.8491,3.8491,3.8491,3.8491,3.8491,3.8491,3.8491,3.8491,3.8491,3.8491,3.8491,3.8491,3.8491,3.8491,3.8491,4.7956,4.8335,4.8231,4.8267,4.8359,4.8304,4.8598,4.9019,4.9111,4.9331,4.9504,4.9082,4.9224,4.9472,4.8696,4.8229,4.8588,4.8164,4.7581,4.6677,4.5332,4.3389,4.1614,4.0173,3.8924,3.8137,3.8347,3.8348,3.8169,3.8002,3.8028,3.7864,3.767,3.7397,3.7073,3.6978,3.6667,3.6436,3.6477,3.6436,3.6356,3.6329,3.6329,3.6235,3.6181,3.6181,3.6154,3.6154,3.6355,3.6774,3.6852,3.7013,3.7051,3.7076,3.7195,3.7395,3.7528,3.7724,3.7772,3.7986,3.7995,3.83,3.8338,3.8393,3.8333,3.8333,3.8408,3.8335,3.8491,3.8491,3.8491,3.8491,3.8008,3.7277,3.6963,3.6911,3.6754,3.6701,3.6963,3.7539,3.7591,3.7852,3.8283,3.8491,3.8491,3.8491,3.8491,3.8491,3.8491,3.8491,3.8491,3.8491,3.8491,3.8491,3.8491,3.8491,3.8491,3.8491,3.8491,3.8491,3.8491,3.8491,3.8491,3.8491,3.8491,3.8491,3.8491,3.8491,3.8491,3.8491,3.8491,3.8491,3.8491,3.8491,3.8491,4.8212,4.8249,4.7956,4.8194,4.8671,4.8451,4.8891,4.9826,4.9793,4.9977,5.0221,4.9861,4.9636,4.974,4.8906,4.8629,4.8298,4.7949,4.7229,4.5215,4.3551,4.184,4.0374,3.9468,3.8621,3.7606,3.7274,3.7328,3.7287,3.7371,3.7178,3.7193,3.7222,3.7016,3.6934,3.6893,3.6864,3.674,3.6727,3.6593,3.6433,3.6406,3.6313,3.6207,3.6112,3.614,3.6126,3.6126,3.6167,3.6342,3.6691,3.7052,3.7317,3.7797,3.7996,3.8102,3.8503,3.8677,3.8478,3.8329,3.8212,3.801,3.7982,3.7808,3.7593,3.8015,3.8044,3.8042,3.8217,3.8498,3.8564,3.8506,3.7999,3.7267,3.6873,3.6544,3.5823,3.5612,3.6086,3.6806,3.712,3.7434,3.8335,3.8491,3.8491,3.8491,3.8491,3.8491,3.8491,3.8491,3.8491,3.8491,3.8491,3.8491,3.8491,3.8491,3.8491,3.8491,3.8491,3.8491,3.8491,3.8491,3.8491,3.8491,3.8491,3.8491,3.8491,3.8491,3.8491,3.8491,3.8491,3.8491,3.8491,3.8491,3.8491,4.8335,4.8286,4.8267,4.8506,4.8873,4.8891,4.9349,5.0028,5.0138,5.0151,5.0183,4.9716,4.9506,4.9401,4.8667,4.814,4.7929,4.6976,4.5506,4.356,4.1777,4.0034,3.8623,3.8307,3.7756,3.6941,3.6941,3.6885,3.6885,3.6885,3.6927,3.6885,3.6899,3.6956,3.6885,3.6899,3.6914,3.6859,3.6885,3.6805,3.6727,3.67,3.666,3.6513,3.6473,3.6473,3.65,3.6487,3.6487,3.6528,3.6733,3.687,3.7031,3.746,3.7783,3.789,3.8372,3.8747,3.8587,3.8372,3.8197,3.8119,3.7904,3.7659,3.7533,3.7758,3.8006,3.8143,3.8417,3.8628,3.893,3.8821,3.8201,3.7356,3.6995,3.6401,3.5507,3.5191,3.5665,3.6544,3.6911,3.7486,3.806,3.8439,3.8491,3.8491,3.8491,3.8491,3.8491,3.8491,3.8491,3.8491,3.8491,3.8491,3.8491,3.8491,3.8491,3.8491,3.8491,3.8491,3.8491,3.8491,3.8491,3.8491,3.8491,3.8491,3.8491,3.8491,3.8491,3.8491,3.8491,3.8491,3.8491,3.8491,3.8491,4.8341,4.8322,4.8671,4.8818,4.8873,4.9203,4.9486,4.9819,4.9965,4.9823,4.9662,4.9122,4.8912,4.8649,4.7929,4.7629,4.7029,4.588,4.4098,4.1777,4.0526,3.8898,3.7535,3.7162,3.7107,3.6885,3.6885,3.6885,3.6899,3.6939,3.7005,3.6979,3.7032,3.7114,3.6992,3.6952,3.6952,3.6899,3.6885,3.6872,3.6845,3.6845,3.6832,3.6819,3.6805,3.6792,3.6792,3.6805,3.6845,3.6885,3.6885,3.6674,3.6475,3.6694,3.7127,3.7249,3.8046,3.8574,3.8858,3.8532,3.8356,3.8568,3.8058,3.7653,3.7503,3.753,3.7797,3.813,3.8394,3.8821,3.9373,3.926,3.8518,3.7667,3.7153,3.6486,3.5574,3.5257,3.5799,3.6597,3.6963,3.7382,3.806,3.8491,3.8491,3.8491,3.8491,3.8491,3.8491,3.8491,3.8491,3.8491,3.8491,3.8491,3.8491,3.8491,3.8491,3.8491,3.8491,3.8491,3.8491,3.8491,3.8491,3.8491,3.8491,3.8491,3.8491,3.8491,3.8491,3.8491,3.8491,3.8491,3.8491,3.8491,3.8491,4.8598,4.8286,4.8359,4.8396,4.8469,4.8836,4.9041,4.9013,4.936,4.9356,4.9104,4.8614,4.8368,4.8157,4.7735,4.6764,4.579,4.4704,4.2967,4.0635,3.9501,3.8404,3.7217,3.6885,3.6885,3.6885,3.6885,3.6885,3.6952,3.7168,3.7195,3.7315,3.7448,3.7462,3.7288,3.7288,3.7114,3.6899,3.6885,3.6885,3.6885,3.6912,3.6899,3.6899,3.6912,3.6912,3.6885,3.6885,3.6885,3.6885,3.6885,3.6874,3.6822,3.7235,3.7716,3.8195,3.8782,3.9204,3.9273,3.933,3.8757,3.8237,3.7839,3.7387,3.7101,3.7142,3.744,3.7653,3.8229,3.8897,3.9403,3.948,3.885,3.8059,3.7561,3.7048,3.5991,3.5658,3.5949,3.6816,3.7062,3.7277,3.8008,3.8491,3.8491,3.8491,3.8491,3.8491,3.8491,3.8491,3.8491,3.8491,3.8491,3.8491,3.8491,3.8491,3.8491,3.8491,3.8491,3.8491,3.8491,3.8491,3.8491,3.8491,3.8491,3.8491,3.8491,3.8491,3.8491,3.8491,3.8491,3.8491,3.8491,3.8491,3.8491,4.8671,4.8335,4.8335,4.8524,4.8859,4.8808,4.9009,4.9277,4.92,4.8962,4.8631,4.8316,4.8052,4.7788,4.7523,4.6445,4.4972,4.3722,4.1994,3.9885,3.8623,3.7867,3.6941,3.6885,3.6885,3.6885,3.6885,3.6899,3.6899,3.7005,3.7181,3.7168,3.7301,3.7275,3.7181,3.7128,3.7088,3.6899,3.6899,3.6899,3.6925,3.7019,3.7101,3.6952,3.7074,3.7088,3.6899,3.6885,3.6885,3.6885,3.6885,3.6885,3.6996,3.7217,3.7604,3.8266,3.9036,3.9585,3.9585,3.9585,3.9296,3.8802,3.8211,3.766,3.7276,3.7208,3.7291,3.7919,3.8476,3.9358,3.9982,3.986,3.9343,3.8693,3.8178,3.7365,3.6557,3.6141,3.6487,3.7106,3.7121,3.7481,3.8179,3.8491,3.8491,3.8491,3.8558,3.8587,3.8617,3.8587,3.8602,3.8491,3.8491,3.8491,3.8491,3.8491,3.8491,3.8491,3.8491,3.8491,3.8491,3.8491,3.8491,3.8491,3.8491,3.8491,3.8491,3.8491,3.8491,3.8491,3.8491,3.8491,3.8491,3.8491,3.8491,4.8909,4.8524,4.8425,4.8759,4.9206,4.8823,4.8893,4.9275,4.8981,4.8544,4.8105,4.7999,4.7788,4.7365,4.6817,4.5843,4.4221,4.2481,4.0635,3.8953,3.7701,3.6941,3.6941,3.6994,3.7021,3.6885,3.7048,3.7021,3.7074,3.7101,3.7074,3.7208,3.7099,3.7005,3.7045,3.7208,3.7019,3.6992,3.7045,3.7059,3.7126,3.7328,3.7368,3.7155,3.7342,3.7355,3.7208,3.7139,3.7139,3.7099,3.7045,3.6992,3.6965,3.6912,3.7107,3.7715,3.8761,3.9311,3.964,3.9818,3.9764,3.9366,3.8651,3.8211,3.7646,3.7329,3.7398,3.8472,3.9049,3.9637,4.018,4.0241,3.9853,3.9278,3.8566,3.7897,3.7261,3.6896,3.7057,3.7359,3.7304,3.7799,3.8684,3.8895,3.8968,3.8953,3.8982,3.8953,3.8953,3.8763,3.8704,3.8587,3.8491,3.8491,3.8491,3.8491,3.8491,3.8491,3.8491,3.8491,3.8491,3.8491,3.8491,3.8491,3.8491,3.8491,3.8491,3.8491,3.8491,3.8491,3.8491,3.8491,3.8491,3.8491,3.8491,4.9753,4.9299,4.8824,4.8712,4.8787,4.8528,4.8206,4.8001,4.8228,4.7999,4.7576,4.7523,4.747,4.71,4.579,4.4275,4.2535,4.0961,3.9227,3.7646,3.7134,3.6939,3.6952,3.7221,3.7168,3.7074,3.7208,3.7315,3.7275,3.7261,3.7408,3.7529,3.7515,3.7569,3.7301,3.7462,3.7569,3.7422,3.7569,3.7676,3.7676,3.7729,3.7729,3.7689,3.7716,3.7716,3.7622,3.7595,3.7622,3.7622,3.7435,3.7342,3.7288,3.7061,3.6967,3.7328,3.8087,3.9022,3.9475,3.9983,4.0147,3.9818,3.9366,3.8816,3.8101,3.7549,3.7604,3.8527,3.8871,3.942,4.0256,4.0431,4.0089,3.9772,3.933,3.852,3.7837,3.7645,3.7793,3.8075,3.813,3.8636,3.9344,3.9368,3.9407,3.9407,3.9377,3.9348,3.9275,3.907,3.8798,3.8681,3.8594,3.8594,3.8491,3.8491,3.8491,3.8491,3.8491,3.8491,3.8491,3.8491,3.8491,3.8491,3.8491,3.8491,3.8491,3.8491,3.8491,3.8491,3.8491,3.8491,3.8491,3.8491,3.8491,4.9293,4.873,4.8694,4.8603,4.851,4.8119,4.7948,4.7896,4.7771,4.7629,4.7417,4.7365,4.7365,4.6993,4.5576,4.3899,4.2102,4.0307,3.8623,3.7271,3.7074,3.7168,3.7261,3.7462,3.7462,3.7248,3.7301,3.7342,3.7342,3.7235,3.7221,3.7355,3.7502,3.7489,3.7448,3.7676,3.7716,3.7689,3.7742,3.7796,3.7863,3.7956,3.7983,3.7836,3.7983,3.7969,3.7876,3.7809,3.7809,3.7796,3.7662,3.7542,3.7408,3.7248,3.7141,3.6996,3.7715,3.8431,3.9091,3.9983,4.0202,4.0092,3.9764,3.9146,3.8417,3.8087,3.8211,3.9146,3.9201,3.964,4.0271,4.0475,4.038,4.0092,3.9818,3.9363,3.8757,3.8524,3.8509,3.8752,3.9047,3.9477,3.9753,3.966,3.9641,3.9597,3.9568,3.9509,3.9465,3.9363,3.9129,3.8827,3.8769,3.8725,3.8579,3.8491,3.8491,3.8491,3.8491,3.8491,3.8491,3.8491,3.8491,3.8491,3.8491,3.8491,3.8491,3.8491,3.8491,3.8491,3.8491,3.8491,3.8491,3.8491,3.8491,4.8493,4.7755,4.8327,4.848,4.8331,4.7809,4.7721,4.7912,4.7576,4.7417,4.7365,4.7365,4.7206,4.6392,4.4811,4.3021,4.1397,3.9721,3.8307,3.7354,3.7141,3.7221,3.7315,3.7529,3.7595,3.7301,3.7595,3.7542,3.7368,3.7288,3.7206,3.7099,3.7489,3.7515,3.7582,3.7796,3.7969,3.8103,3.809,3.8103,3.813,3.8277,3.8237,3.8197,3.8223,3.8277,3.8076,3.8063,3.8076,3.8076,3.7969,3.7809,3.7569,3.7408,3.7208,3.7118,3.7549,3.8046,3.8706,3.9435,4.0202,4.0256,3.9983,3.9366,3.9036,3.8857,3.8926,3.9475,3.953,3.9873,4.0326,4.0475,4.0435,4.0326,4.0092,3.9873,3.964,3.9363,3.9171,3.9223,3.9508,3.9907,4.0103,3.9923,3.986,3.9802,3.9743,3.9699,3.967,3.9641,3.9377,3.9047,3.8901,3.8813,3.8608,3.8491,3.8491,3.8491,3.8491,3.8491,3.8491,3.8491,3.8491,3.8491,3.8491,3.8491,3.8491,3.8491,3.8491,3.8491,3.8491,3.8491,3.8491,3.8491,3.8491,4.7585,4.6656,4.7791,4.8176,4.8106,4.7648,4.7366,4.7207,4.7241,4.7046,4.6887,4.7206,4.6339,4.4865,4.3183,4.1505,3.9775,3.7922,3.7259,3.6996,3.6967,3.7061,3.7235,3.7462,3.7582,3.7288,3.7635,3.7729,3.7582,3.7662,3.7689,3.7769,3.7756,3.7782,3.7876,3.8076,3.833,3.8477,3.8517,3.8544,3.8557,3.8624,3.8611,3.8624,3.8638,3.8664,3.8651,3.8584,3.8544,3.8531,3.8344,3.8036,3.7756,3.7555,3.7315,3.7132,3.7328,3.777,3.8225,3.9091,3.9873,4.0147,4.0037,3.9709,3.953,3.9022,3.9077,3.9585,3.9749,3.9983,4.0311,4.0475,4.0475,4.042,4.0256,4.0147,4.0037,4.0147,3.9954,3.9804,3.9914,4.0256,4.0366,4.0226,4.0168,4.0109,4.0124,4.008,4.0007,3.9934,3.9612,3.9334,3.9129,3.8924,3.8594,3.8506,3.8491,3.8491,3.8491,3.8491,3.8491,3.8491,3.8491,3.8491,3.8491,3.8491,3.8491,3.8491,3.8491,3.8491,3.8491,3.8491,3.8491,3.8491,3.8491,4.7195,4.6554,4.6855,4.6975,4.6888,4.5886,4.5442,4.5263,4.4607,4.4221,4.4366,4.5186,4.4865,4.3129,4.1451,4.0322,3.9392,3.7756,3.7107,3.6965,3.7088,3.7181,3.7368,3.7515,3.7702,3.7555,3.7849,3.7929,3.7729,3.7956,3.805,3.8133,3.809,3.8147,3.824,3.8357,3.8571,3.8664,3.8718,3.8718,3.8718,3.8718,3.8718,3.8718,3.8718,3.8718,3.8704,3.8718,3.8718,3.8691,3.8584,3.8263,3.7889,3.7702,3.7395,3.6965,3.7231,3.7439,3.7935,3.8871,3.9873,4.0326,4.0256,4.0147,4.0092,3.9873,3.9873,4.0092,4.0092,4.0256,4.0366,4.0475,4.0475,4.0475,4.042,4.0311,4.0311,4.0435,4.0435,4.0092,4.0202,4.042,4.0475,4.046,4.0446,4.0446,4.046,4.0446,4.0314,4.0212,3.9904,3.9641,3.9421,3.9129,3.8798,3.8638,3.8558,3.8491,3.8491,3.8491,3.8491,3.8491,3.8491,3.8491,3.8491,3.8491,3.8491,3.8491,3.8491,3.8491,3.8491,3.8491,3.8491,3.8491,3.8491,4.6242,4.5345,4.5191,4.529,4.5337,4.4489,4.3846,4.3321,4.2471,4.1981,4.2165,4.3295,4.2997,4.1367,4.0307,3.9173,3.8569,3.748,3.7051,3.6939,3.7101,3.7235,3.7342,3.7475,3.7622,3.7716,3.7916,3.7956,3.7969,3.825,3.837,3.8397,3.8397,3.8397,3.845,3.8584,3.8718,3.8718,3.8718,3.8718,3.8718,3.8718,3.8718,3.8718,3.8718,3.8718,3.8718,3.8718,3.8718,3.8718,3.8638,3.837,3.805,3.7729,3.7489,3.7099,3.6941,3.7107,3.7715,3.8816,3.9749,4.0092,4.042,4.042,4.0475,4.0475,4.0366,4.0435,4.0475,4.0475,4.0475,4.0475,4.0475,4.0475,4.0475,4.042,4.042,4.049,4.049,4.042,4.0475,4.0475,4.0475,4.0475,4.0475,4.0475,4.0475,4.0475,4.0431,4.0343,4.0226,3.9977,3.9758,3.9421,3.9099,3.8924,3.8734,3.8491,3.8491,3.8491,3.8491,3.8491,3.8491,3.8491,3.8491,3.8491,3.8491,3.8491,3.8491,3.8491,3.8491,3.8491,3.8491,3.8491,3.8491,4.4633,4.2772,4.2703,4.3092,4.3523,4.3741,4.292,4.1713,4.1309,4.1172,4.1216,4.166,4.1034,3.9827,3.9227,3.8527,3.7535,3.7051,3.6885,3.6912,3.6994,3.6925,3.7032,3.7261,3.7529,3.7555,3.7876,3.824,3.8263,3.8491,3.8638,3.8651,3.8624,3.8638,3.8691,3.8704,3.8718,3.8718,3.8718,3.8718,3.8718,3.8718,3.8718,3.8718,3.8718,3.8718,3.8718,3.8718,3.8718,3.8718,3.8718,3.8437,3.7983,3.7849,3.7542,3.7005,3.6912,3.6941,3.7051,3.8651,3.9366,3.9749,4.0147,4.0366,4.0475,4.0475,4.0475,4.0475,4.0475,4.0475,4.0475,4.0475,4.0475,4.0475,4.0475,4.0475,4.0475,4.0475,4.0475,4.0475,4.0475,4.0475,4.0475,4.0475,4.0475,4.0475,4.0475,4.0475,4.0475,4.0446,4.0358,4.0212,3.9977,3.9626,3.929,3.9099,3.8895,3.8675,3.8491,3.8491,3.8491,3.8491,3.8491,3.8491,3.8491,3.8491,3.8491,3.8491,3.8491,3.8491,3.8491,3.8491,3.8491,3.8491,3.8491,4.2667,4.0689,4.0673,4.0322,3.9867,3.9935,3.9716,3.941,3.9421,3.9105,3.8662,3.934,3.9147,3.8169,3.7867,3.7535,3.7051,3.6885,3.6885,3.6885,3.6885,3.6885,3.6965,3.7221,3.7475,3.7729,3.809,3.8384,3.8571,3.8691,3.8704,3.8718,3.8718,3.8718,3.8718,3.8718,3.8718,3.8718,3.8718,3.8718,3.8718,3.8718,3.8718,3.8718,3.8718,3.8718,3.8718,3.8718,3.8718,3.8718,3.8718,3.8504,3.8116,3.7983,3.7649,3.7248,3.7101,3.6885,3.7107,3.7935,3.8761,3.9325,3.9818,4.0147,4.0366,4.049,4.0475,4.0475,4.0475,4.0475,4.0475,4.0475,4.0475,4.0475,4.0475,4.0475,4.0475,4.0475,4.0475,4.0475,4.0475,4.0475,4.0475,4.0475,4.0475,4.0475,4.0475,4.0475,4.0475,4.0475,4.0431,4.0329,4.0124,3.9787,3.9509,3.9334,3.9026,3.8667,3.8535,3.8491,3.8491,3.8491,3.8491,3.8491,3.8491,3.8491,3.8491,3.8491,3.8491,3.8491,3.8491,3.8491,3.8491,3.8491,3.8491,4.0595,3.8887,3.8836,3.8052,3.7054,3.7619,3.7652,3.7247,3.7421,3.7042,3.6667,3.752,3.7687,3.7016,3.6832,3.6885,3.6885,3.6885,3.6885,3.6885,3.6885,3.6885,3.6979,3.7248,3.7515,3.7823,3.8116,3.841,3.8678,3.8704,3.8718,3.8718,3.8718,3.8718,3.8718,3.8718,3.8718,3.8718,3.8718,3.8718,3.8718,3.8718,3.8718,3.8718,3.8718,3.8718,3.8718,3.8718,3.8718,3.8718,3.8678,3.8571,3.829,3.8076,3.7809,3.7542,3.7382,3.7206,3.7386,3.7567,3.8334,3.8972,3.9355,3.9764,4.0202,4.0311,4.049,4.0475,4.049,4.053,4.053,4.053,4.0599,4.0599,4.053,4.053,4.0475,4.0475,4.0475,4.0475,4.0475,4.0475,4.0475,4.0475,4.0475,4.0475,4.0475,4.0475,4.0475,4.0475,4.0475,4.0402,4.0299,4.0036,3.9802,3.9626,3.926,3.874,3.8638,3.8608,3.8491,3.8491,3.8491,3.8491,3.8506,3.8506,3.8491,3.8543,3.8602,3.8587,3.8491,3.8491,3.8491,3.8491,3.8491,3.8421,3.7203,3.7128,3.6381,3.5638,3.6873,3.6663,3.5336,3.5551,3.5685,3.5672,3.6141,3.6409,3.6595,3.6794,3.6859,3.6885,3.6885,3.6885,3.6885,3.6885,3.6885,3.6992,3.7275,3.7582,3.7849,3.8157,3.8504,3.8704,3.8718,3.8718,3.8718,3.8718,3.8718,3.8718,3.8718,3.8718,3.8718,3.8718,3.8718,3.8718,3.8718,3.8718,3.8718,3.8718,3.8718,3.8718,3.8718,3.8718,3.8718,3.8704,3.8531,3.8384,3.8321,3.8063,3.7889,3.7769,3.7729,3.7702,3.7788,3.789,3.8458,3.9083,3.9424,3.9764,4.0092,4.0311,4.049,4.0599,4.0584,4.0584,4.0693,4.0763,4.0708,4.0654,4.0599,4.0544,4.0475,4.0475,4.0475,4.0475,4.0475,4.0475,4.0475,4.0475,4.0475,4.0475,4.0475,4.0475,4.0475,4.0475,4.0475,4.0387,4.0299,4.008,3.9831,3.9553,3.9099,3.8886,3.8813,3.8667,3.8521,3.8491,3.8491,3.8521,3.855,3.8623,3.8704,3.8704,3.8704,3.8792,3.8564,3.8594,3.8506,3.8491,3.6376,3.5137,3.515,3.5139,3.5269,3.5704,3.5612,3.5217,3.5297,3.5418,3.5631,3.5712,3.6072,3.65,3.6593,3.6712,3.6819,3.6885,3.6885,3.6885,3.6885,3.6885,3.7045,3.7382,3.7676,3.7943,3.825,3.8544,3.8678,3.8704,3.8718,3.8718,3.8718,3.8718,3.8718,3.8718,3.8718,3.8718,3.8718,3.8718,3.8718,3.8718,3.8718,3.8718,3.8718,3.8718,3.8718,3.8718,3.8718,3.8718,3.8718,3.8624,3.8624,3.8384,3.813,3.7863,3.7796,3.7796,3.7809,3.7823,3.7896,3.8068,3.8608,3.914,3.9496,3.9807,4.0081,4.0326,4.0748,4.0912,4.1075,4.1184,4.113,4.1021,4.0912,4.0803,4.0693,4.0475,4.0475,4.0475,4.0475,4.0475,4.0475,4.0475,4.0475,4.0475,4.0475,4.0475,4.0475,4.0475,4.0475,4.0475,4.046,4.0358,4.0197,3.9963,3.9729,3.9465,3.9304,3.9061,3.8901,3.8754,3.8579,3.8579,3.874,3.8813,3.8857,3.8886,3.9012,3.9173,3.926,3.8901,3.8667,3.8667,3.8623,3.4835,3.4347,3.4322,3.4656,3.5137,3.5204,3.5204,3.5204,3.5204,3.5351,3.5618,3.5765,3.6059,3.6473,3.6647,3.6794,3.6872,3.6885,3.6885,3.6885,3.6885,3.6885,3.7072,3.7382,3.7569,3.7836,3.809,3.8344,3.8531,3.8678,3.8718,3.8718,3.8718,3.8718,3.8718,3.8718,3.8718,3.8718,3.8718,3.8718,3.8718,3.8718,3.8718,3.8718,3.8718,3.8718,3.8718,3.8718,3.8718,3.8718,3.8718,3.8718,3.8704,3.8517,3.8424,3.8223,3.8223,3.8237,3.8237,3.8166,3.8116,3.8137,3.8338,3.8702,3.9183,3.9597,3.9826,4.0081,4.0763,4.1333,4.155,4.1713,4.155,4.1333,4.1239,4.1021,4.0803,4.053,4.0475,4.0475,4.0475,4.0475,4.0475,4.0475,4.0475,4.0475,4.0475,4.0475,4.0475,4.0475,4.0475,4.0475,4.0475,4.0431,4.0255,4.0138,3.9977,3.9816,3.9685,3.948,3.926,3.9076,3.9041,3.9056,3.9061,3.9173,3.9217,3.9319,3.9407,3.9553,3.9597,3.9348,3.9143,3.9099,3.9056,3.3761,3.4336,3.4324,3.4723,3.5164,3.5204,3.5204,3.5204,3.5204,3.5338,3.5591,3.5885,3.6139,3.6406,3.6647,3.6779,3.6859,3.6885,3.6885,3.6885,3.6885,3.6885,3.6965,3.7235,3.7435,3.7515,3.7716,3.813,3.8317,3.8491,3.8624,3.8704,3.8718,3.8718,3.8718,3.8718,3.8718,3.8718,3.8718,3.8718,3.8718,3.8718,3.8718,3.8718,3.8718,3.8718,3.8718,3.8718,3.8718,3.8718,3.8718,3.8718,3.8704,3.8704,3.8664,3.8651,3.8584,3.8571,3.8557,3.8557,3.8477,3.8384,3.8348,3.8503,3.8911,3.928,3.9474,4.015,4.0852,4.1716,4.217,4.2594,4.2642,4.2052,4.1625,4.1174,4.0639,4.049,4.0475,4.0475,4.0475,4.0475,4.0475,4.0475,4.0475,4.0475,4.0475,4.0475,4.0475,4.0475,4.0475,4.0475,4.0475,4.046,4.0431,4.0329,4.027,4.0153,3.9992,3.9831,3.9582,3.9509,3.9495,3.9436,3.9377,3.9495,3.9568,3.9699,3.9773,3.9787,3.9787,3.967,3.9582,3.9553,3.9392,3.3761,3.4362,3.4803,3.5084,3.5191,3.5204,3.5204,3.5204,3.5204,3.5244,3.5351,3.5618,3.5872,3.6205,3.6553,3.6712,3.6859,3.6885,3.6885,3.6885,3.6885,3.6885,3.6925,3.7195,3.7328,3.7475,3.7676,3.7956,3.8237,3.8384,3.8517,3.8691,3.8718,3.8718,3.8718,3.8718,3.8718,3.8718,3.8718,3.8718,3.8718,3.8718,3.8718,3.8718,3.8718,3.8718,3.8718,3.8718,3.8718,3.8718,3.8718,3.8718,3.8718,3.8718,3.8718,3.8718,3.8718,3.8718,3.8718,3.8718,3.8651,3.8638,3.8544,3.8455,3.8584,3.8853,3.9322,4.0092,4.0981,4.191,4.2623,4.3129,4.3356,4.261,4.1934,4.1219,4.0559,4.0544,4.0475,4.0475,4.0475,4.0475,4.0475,4.0475,4.0475,4.0475,4.0475,4.0475,4.0475,4.0475,4.0475,4.0475,4.0475,4.0475,4.0475,4.0475,4.0387,4.0299,4.0153,4.0007,3.989,3.9816,3.9743,3.967,3.9641,3.9787,3.9948,4.0138,4.0197,4.0109,4.0095,4.0021,4.0095,4.0095,3.9846,3.3694,3.4189,3.4763,3.5084,3.5191,3.5204,3.5204,3.5204,3.5204,3.5204,3.5271,3.5631,3.5871,3.6055,3.6402,3.6685,3.6872,3.6885,3.6885,3.6885,3.6885,3.6885,3.7034,3.7114,3.7128,3.7275,3.7649,3.7956,3.8197,3.845,3.8611,3.8704,3.8718,3.8718,3.8718,3.8718,3.8718,3.8718,3.8718,3.8718,3.8718,3.8718,3.8718,3.8718,3.8718,3.8718,3.8718,3.8718,3.8718,3.8718,3.8718,3.8718,3.8718,3.8718,3.8718,3.8718,3.8718,3.8718,3.8718,3.8718,3.8718,3.8718,3.8718,3.8588,3.8588,3.8823,3.8863,3.9559,4.0444,4.1406,4.1558,4.1939,4.2091,4.1641,4.1387,4.0929,4.0577,4.049,4.0475,4.0475,4.0475,4.0475,4.0475,4.0475,4.0475,4.0475,4.0475,4.0475,4.0475,4.0475,4.0475,4.0475,4.0475,4.0475,4.0475,4.0475,4.046,4.0373,4.0299,4.0255,4.0168,4.0065,3.9977,3.9977,4.0007,4.0138,4.0314,4.0402,4.0431,4.0343,4.0373,4.0416,4.0475,4.0475,4.0241,3.355,3.3846,3.4314,3.4713,3.5005,3.5032,3.5111,3.5191,3.5204,3.5098,3.502,3.5698,3.588,3.609,3.6518,3.6777,3.6885,3.6885,3.6885,3.6885,3.6885,3.6885,3.6885,3.6912,3.6939,3.7059,3.7408,3.7796,3.8143,3.8317,3.8464,3.8651,3.8718,3.8718,3.8718,3.8718,3.8718,3.8718,3.8718,3.8718,3.8718,3.8718,3.8718,3.8718,3.8718,3.8718,3.8718,3.8718,3.8718,3.8718,3.8718,3.8718,3.8718,3.8718,3.8718,3.8718,3.8718,3.8718,3.8718,3.8718,3.8718,3.8718,3.8718,3.8718,3.8704,3.87,3.8732,3.9168,4.0053,4.0715,4.0884,4.1063,4.1168,4.1182,4.1039,4.0782,4.0621,4.049,4.0475,4.0475,4.0475,4.0475,4.0475,4.0475,4.0475,4.0475,4.0475,4.0475,4.0475,4.0475,4.0475,4.0475,4.0475,4.0475,4.0475,4.0475,4.0475,4.046,4.0402,4.0446,4.0446,4.0299,4.0255,4.0358,4.0416,4.0402,4.0402,4.046,4.0475,4.0475,4.0475,4.0475,4.0475,4.0475,4.0475,3.3336,3.3234,3.3162,3.3525,3.4085,3.4164,3.4557,3.5125,3.5191,3.4716,3.4489,3.5443,3.6072,3.6017,3.6617,3.6859,3.6708,3.6803,3.6885,3.6885,3.683,3.683,3.6885,3.6885,3.6885,3.7032,3.7261,3.7448,3.8076,3.8143,3.8277,3.8691,3.8718,3.8718,3.8718,3.8718,3.8718,3.8718,3.8718,3.8718,3.8718,3.8718,3.8718,3.8718,3.8718,3.8718,3.8718,3.8718,3.8718,3.8718,3.8731,3.8731,3.8744,3.8744,3.8686,3.8771,3.8758,3.8718,3.8718,3.8718,3.8718,3.8718,3.8718,3.8718,3.8718,3.8704,3.8788,3.8962,3.9759,4.0646,4.096,4.1172,4.1266,4.1236,4.1112,4.0793,4.0519,4.049,4.0475,4.0475,4.0475,4.0475,4.0475,4.0475,4.0475,4.0475,4.0475,4.0475,4.0475,4.0475,4.0475,4.0475,4.0475,4.0475,4.0475,4.0475,4.0475,4.0475,4.0475,4.0475,4.0475,4.0475,4.0475,4.0475,4.0475,4.046,4.0475,4.0475,4.0475,4.0475,4.0475,4.0475,4.0475,4.0475,4.0475]},{"header":{"parameterUnit":"m.s-1","parameterCategory":1,"la1":31.0,"la2":29.5877,"lo1":-88.7671,"lo2":-86.6584,"dy":0.0162,"dx":0.0185,"nx":115,"ny":88,"refTime":"2023-04-09T12:00:00:Z","depth":0,"parameterNumber":3,"parameterNumberName":"V-component_of_WINDS"},"data":[0.0,0.0,0.0,0.0,0.0,0.0,0.0,0.0,0.0,0.0,0.0,0.0,0.0,0.0,0.0,0.0,0.0,0.0,0.0,0.0,0.0,0.0,0.0,0.0,0.0,0.0,0.0,0.0,0.0,0.0,0.0,0.0,0.0,0.0,0.0,0.0,0.0,0.0,0.0,0.0,0.0,0.0,0.0,0.0,0.0,0.0,0.0,0.0,0.0,0.0,0.0,0.0,0.0,0.0,0.0,0.0,0.0,0.0,0.0,0.0,0.0,0.0,0.0,0.0,0.0,0.0,0.0,0.0,0.0,0.0,0.0,0.0,0.0,0.0,0.0,0.0,0.0,0.0,0.0,0.0,0.0,0.0,0.0,0.0,0.0,0.0,0.0,0.0,0.0,0.0,0.0,0.0,0.0,0.0,0.0,0.0,0.0,0.0,0.0,0.0,0.0,0.0,0.0,0.0,0.0,0.0,0.0,0.0,0.0,0.0,0.0,0.0,0.0,0.0,0.0,0.0,0.0,0.0,0.0,0.0,0.0,0.0,0.0,0.0,0.0,0.0,0.0,0.0,0.0,0.0,0.0,0.0,0.0,0.0,0.0,0.0,0.0,0.0,0.0,0.0,0.0,0.0,0.0,0.0,0.0,0.0,0.0,0.0,0.0,0.0,0.0,0.0,0.0,0.0,0.0,0.0,0.0,0.0,0.0,0.0,0.0,0.0,0.0,0.0,0.0,0.0,0.0,0.0,0.0,0.0,0.0,0.0,0.0,0.0,0.0,0.0,0.0,0.0,0.0,0.0,0.0,0.0,0.0,0.0,0.0,0.0,0.0,0.0,0.0,0.0,0.0,0.0,0.0,0.0,0.0,0.0,0.0,0.0,0.0,0.0,0.0,0.0,0.0,0.0,0.0,0.0,0.0,0.0,0.0,0.0,0.0,0.0,0.0,0.0,0.0,0.0,0.0,0.0,0.0,0.0,0.0,0.0,0.0,0.0,0.0,0.0,0.0,0.0,0.0,0.0,0.0,0.0,0.0,0.0,0.0,0.0,0.0,0.0,0.0,0.0,0.0,0.0,0.0,0.0,0.0,0.0,0.0,0.0,0.0,0.0,0.0,0.0,0.0,0.0,0.0,0.0,0.0,0.0,0.0,0.0,0.0,0.0,0.0,0.0,0.0,0.0,0.0,0.0,0.0,0.0,0.0,0.0,0.0,0.0,0.0,0.0,0.0,0.0,0.0,0.0,0.0,0.0,0.0,0.0,0.0,0.0,0.0,0.0,0.0,0.0,0.0,0.0,0.0,0.0,0.0,0.0,0.0,0.0,0.0,0.0,0.0,0.0,0.0,0.0,0.0,0.0,0.0,0.0,0.0,0.0,0.0,0.0,0.0,0.0,0.0,0.0,0.0,0.0,0.0,0.0,0.0,0.0,0.0,0.0,0.0,0.0,0.0,0.0,0.0,0.0,0.0,0.0,0.0,0.0,0.0,0.0,0.0,0.0,0.0,0.0,0.0,0.0,0.0,0.0,0.0,0.0,0.0,0.0,0.0,0.0,0.0,0.0,0.0,0.0,0.0,0.0,0.0,0.0,0.0,0.0,0.0,0.0,0.0,0.0,0.0,0.0,0.0,0.0,0.0,0.0,0.0,0.0,0.0,0.0,0.0,0.0,0.0,0.0,0.0,0.0,0.0,0.0,0.0,0.0,0.0,0.0,0.0,0.0,0.0,0.0,0.0,0.0,0.0,0.0,0.0,0.0,0.0,0.0,0.0,0.0,0.0,0.0,0.0,0.0,0.0,0.0,0.0,0.0,0.0,0.0,0.0,0.0,0.0,0.0,0.0,0.0,0.0,0.0,0.0,0.0,0.0,0.0,0.0,0.0,0.0,0.0,0.0,0.0,0.0,0.0,0.0,0.0,0.0,0.0,0.0,0.0,0.0,0.0,0.0,0.0,0.0,0.0,0.0,0.0,0.0,0.0,0.0,0.0,0.0,0.0,0.0,0.0,0.0,0.0,0.0,0.0,0.0,0.0,0.0,0.0,0.0,0.0,0.0,0.0,0.0,0.0,0.0,0.0,0.0,0.0,0.0,0.0,0.0,0.0,0.0,0.0,0.0,0.0,0.0,0.0,0.0,0.0,0.0,0.0,0.0,0.0,0.0,0.0,0.0,0.0,0.0,0.0,0.0,0.0,0.0,0.0,0.0,0.0,0.0,0.0,0.0,0.0,0.0,0.0,0.0,0.0,0.0,0.0,0.0,0.0,0.0,0.0,0.0,0.0,0.0,0.0,0.0,0.0,0.0,0.0,0.0,0.0,0.0,0.0,0.0,0.0,0.0,0.0,0.0,0.0,0.0,0.0,0.0,0.0,0.0,0.0,0.0,0.0,0.0,0.0,0.0,0.0,0.0,0.0,0.0,0.0,0.0,0.0,0.0,0.0,0.0,0.0,0.0,0.0,0.0,0.0,0.0,0.0,0.0,0.0,0.0,0.0,0.0,0.0,0.0,0.0,0.0,0.0,0.0,0.0,0.0,0.0,0.0,0.0,0.0,0.0,0.0,0.0,0.0,0.0,0.0,0.0,0.0,0.0,0.0,0.0,0.0,0.0,0.0,0.0,0.0,0.0,0.0,0.0,0.0,0.0,0.0,0.0,0.0,0.0,0.0,0.0,0.0,0.0,0.0,0.0,0.0,0.0,0.0,0.0,0.0,0.0,0.0,0.0,0.0,0.0,0.0,0.0,0.0,0.0,0.0,0.0,0.0,0.0,0.0,0.0,0.0,0.0,0.0,0.0,0.0,0.0,0.0,0.0,0.0,0.0,0.0,0.0,0.0,0.0,0.0,0.0,0.0,0.0,0.0,0.0,0.0,0.0,0.0,0.0,0.0,0.0,0.0,0.0,0.0,0.0,0.0,0.0,0.0,0.0,0.0,0.0,0.0,0.0,0.0,0.0,0.0,0.0,0.0,0.0,0.0,0.0,0.0,0.0,0.0,0.0,0.0,0.0,0.0,0.0,0.0,0.0,0.0,0.0,0.0,0.0,0.0,0.0,0.0,0.0,0.0,0.0,0.0,0.0,0.0,0.0,0.0,0.0,0.0,0.0,0.0,0.0,0.0,0.0,0.0,0.0,0.0,0.0,0.0,0.0,0.0,0.0,0.0,0.0,0.0,0.0,0.0,0.0,0.0,0.0,0.0,0.0,0.0,0.0,0.0,0.0,0.0,0.0,0.0,0.0,0.0,0.0,0.0,0.0,0.0,0.0,0.0,0.0,0.0,0.0,0.0,0.0,0.0,0.0,0.0,0.0,0.0,0.0,0.0,0.0,0.0,0.0,0.0,0.0,0.0,0.0,0.0,0.0,0.0,0.0,0.0,0.0,0.0,0.0,0.0,0.0,0.0,0.0,0.0,0.0,0.0,0.0,0.0,0.0,0.0,0.0,0.0,0.0,0.0,0.0,0.0,0.0,0.0,0.0,0.0,0.0,0.0,0.0,0.0,0.0,0.0,0.0,0.0,0.0,0.0,0.0,0.0,0.0,0.0,0.0,0.0,0.0,0.0,0.0,0.0,0.0,0.0,0.0,0.0,0.0,0.0,0.0,0.0,0.0,0.0,0.0,0.0,0.0,0.0,0.0,0.0,0.0,0.0,0.0,0.0,0.0,0.0,0.0,0.0,0.0,0.0,0.0,0.0,0.0,0.0,0.0,0.0,0.0,0.0,0.0,0.0,0.0,0.0,0.0,0.0,0.0,0.0,0.0,0.0,0.0,0.0,0.0,0.0,0.0,0.0,0.0,0.0,0.0,0.0,0.0,0.0,0.0,0.0,0.0,0.0,0.0,0.0,0.0,0.0,0.0,0.0,0.0,0.0,0.0,0.0,0.0,0.0,0.0,0.0,0.0,0.0,0.0,0.0,0.0,0.0,0.0,0.0,0.0,0.0,0.0,0.0,0.0,0.0,0.0,0.0,0.0,0.0,0.0,0.0,0.0,0.0,0.0,0.0,0.0,0.0,0.0,0.0,0.0,0.0,0.0,0.0,0.0,0.0,0.0,0.0,0.0,0.0,0.0,0.0,0.0,0.0,0.0,0.0,0.0,0.0,0.0,0.0,0.0,0.0,0.0,0.0,0.0,0.0,0.0,0.0,0.0,0.0,0.0,0.0,0.0,0.0,0.0,0.0,0.0,0.0,0.0,0.0,0.0,0.0,0.0,0.0,0.0,0.0,0.0,0.0,0.0,0.0,0.0,0.0,0.0,0.0,0.0,0.0,0.0,0.0,0.0,4.0254,0.0,0.0,0.0,0.0,0.0,0.0,0.0,0.0,0.0,0.0,0.0,0.0,0.0,0.0,0.0,0.0,0.0,0.0,0.0,0.0,0.0,0.0,0.0,0.0,0.0,0.0,0.0,0.0,0.0,0.0,0.0,0.0,0.0,0.0,0.0,0.0,0.0,0.0,0.0,0.0,0.0,0.0,0.0,0.0,0.0,0.0,0.0,0.0,0.0,0.0,0.0,0.0,0.0,0.0,0.0,0.0,0.0,0.0,0.0,0.0,0.0,0.0,0.0,0.0,0.0,0.0,0.0,0.0,0.0,0.0,0.0,0.0,0.0,0.0,0.0,0.0,0.0,0.0,0.0,0.0,0.0,0.0,0.0,0.0,0.0,0.0,0.0,0.0,0.0,0.0,0.0,0.0,0.0,0.0,0.0,0.0,0.0,0.0,0.0,0.0,0.0,0.0,0.0,0.0,0.0,0.0,0.0,0.0,0.0,0.0,3.8202,3.9481,3.808,3.8499,4.0995,0.0,0.0,0.0,0.0,0.0,0.0,0.0,0.0,0.0,0.0,0.0,0.0,0.0,0.0,0.0,0.0,0.0,0.0,0.0,0.0,0.0,0.0,0.0,0.0,0.0,0.0,0.0,0.0,0.0,0.0,0.0,0.0,0.0,0.0,0.0,0.0,0.0,0.0,0.0,0.0,0.0,0.0,0.0,0.0,0.0,0.0,0.0,0.0,0.0,0.0,0.0,0.0,0.0,0.0,0.0,0.0,0.0,0.0,0.0,0.0,0.0,0.0,0.0,0.0,0.0,0.0,0.0,0.0,0.0,0.0,0.0,0.0,0.0,0.0,0.0,0.0,0.0,0.0,0.0,0.0,0.0,0.0,0.0,0.0,0.0,0.0,0.0,0.0,0.0,0.0,0.0,0.0,0.0,0.0,0.0,0.0,0.0,0.0,0.0,0.0,0.0,0.0,0.0,0.0,0.0,0.0,0.0,0.0,0.0,0.0,0.0,0.0,3.8114,3.8696,4.1643,0.0,0.0,0.0,0.0,0.0,0.0,0.0,0.0,0.0,0.0,0.0,0.0,0.0,0.0,0.0,0.0,0.0,0.0,0.0,0.0,0.0,0.0,0.0,0.0,0.0,0.0,0.0,0.0,0.0,0.0,0.0,0.0,0.0,0.0,0.0,0.0,0.0,0.0,0.0,0.0,0.0,0.0,0.0,0.0,0.0,0.0,0.0,0.0,0.0,0.0,0.0,0.0,0.0,0.0,0.0,0.0,0.0,0.0,0.0,0.0,0.0,0.0,0.0,0.0,0.0,0.0,0.0,0.0,0.0,0.0,0.0,0.0,0.0,0.0,0.0,0.0,0.0,0.0,0.0,0.0,0.0,0.0,0.0,0.0,0.0,0.0,0.0,0.0,0.0,0.0,0.0,0.0,0.0,0.0,0.0,0.0,0.0,0.0,0.0,0.0,0.0,0.0,0.0,0.0,0.0,0.0,0.0,0.0,0.0,0.0,3.9169,3.9415,4.0211,0.0,4.3047,0.0,0.0,0.0,0.0,0.0,0.0,0.0,0.0,0.0,0.0,0.0,0.0,0.0,0.0,0.0,0.0,0.0,0.0,0.0,0.0,0.0,0.0,0.0,0.0,0.0,0.0,0.0,0.0,0.0,0.0,0.0,0.0,0.0,0.0,0.0,0.0,0.0,0.0,0.0,0.0,0.0,0.0,0.0,0.0,0.0,0.0,0.0,0.0,0.0,0.0,0.0,0.0,0.0,0.0,0.0,0.0,0.0,0.0,0.0,0.0,0.0,0.0,0.0,0.0,0.0,0.0,0.0,0.0,0.0,0.0,0.0,0.0,0.0,0.0,0.0,0.0,0.0,0.0,0.0,0.0,0.0,0.0,0.0,0.0,0.0,0.0,0.0,0.0,0.0,0.0,0.0,0.0,0.0,0.0,0.0,0.0,0.0,0.0,0.0,0.0,0.0,0.0,0.0,0.0,0.0,0.0,0.0,0.0,0.0,0.0,3.9425,3.9304,4.087,4.2238,0.0,0.0,0.0,0.0,0.0,0.0,0.0,0.0,0.0,0.0,0.0,0.0,0.0,0.0,0.0,0.0,0.0,0.0,0.0,0.0,0.0,0.0,0.0,0.0,0.0,0.0,0.0,0.0,0.0,0.0,0.0,0.0,0.0,0.0,0.0,0.0,0.0,0.0,0.0,0.0,0.0,0.0,0.0,0.0,0.0,0.0,0.0,0.0,0.0,0.0,0.0,0.0,0.0,0.0,0.0,0.0,0.0,0.0,0.0,0.0,0.0,0.0,0.0,0.0,0.0,0.0,0.0,0.0,0.0,0.0,0.0,0.0,0.0,0.0,0.0,0.0,0.0,0.0,0.0,0.0,0.0,0.0,0.0,0.0,0.0,0.0,0.0,0.0,0.0,0.0,0.0,0.0,0.0,0.0,0.0,0.0,0.0,0.0,0.0,0.0,0.0,0.0,0.0,0.0,0.0,0.0,0.0,0.0,0.0,0.0,3.8975,3.9425,3.9624,4.0971,4.223,4.3333,0.0,0.0,0.0,0.0,0.0,0.0,0.0,0.0,0.0,0.0,0.0,0.0,0.0,0.0,0.0,0.0,0.0,0.0,0.0,0.0,0.0,0.0,0.0,0.0,0.0,0.0,0.0,0.0,0.0,0.0,0.0,0.0,0.0,0.0,0.0,0.0,0.0,0.0,0.0,0.0,0.0,0.0,0.0,0.0,0.0,0.0,0.0,0.0,0.0,0.0,0.0,0.0,0.0,0.0,0.0,0.0,0.0,0.0,0.0,0.0,0.0,0.0,0.0,0.0,0.0,0.0,0.0,0.0,0.0,0.0,0.0,0.0,0.0,0.0,0.0,0.0,0.0,0.0,0.0,0.0,0.0,0.0,0.0,0.0,0.0,0.0,0.0,0.0,0.0,0.0,0.0,0.0,0.0,0.0,0.0,0.0,0.0,0.0,0.0,0.0,0.0,0.0,0.0,0.0,0.0,0.0,0.0,0.0,3.8844,3.8691,3.9157,4.0369,4.0642,4.1471,0.0,0.0,0.0,0.0,0.0,0.0,0.0,0.0,0.0,0.0,0.0,0.0,0.0,0.0,0.0,0.0,0.0,0.0,0.0,0.0,0.0,0.0,0.0,0.0,0.0,0.0,0.0,0.0,0.0,0.0,0.0,0.0,0.0,0.0,0.0,0.0,0.0,0.0,0.0,0.0,0.0,0.0,0.0,0.0,0.0,0.0,0.0,0.0,0.0,0.0,0.0,0.0,0.0,0.0,0.0,0.0,0.0,0.0,0.0,0.0,0.0,0.0,0.0,0.0,0.0,0.0,0.0,0.0,0.0,0.0,0.0,0.0,0.0,0.0,0.0,0.0,0.0,0.0,0.0,0.0,0.0,0.0,0.0,0.0,0.0,0.0,0.0,0.0,0.0,0.0,0.0,0.0,0.0,0.0,0.0,0.0,0.0,0.0,0.0,0.0,0.0,0.0,0.0,0.0,0.0,0.0,0.0,0.0,0.0,3.8004,3.8333,3.9095,4.032,4.0801,4.1409,0.0,0.0,0.0,0.0,0.0,0.0,0.0,0.0,0.0,0.0,0.0,0.0,0.0,0.0,0.0,0.0,0.0,0.0,0.0,0.0,0.0,0.0,0.0,0.0,0.0,0.0,0.0,0.0,0.0,0.0,0.0,0.0,0.0,0.0,0.0,0.0,0.0,0.0,0.0,0.0,0.0,0.0,0.0,0.0,0.0,0.0,0.0,0.0,0.0,0.0,0.0,0.0,0.0,0.0,0.0,0.0,0.0,0.0,0.0,0.0,0.0,0.0,0.0,0.0,0.0,0.0,0.0,0.0,0.0,0.0,0.0,0.0,0.0,0.0,0.0,0.0,0.0,0.0,0.0,0.0,0.0,0.0,0.0,0.0,0.0,0.0,0.0,0.0,0.0,0.0,0.0,0.0,0.0,0.0,0.0,0.0,0.0,0.0,0.0,0.0,0.0,0.0,0.0,0.0,0.0,0.0,0.0,0.0,0.0,3.7523,0.0,3.9002,3.9974,4.0338,4.0838,0.0,0.0,0.0,0.0,0.0,0.0,0.0,0.0,0.0,0.0,0.0,0.0,0.0,0.0,0.0,0.0,0.0,0.0,0.0,0.0,0.0,0.0,0.0,0.0,0.0,0.0,0.0,0.0,0.0,0.0,0.0,0.0,0.0,0.0,0.0,0.0,0.0,0.0,0.0,0.0,0.0,0.0,0.0,0.0,0.0,0.0,0.0,0.0,0.0,0.0,0.0,0.0,0.0,0.0,0.0,0.0,0.0,0.0,0.0,0.0,0.0,0.0,0.0,0.0,0.0,0.0,0.0,0.0,0.0,0.0,0.0,0.0,0.0,0.0,0.0,0.0,0.0,0.0,0.0,0.0,0.0,0.0,0.0,0.0,0.0,0.0,0.0,0.0,0.0,0.0,0.0,0.0,0.0,0.0,0.0,0.0,0.0,0.0,0.0,0.0,0.0,0.0,0.0,0.0,0.0,0.0,0.0,0.0,3.6877,3.7508,3.8202,3.8962,3.9503,3.9286,3.9753,0.0,0.0,0.0,0.0,0.0,0.0,0.0,0.0,0.0,0.0,0.0,0.0,0.0,0.0,0.0,0.0,0.0,0.0,0.0,0.0,0.0,0.0,0.0,0.0,0.0,0.0,0.0,0.0,0.0,0.0,0.0,0.0,0.0,0.0,0.0,0.0,0.0,0.0,0.0,0.0,0.0,0.0,0.0,0.0,0.0,0.0,0.0,0.0,0.0,0.0,0.0,0.0,0.0,0.0,0.0,0.0,0.0,0.0,0.0,0.0,0.0,0.0,0.0,0.0,0.0,0.0,0.0,0.0,0.0,0.0,0.0,0.0,0.0,0.0,0.0,0.0,0.0,0.0,0.0,0.0,0.0,0.0,0.0,0.0,0.0,0.0,0.0,0.0,0.0,0.0,0.0,0.0,0.0,0.0,0.0,0.0,0.0,0.0,0.0,0.0,0.0,0.0,0.0,0.0,0.0,0.0,0.0,0.0,0.0,3.8858,3.9485,4.046,4.1731,4.0918,4.0832,0.0,0.0,0.0,0.0,0.0,0.0,0.0,0.0,0.0,0.0,0.0,0.0,0.0,0.0,0.0,0.0,0.0,0.0,0.0,0.0,0.0,0.0,0.0,0.0,0.0,0.0,0.0,0.0,0.0,0.0,0.0,0.0,0.0,0.0,0.0,0.0,0.0,0.0,0.0,0.0,0.0,0.0,0.0,0.0,0.0,0.0,0.0,0.0,0.0,0.0,0.0,0.0,0.0,0.0,0.0,0.0,0.0,0.0,0.0,0.0,0.0,0.0,0.0,0.0,0.0,0.0,0.0,0.0,0.0,0.0,0.0,0.0,0.0,0.0,0.0,0.0,0.0,0.0,0.0,0.0,0.0,0.0,0.0,0.0,0.0,0.0,0.0,0.0,0.0,0.0,0.0,0.0,0.0,0.0,0.0,0.0,0.0,0.0,0.0,0.0,0.0,0.0,0.0,0.0,0.0,0.0,0.0,0.0,0.0,4.2249,4.1888,4.2105,4.2986,4.2607,4.2237,4.1887,0.0,0.0,0.0,0.0,0.0,0.0,0.0,0.0,0.0,0.0,0.0,0.0,0.0,0.0,0.0,0.0,0.0,0.0,0.0,0.0,0.0,0.0,0.0,0.0,0.0,0.0,0.0,0.0,0.0,0.0,0.0,0.0,0.0,0.0,0.0,0.0,0.0,0.0,0.0,0.0,0.0,0.0,0.0,0.0,0.0,0.0,0.0,0.0,0.0,0.0,0.0,0.0,0.0,0.0,0.0,0.0,0.0,0.0,0.0,0.0,0.0,0.0,0.0,0.0,0.0,0.0,0.0,0.0,0.0,0.0,0.0,0.0,0.0,0.0,0.0,0.0,0.0,0.0,0.0,0.0,0.0,0.0,0.0,0.0,0.0,0.0,0.0,0.0,0.0,0.0,0.0,0.0,0.0,0.0,0.0,0.0,0.0,0.0,0.0,0.0,0.0,0.0,0.0,0.0,0.0,0.0,0.0,0.0,4.7198,4.5516,4.4423,4.3918,4.4467,4.3931,0.0,0.0,0.0,0.0,0.0,0.0,0.0,0.0,0.0,0.0,0.0,0.0,0.0,0.0,0.0,0.0,0.0,0.0,0.0,0.0,0.0,0.0,0.0,0.0,0.0,0.0,0.0,0.0,0.0,0.0,0.0,0.0,0.0,0.0,0.0,0.0,0.0,0.0,0.0,0.0,0.0,0.0,0.0,0.0,0.0,0.0,0.0,0.0,0.0,0.0,0.0,0.0,0.0,0.0,0.0,0.0,0.0,0.0,0.0,0.0,0.0,0.0,0.0,0.0,0.0,0.0,0.0,0.0,0.0,0.0,0.0,0.0,0.0,0.0,0.0,0.0,0.0,0.0,0.0,0.0,0.0,0.0,0.0,0.0,0.0,0.0,0.0,0.0,0.0,0.0,0.0,0.0,0.0,0.0,0.0,0.0,0.0,0.0,0.0,0.0,0.0,0.0,0.0,0.0,0.0,0.0,0.0,0.0,0.0,4.9757,5.2134,5.2588,5.0808,4.8259,4.6529,0.0,0.0,0.0,0.0,0.0,0.0,0.0,0.0,0.0,0.0,0.0,0.0,0.0,0.0,0.0,0.0,0.0,0.0,0.0,0.0,0.0,0.0,0.0,0.0,0.0,0.0,0.0,0.0,0.0,0.0,0.0,0.0,0.0,0.0,0.0,0.0,0.0,0.0,0.0,0.0,0.0,0.0,0.0,0.0,0.0,0.0,0.0,0.0,0.0,0.0,0.0,0.0,0.0,0.0,0.0,0.0,0.0,0.0,0.0,0.0,0.0,0.0,0.0,0.0,0.0,0.0,0.0,0.0,0.0,0.0,0.0,0.0,0.0,0.0,0.0,0.0,0.0,0.0,0.0,0.0,0.0,0.0,0.0,0.0,0.0,0.0,0.0,0.0,0.0,0.0,0.0,0.0,0.0,0.0,0.0,0.0,0.0,0.0,0.0,0.0,0.0,0.0,0.0,0.0,0.0,0.0,0.0,0.0,4.9558,5.2388,5.7063,5.8909,5.7666,5.382,5.0317,0.0,0.0,0.0,0.0,0.0,0.0,0.0,0.0,0.0,0.0,0.0,0.0,0.0,0.0,0.0,0.0,0.0,0.0,0.0,0.0,0.0,0.0,0.0,0.0,0.0,0.0,0.0,0.0,0.0,0.0,0.0,0.0,0.0,0.0,0.0,0.0,0.0,0.0,0.0,0.0,0.0,0.0,0.0,0.0,0.0,0.0,0.0,0.0,0.0,0.0,0.0,0.0,0.0,0.0,0.0,0.0,0.0,0.0,0.0,0.0,0.0,0.0,0.0,0.0,0.0,0.0,0.0,0.0,0.0,0.0,0.0,0.0,0.0,0.0,0.0,0.0,0.0,0.0,0.0,0.0,0.0,0.0,0.0,0.0,0.0,0.0,0.0,0.0,0.0,0.0,0.0,0.0,0.0,0.0,0.0,0.0,0.0,0.0,0.0,0.0,0.0,0.0,0.0,0.0,0.0,0.0,0.0,0.0,5.2737,5.5279,6.0665,6.3568,6.3486,5.9559,5.4469,0.0,0.0,0.0,0.0,0.0,0.0,0.0,0.0,0.0,0.0,0.0,0.0,0.0,0.0,0.0,0.0,0.0,0.0,0.0,0.0,0.0,0.0,0.0,0.0,0.0,0.0,0.0,0.0,0.0,0.0,0.0,0.0,0.0,0.0,0.0,0.0,0.0,0.0,0.0,0.0,0.0,0.0,0.0,0.0,0.0,0.0,0.0,0.0,0.0,0.0,0.0,0.0,0.0,0.0,0.0,0.0,0.0,0.0,0.0,0.0,0.0,0.0,0.0,0.0,0.0,0.0,0.0,0.0,0.0,0.0,0.0,0.0,0.0,0.0,0.0,0.0,0.0,0.0,0.0,0.0,0.0,0.0,0.0,0.0,0.0,0.0,0.0,0.0,0.0,0.0,0.0,0.0,0.0,0.0,0.0,0.0,0.0,0.0,0.0,0.0,0.0,0.0,0.0,0.0,0.0,0.0,0.0,0.0,5.5195,5.9643,6.3199,6.5252,6.5704,6.015,5.6135,0.0,0.0,0.0,0.0,0.0,0.0,0.0,0.0,0.0,0.0,0.0,0.0,0.0,0.0,0.0,0.0,0.0,0.0,0.0,0.0,0.0,0.0,0.0,0.0,0.0,0.0,0.0,0.0,0.0,0.0,0.0,0.0,0.0,0.0,0.0,0.0,0.0,0.0,0.0,0.0,0.0,0.0,0.0,0.0,0.0,0.0,0.0,0.0,4.697,0.0,0.0,0.0,0.0,0.0,0.0,0.0,0.0,0.0,0.0,0.0,0.0,0.0,0.0,0.0,0.0,0.0,0.0,0.0,0.0,0.0,0.0,0.0,0.0,0.0,0.0,0.0,0.0,0.0,0.0,0.0,0.0,0.0,0.0,0.0,0.0,0.0,0.0,0.0,0.0,0.0,0.0,0.0,0.0,0.0,0.0,0.0,0.0,0.0,0.0,0.0,0.0,0.0,0.0,0.0,0.0,0.0,0.0,0.0,5.6812,6.1487,6.4775,6.6746,6.7195,6.2564,5.8714,0.0,0.0,0.0,0.0,0.0,0.0,0.0,0.0,0.0,0.0,0.0,0.0,0.0,0.0,0.0,0.0,0.0,0.0,0.0,0.0,0.0,0.0,0.0,0.0,0.0,0.0,0.0,0.0,0.0,0.0,0.0,0.0,0.0,0.0,0.0,0.0,0.0,0.0,0.0,0.0,0.0,0.0,0.0,0.0,0.0,0.0,0.0,0.0,0.0,0.0,0.0,0.0,0.0,0.0,0.0,0.0,0.0,0.0,0.0,0.0,0.0,0.0,0.0,0.0,0.0,0.0,0.0,0.0,0.0,0.0,0.0,0.0,0.0,0.0,0.0,0.0,0.0,0.0,0.0,0.0,0.0,0.0,0.0,0.0,0.0,0.0,0.0,0.0,0.0,0.0,0.0,0.0,0.0,0.0,0.0,0.0,0.0,0.0,0.0,0.0,0.0,0.0,0.0,0.0,0.0,0.0,0.0,5.4245,5.8299,6.2942,6.628,6.8231,6.8646,6.5193,6.1284,5.7113,0.0,0.0,0.0,0.0,0.0,0.0,0.0,0.0,0.0,0.0,0.0,0.0,0.0,0.0,0.0,0.0,0.0,0.0,0.0,0.0,0.0,0.0,0.0,0.0,0.0,0.0,0.0,0.0,0.0,0.0,0.0,0.0,0.0,0.0,0.0,0.0,0.0,0.0,4.1231,4.3392,0.0,0.0,0.0,0.0,0.0,0.0,0.0,0.0,4.751,0.0,0.0,0.0,0.0,0.0,0.0,0.0,0.0,0.0,0.0,0.0,0.0,0.0,0.0,0.0,0.0,0.0,0.0,0.0,0.0,0.0,0.0,0.0,0.0,0.0,0.0,0.0,0.0,0.0,0.0,0.0,0.0,0.0,0.0,0.0,0.0,0.0,0.0,0.0,0.0,0.0,0.0,0.0,0.0,0.0,0.0,0.0,0.0,0.0,0.0,0.0,0.0,0.0,0.0,0.0,0.0,5.5511,5.685,6.0531,6.6729,6.9093,7.0026,6.9515,6.5708,6.2305,5.9466,0.0,0.0,0.0,0.0,0.0,0.0,0.0,0.0,0.0,0.0,0.0,0.0,0.0,0.0,0.0,0.0,0.0,0.0,0.0,0.0,0.0,0.0,0.0,0.0,0.0,0.0,0.0,0.0,0.0,0.0,0.0,0.0,0.0,0.0,0.0,0.0,0.0,0.0,0.0,4.6009,4.7334,0.0,0.0,0.0,0.0,0.0,0.0,0.0,0.0,4.8094,0.0,0.0,0.0,0.0,0.0,0.0,0.0,0.0,0.0,0.0,0.0,0.0,0.0,0.0,0.0,0.0,0.0,0.0,0.0,0.0,0.0,0.0,0.0,0.0,0.0,0.0,0.0,0.0,0.0,0.0,0.0,0.0,0.0,0.0,0.0,0.0,0.0,0.0,0.0,0.0,0.0,0.0,0.0,0.0,0.0,0.0,0.0,0.0,0.0,0.0,0.0,0.0,0.0,0.0,0.0,5.7073,5.9754,6.3554,6.8805,7.0344,7.0876,7.0371,6.6141,6.2894,0.0,0.0,0.0,0.0,0.0,0.0,0.0,0.0,0.0,0.0,0.0,0.0,0.0,0.0,0.0,0.0,0.0,0.0,0.0,0.0,0.0,0.0,0.0,0.0,0.0,0.0,0.0,0.0,0.0,0.0,0.0,0.0,0.0,0.0,0.0,0.0,0.0,0.0,0.0,0.0,4.6832,4.8259,4.8514,0.0,0.0,0.0,0.0,0.0,0.0,4.8787,4.8762,0.0,0.0,0.0,0.0,0.0,0.0,0.0,0.0,0.0,0.0,0.0,0.0,0.0,0.0,0.0,0.0,0.0,0.0,0.0,0.0,0.0,0.0,0.0,0.0,0.0,0.0,0.0,0.0,0.0,0.0,0.0,0.0,0.0,0.0,0.0,0.0,0.0,0.0,0.0,0.0,0.0,0.0,0.0,0.0,0.0,0.0,0.0,0.0,0.0,0.0,0.0,0.0,0.0,0.0,0.0,5.8127,6.2266,6.6374,7.045,7.1498,7.1669,7.1042,6.6603,6.3336,0.0,0.0,0.0,0.0,0.0,0.0,0.0,0.0,0.0,0.0,0.0,0.0,0.0,0.0,0.0,0.0,0.0,0.0,0.0,0.0,0.0,0.0,0.0,0.0,0.0,0.0,0.0,0.0,0.0,0.0,0.0,0.0,0.0,0.0,0.0,0.0,0.0,0.0,0.0,0.0,0.0,4.9442,5.0592,4.9848,0.0,0.0,0.0,0.0,4.9287,5.0072,0.0,0.0,0.0,0.0,0.0,0.0,0.0,0.0,0.0,0.0,0.0,0.0,0.0,0.0,0.0,0.0,0.0,0.0,0.0,0.0,0.0,0.0,0.0,0.0,0.0,0.0,0.0,0.0,0.0,0.0,0.0,0.0,0.0,0.0,0.0,0.0,0.0,0.0,0.0,0.0,0.0,0.0,0.0,0.0,0.0,0.0,0.0,0.0,0.0,0.0,0.0,0.0,0.0,0.0,0.0,0.0,5.8939,6.3535,6.801,7.2281,7.3632,7.3346,7.1452,6.7336,6.3798,0.0,0.0,0.0,0.0,0.0,0.0,0.0,0.0,0.0,0.0,0.0,0.0,0.0,0.0,0.0,0.0,0.0,0.0,0.0,0.0,0.0,0.0,0.0,0.0,0.0,0.0,0.0,0.0,0.0,0.0,0.0,0.0,0.0,0.0,0.0,0.0,0.0,0.0,0.0,0.0,0.0,5.1961,4.9593,5.0553,5.0793,0.0,0.0,5.0726,5.2181,5.4282,0.0,0.0,0.0,0.0,0.0,0.0,0.0,0.0,0.0,0.0,0.0,0.0,0.0,0.0,0.0,0.0,0.0,0.0,0.0,0.0,0.0,0.0,0.0,0.0,0.0,0.0,0.0,0.0,0.0,0.0,0.0,0.0,0.0,0.0,0.0,0.0,0.0,0.0,0.0,0.0,0.0,0.0,0.0,0.0,0.0,0.0,0.0,0.0,0.0,0.0,0.0,0.0,0.0,0.0,0.0,5.5221,6.0455,6.6072,7.0378,7.3295,7.4382,7.401,7.2203,6.7363,6.3717,0.0,0.0,0.0,0.0,0.0,0.0,0.0,0.0,0.0,0.0,0.0,0.0,0.0,0.0,0.0,0.0,0.0,0.0,0.0,0.0,0.0,0.0,0.0,0.0,0.0,0.0,0.0,0.0,0.0,0.0,0.0,0.0,0.0,0.0,0.0,0.0,0.0,0.0,0.0,0.0,0.0,0.0,5.1657,5.2623,0.0,0.0,0.0,5.3278,5.4633,0.0,0.0,0.0,0.0,0.0,0.0,0.0,0.0,0.0,0.0,0.0,0.0,0.0,0.0,0.0,0.0,0.0,0.0,0.0,0.0,0.0,0.0,0.0,0.0,0.0,0.0,0.0,0.0,0.0,0.0,0.0,0.0,0.0,0.0,0.0,0.0,0.0,0.0,0.0,0.0,0.0,0.0,0.0,0.0,0.0,0.0,0.0,0.0,0.0,0.0,0.0,0.0,0.0,0.0,0.0,0.0,0.0,6.1815,6.8252,7.2544,7.4415,7.5063,7.4645,7.2963,6.7936,0.0,0.0,0.0,0.0,0.0,0.0,0.0,0.0,0.0,0.0,0.0,0.0,0.0,0.0,0.0,0.0,0.0,0.0,0.0,0.0,0.0,0.0,0.0,0.0,0.0,0.0,0.0,3.6829,0.0,0.0,0.0,0.0,0.0,0.0,0.0,0.0,0.0,0.0,0.0,0.0,0.0,0.0,5.3078,5.3687,5.5057,5.6,0.0,0.0,5.6288,5.7132,5.8256,5.7949,0.0,0.0,0.0,0.0,0.0,0.0,0.0,0.0,0.0,0.0,0.0,0.0,0.0,0.0,0.0,0.0,0.0,0.0,0.0,0.0,0.0,0.0,0.0,0.0,0.0,0.0,0.0,0.0,0.0,0.0,0.0,0.0,0.0,0.0,0.0,0.0,0.0,0.0,0.0,0.0,0.0,0.0,0.0,0.0,0.0,0.0,0.0,0.0,0.0,0.0,0.0,0.0,0.0,0.0,0.0,6.273,6.9429,7.3983,7.6041,7.622,7.5442,7.3796,6.9689,6.5977,0.0,0.0,0.0,0.0,0.0,0.0,0.0,0.0,0.0,0.0,0.0,0.0,0.0,0.0,0.0,0.0,0.0,0.0,0.0,0.0,0.0,0.0,0.0,0.0,0.0,0.0,0.0,0.0,0.0,0.0,0.0,0.0,0.0,0.0,0.0,0.0,0.0,0.0,0.0,0.0,0.0,5.4482,5.4516,5.7509,5.9505,0.0,0.0,5.9776,5.9859,6.2787,6.3179,5.7509,0.0,0.0,0.0,0.0,0.0,0.0,0.0,0.0,0.0,0.0,0.0,0.0,0.0,0.0,0.0,0.0,0.0,0.0,0.0,0.0,0.0,0.0,0.0,0.0,0.0,0.0,0.0,0.0,0.0,0.0,0.0,0.0,0.0,0.0,0.0,0.0,0.0,0.0,0.0,0.0,0.0,0.0,0.0,0.0,0.0,0.0,0.0,0.0,0.0,0.0,0.0,0.0,0.0,5.997,6.3385,6.9783,7.4125,7.6186,7.6292,7.5768,7.4665,7.0613,6.6541,0.0,0.0,0.0,0.0,0.0,0.0,0.0,0.0,0.0,0.0,0.0,0.0,0.0,0.0,0.0,0.0,0.0,0.0,0.0,0.0,0.0,0.0,0.0,0.0,0.0,0.0,0.0,0.0,4.1063,4.1752,4.2939,0.0,0.0,0.0,0.0,0.0,0.0,0.0,0.0,0.0,0.0,5.6122,5.8389,6.0317,0.0,0.0,6.2009,6.2516,6.3396,6.3193,6.1907,5.8675,5.6089,0.0,0.0,0.0,0.0,0.0,0.0,0.0,0.0,0.0,0.0,0.0,0.0,0.0,0.0,0.0,0.0,0.0,0.0,0.0,0.0,0.0,0.0,0.0,0.0,0.0,0.0,0.0,0.0,0.0,0.0,0.0,0.0,0.0,0.0,0.0,0.0,0.0,0.0,0.0,0.0,0.0,0.0,0.0,0.0,0.0,0.0,0.0,0.0,0.0,0.0,0.0,0.0,6.0021,6.3322,6.9536,7.3714,7.5745,7.6015,7.5636,7.4535,7.0946,6.6924,0.0,0.0,0.0,0.0,0.0,0.0,0.0,0.0,0.0,0.0,0.0,0.0,0.0,0.0,0.0,0.0,0.0,0.0,0.0,0.0,0.0,0.0,0.0,0.0,0.0,0.0,0.0,0.0,4.3032,4.358,4.4505,0.0,0.0,0.0,0.0,0.0,0.0,0.0,0.0,0.0,0.0,5.8404,6.1231,6.2821,6.3835,6.4086,6.3971,6.4208,6.5189,6.3429,6.1279,5.9317,0.0,0.0,0.0,0.0,0.0,0.0,0.0,0.0,0.0,0.0,0.0,0.0,0.0,0.0,0.0,0.0,0.0,0.0,0.0,0.0,0.0,0.0,0.0,0.0,0.0,0.0,0.0,0.0,0.0,0.0,3.8555,0.0,0.0,0.0,0.0,0.0,0.0,0.0,0.0,0.0,0.0,0.0,0.0,0.0,0.0,0.0,0.0,0.0,0.0,0.0,0.0,0.0,0.0,5.986,6.2368,6.8719,7.284,7.461,7.542,7.5079,7.3496,7.0735,6.7275,6.3022,0.0,0.0,0.0,0.0,0.0,0.0,0.0,0.0,0.0,0.0,0.0,0.0,0.0,0.0,0.0,0.0,0.0,0.0,0.0,0.0,0.0,0.0,0.0,0.0,0.0,0.0,4.3017,4.3757,4.435,0.0,0.0,0.0,0.0,0.0,0.0,0.0,0.0,0.0,0.0,5.7732,6.1434,6.2279,6.4816,6.6305,6.5696,6.5019,6.458,6.4647,6.3937,6.2429,0.0,0.0,0.0,0.0,0.0,0.0,0.0,0.0,0.0,0.0,0.0,0.0,0.0,0.0,0.0,0.0,0.0,0.0,0.0,0.0,0.0,0.0,0.0,0.0,0.0,0.0,0.0,4.1606,4.1965,0.0,0.0,0.0,0.0,0.0,0.0,0.0,0.0,0.0,0.0,0.0,4.6248,4.637,0.0,0.0,0.0,0.0,0.0,0.0,0.0,0.0,0.0,0.0,0.0,0.0,6.0527,6.316,6.8881,7.2804,7.4556,7.5402,7.5294,7.4216,7.1522,6.6934,6.0196,0.0,0.0,0.0,0.0,0.0,0.0,0.0,0.0,0.0,0.0,0.0,0.0,0.0,0.0,0.0,0.0,0.0,0.0,0.0,0.0,0.0,0.0,0.0,0.0,0.0,4.4344,0.0,0.0,0.0,0.0,0.0,0.0,0.0,0.0,0.0,0.0,0.0,5.2959,5.6683,5.9084,6.1332,6.3531,6.4681,6.5425,0.0,0.0,0.0,0.0,0.0,0.0,0.0,0.0,0.0,0.0,0.0,0.0,0.0,0.0,5.9098,5.4586,5.3559,5.3403,5.3531,0.0,0.0,0.0,0.0,0.0,0.0,0.0,0.0,0.0,0.0,0.0,0.0,0.0,0.0,4.481,0.0,4.4448,0.0,0.0,0.0,0.0,0.0,0.0,0.0,0.0,4.7087,4.7481,4.8026,4.806,4.8327,0.0,5.0085,4.9693,0.0,0.0,0.0,0.0,0.0,0.0,0.0,0.0,6.0691,6.3111,6.8694,7.2402,7.3918,7.5029,7.5065,7.3953,7.0229,6.5268,5.909,5.5258,5.2435,0.0,0.0,0.0,0.0,0.0,0.0,0.0,0.0,0.0,0.0,0.0,0.0,0.0,0.0,0.0,0.0,0.0,0.0,0.0,0.0,0.0,0.0,0.0,4.6279,0.0,0.0,0.0,0.0,0.0,0.0,0.0,0.0,0.0,5.1249,5.3261,5.606,5.9633,6.1543,6.3089,6.441,0.0,0.0,0.0,0.0,0.0,0.0,0.0,6.1414,6.1399,6.0287,5.9679,6.0664,6.2227,6.3552,6.4041,0.0,0.0,5.8834,5.7931,5.7951,5.7951,5.8646,5.9341,5.9678,6.1261,6.2704,0.0,0.0,0.0,0.0,0.0,0.0,0.0,0.0,4.735,4.8246,0.0,4.7437,0.0,0.0,0.0,0.0,0.0,4.7007,0.0,0.0,4.9772,5.0171,5.0487,5.0537,5.063,5.0784,5.1586,5.1977,5.1962,5.1789,0.0,0.0,0.0,0.0,0.0,0.0,6.0403,6.2431,6.8099,7.1623,7.2798,7.4297,7.4332,7.2638,6.7102,6.2751,5.9791,5.712,5.4911,5.331,5.2823,0.0,0.0,0.0,0.0,0.0,0.0,0.0,0.0,0.0,0.0,0.0,0.0,0.0,0.0,0.0,0.0,0.0,0.0,0.0,0.0,4.7961,0.0,0.0,0.0,0.0,0.0,0.0,0.0,0.0,0.0,0.0,5.3511,5.6794,5.9954,6.1522,0.0,0.0,0.0,0.0,6.7411,6.506,6.5331,6.5534,6.4857,6.4239,6.3868,6.3874,0.0,0.0,6.4532,6.5182,6.5798,6.5695,6.6957,6.7004,6.5433,6.4262,6.3572,6.3592,6.3413,6.3358,6.4083,6.5375,6.6325,5.355,0.0,0.0,0.0,0.0,4.9667,5.1357,5.3515,5.3981,5.3956,5.3456,5.2668,0.0,0.0,0.0,0.0,0.0,0.0,5.1946,5.2232,5.2483,5.2667,5.2765,5.3457,5.3777,5.3826,5.4628,5.5294,5.5773,5.5874,5.4747,5.2468,0.0,0.0,0.0,0.0,6.2039,6.4178,6.8134,7.1073,7.2762,7.3262,7.2602,7.0771,6.7529,6.4415,6.1545,5.9011,5.7083,5.5773,5.4514,0.0,0.0,0.0,0.0,0.0,0.0,0.0,0.0,0.0,0.0,0.0,0.0,0.0,0.0,0.0,0.0,0.0,0.0,0.0,5.026,5.0918,5.0884,0.0,0.0,0.0,0.0,0.0,0.0,0.0,0.0,0.0,6.1734,6.1631,6.213,0.0,0.0,6.5169,6.4647,6.6405,6.7421,6.6575,6.7353,0.0,6.6807,6.6111,6.5699,6.5862,6.7879,6.981,7.0877,7.2117,7.3013,7.2999,7.3878,7.4598,7.4511,7.0721,6.7891,6.7792,6.9045,7.0225,7.077,7.2369,7.4033,6.1601,5.6984,5.3634,5.2955,5.4157,5.5177,5.6553,5.8198,5.8686,5.8547,5.7863,5.7065,5.5754,5.4126,5.4156,0.0,0.0,0.0,5.5926,5.5788,5.5672,5.5655,5.5757,5.6303,5.661,5.6677,5.7158,5.7964,5.9047,5.8909,5.8202,5.6961,0.0,0.0,5.7494,6.0998,6.3642,6.5439,6.8646,7.1037,7.2334,7.237,7.1588,6.9938,6.799,6.5735,6.3203,6.1092,5.943,5.8318,5.6961,5.5732,0.0,0.0,0.0,0.0,0.0,0.0,0.0,0.0,0.0,0.0,0.0,4.6092,0.0,0.0,0.0,0.0,5.0412,5.1326,5.2289,5.2716,0.0,0.0,0.0,0.0,0.0,0.0,0.0,5.9299,6.263,6.5443,6.7123,6.7256,6.747,6.8189,6.8512,6.85,6.8042,0.0,6.9941,6.9076,6.9832,7.0265,6.9674,6.9234,6.9307,7.0171,7.2126,7.4031,7.535,7.6843,7.7858,7.8141,7.9335,8.0614,8.1068,7.8189,7.534,7.4123,7.5025,7.6201,7.6678,7.8101,7.9507,6.9113,6.7855,6.1107,5.852,5.9011,6.0351,6.0905,6.0975,6.2169,6.229,6.1685,6.082,6.0468,6.0438,5.981,0.0,5.9475,5.9766,5.979,5.9654,5.919,5.906,5.9166,5.9183,5.9236,5.9375,5.9392,6.0238,6.1762,6.1276,6.1832,6.3363,6.1241,6.0374,6.105,6.3502,6.5408,6.6634,6.9672,7.1393,7.1799,7.1834,7.1321,7.0133,6.8592,6.6864,6.4883,6.3256,6.1863,6.0773,5.9892,5.8961,5.7912,0.0,0.0,0.0,0.0,0.0,0.0,0.0,0.0,0.0,0.0,0.0,0.0,0.0,0.0,0.0,5.4189,0.0,5.4498,5.4465,0.0,0.0,0.0,5.9219,6.1725,6.3013,6.4215,6.5607,0.0,0.0,7.0577,7.3228,7.4869,7.4351,7.4697,7.4546,7.3446,7.4085,7.419,7.2334,7.2776,7.3295,7.3268,7.3344,7.3982,7.5492,7.6698,7.7502,7.8497,7.9969,8.0967,8.135,8.3391,8.5141,8.5247,8.5682,8.5554,8.187,8.1209,8.1401,8.2041,8.2545,8.3318,7.3149,7.2811,7.0524,6.8358,6.6445,6.6196,6.6753,6.776,6.7548,6.6736,6.5472,6.5262,6.4654,6.3784,6.4157,6.4121,6.3767,6.4405,6.4088,6.3068,6.3018,6.2734,6.224,6.2403,6.2494,6.2549,6.2658,6.3251,6.4188,6.4802,6.5554,6.6496,6.684,6.6197,6.476,6.6567,6.8399,7.0132,7.1624,7.2424,7.2548,7.3155,7.2959,7.1979,7.0257,6.877,6.7553,6.5198,6.3537,6.2682,6.2266,6.138,5.9891,5.7911,0.0,0.0,0.0,0.0,0.0,0.0,0.0,0.0,0.0,4.8648,4.8339,0.0,5.2142,0.0,5.697,6.0133,6.1413,6.2159,0.0,0.0,6.4092,6.5018,6.6277,6.8895,7.0634,7.0678,7.3482,7.5725,7.6538,7.8418,8.0258,8.1611,7.8198,7.5407,7.5164,7.6607,7.7291,7.6314,7.7229,7.8055,7.7348,7.7424,7.7884,7.8875,7.983,8.0731,8.1571,8.3118,8.4471,8.5138,8.651,8.7935,8.91,8.9743,8.9972,8.9328,8.77,8.621,8.661,8.7137,8.787,7.6115,7.6082,7.5642,7.4356,7.2462,7.1007,7.0703,7.1142,7.0737,6.9903,6.8787,6.8916,6.8604,6.7996,6.8782,6.884,6.8282,6.8467,6.7912,6.6787,6.6298,6.5884,6.5619,6.5748,6.5843,6.5921,6.6032,6.6508,6.7347,6.7859,6.8637,6.9575,7.0555,7.0654,6.9936,6.9831,7.0541,7.2015,7.2619,7.2886,7.2816,7.3226,7.3083,7.2276,7.068,6.9122,6.7653,6.544,6.3815,6.2944,6.275,6.2018,6.0685,5.8616,5.6457,0.0,0.0,0.0,0.0,0.0,0.0,0.0,0.0,0.0,0.0,0.0,5.6541,5.8203,6.171,6.451,6.6061,6.6694,6.7554,6.9029,6.9982,7.1045,7.2286,7.4544,7.5979,7.6136,7.8251,8.0065,8.0881,8.2486,8.4141,8.5719,8.3406,8.1234,8.0565,8.1264,8.1526,8.0596,8.1147,8.1648,8.1028,8.1076,8.1443,8.2185,8.2849,8.369,8.4953,8.6339,8.7578,8.8528,8.9899,9.1151,9.2036,9.2688,9.3218,9.332,9.2366,9.1053,9.0208,9.0366,9.0868,7.8136,7.8111,7.8034,7.7604,7.6893,7.4945,7.3591,7.2665,7.2665,7.2417,7.1898,7.2224,7.2313,7.2369,7.3183,7.3123,7.2448,7.2005,7.1356,7.0526,6.9423,6.8967,6.9075,6.9114,6.9231,6.9389,6.9408,6.9872,7.0654,7.0832,7.1409,7.2437,7.3235,7.4131,7.5034,7.3189,7.2656,7.344,7.3617,7.3599,7.3458,7.3315,7.2904,7.2107,7.0516,6.8693,6.6621,6.4854,6.351,6.2672,6.2508,6.2364,6.219,5.9864,5.8492,0.0,5.5737,0.0,0.0,0.0,0.0,0.0,0.0,0.0,0.0,6.3049,6.3118,6.6334,6.7442,6.8565,7.0033,7.0278,7.1642,7.4765,7.5862,7.713,7.895,8.0036,8.0883,8.1615,8.2684,8.3689,8.4366,8.5966,8.7288,8.8028,8.8583,8.8229,8.7213,8.6486,8.5865,8.5107,8.4832,8.479,8.457,8.4513,8.4748,8.5401,8.582,8.656,8.8142,8.9284,9.03,9.1373,9.268,9.3801,9.406,9.4765,9.529,9.5232,9.5046,9.447,9.3091,9.2682,9.2998,7.8889,7.8855,7.8247,7.7908,7.7764,7.7576,7.6228,7.4187,7.4187,7.4575,7.5215,7.5469,7.5584,7.5618,7.5766,7.5572,7.4976,7.4883,7.4225,7.3111,7.3067,7.2721,7.2194,7.2398,7.2499,7.2524,7.2719,7.2967,7.3288,7.4112,7.4616,7.4874,7.5906,7.6447,7.6515,0.0,0.0,0.0,7.6984,7.6911,7.682,7.6102,7.499,7.3471,7.0835,0.0,6.6788,6.5071,6.4092,6.3864,6.3703,0.0,0.0,0.0,0.0,0.0,0.0,0.0,0.0,0.0,0.0,0.0,6.9632,6.882,6.9529,6.9556,7.0359,7.2299,7.3233,7.444,7.6227,7.7126,7.8422,8.0472,8.1592,8.2898,8.4605,8.5526,8.6157,8.63,8.7099,8.7643,8.7823,8.9266,9.0377,9.0702,9.1444,9.1846,9.1645,9.0182,8.9142,8.8921,8.8673,8.8515,8.7961,8.7813,8.7843,8.8141,8.87,8.9459,9.042,9.1415,9.2334,9.3233,9.3777,9.4394,9.4937,9.529,9.5419,9.5419,9.5419,9.5269,9.488,9.4786,9.488,7.9634,7.96,7.9377,7.9087,0.0,7.9007,7.8204,7.6632,7.6632,7.6907,7.7389,7.7671,7.7764,7.7787,7.7914,7.7824,7.7559,7.6802,7.6157,7.566,7.5041,7.4656,7.4482,7.4641,7.477,7.4958,7.5058,7.5238,7.5454,7.5921,7.6231,7.6347,7.7321,7.7773,7.7847,7.8864,7.8949,7.7971,7.7843,7.777,7.7641,7.7208,7.6433,7.5333,7.3138,0.0,0.0,0.0,0.0,0.0,0.0,0.0,0.0,7.0567,0.0,7.3539,7.2938,7.3866,7.6797,7.7065,7.8253,8.0942,8.116,7.9162,7.4558,7.72,7.9111,7.905,7.9423,8.0337,8.2009,8.268,8.3495,8.4761,8.5363,8.6073,8.6836,8.7344,8.7756,8.8208,8.8973,8.9683,9.01,9.1228,9.2249,9.275,9.3168,9.3587,9.3908,9.2559,9.1319,9.1179,9.1122,9.0993,9.0633,9.0525,9.051,9.0582,9.0989,9.1628,9.2406,9.3022,9.3711,9.4455,9.472,9.4964,9.5253,9.5419,9.5419,9.5419,9.5419,9.5419,9.5419,9.5419,9.5419,8.0606,8.0682,8.0909,8.0669,8.0198,8.0434,8.0135,7.9406,0.0,0.0,0.0,7.9413,7.9565,7.9599,7.9821,7.9844,7.9614,7.8373,7.7853,7.796,7.6756,7.6389,7.6866,7.6908,7.71,7.7485,7.7505,7.757,7.7788,7.7788,7.7886,7.8132,7.8756,7.9264,7.9672,8.0922,8.0769,7.9205,7.881,7.8537,7.8386,7.8205,7.7856,7.7205,7.5607,7.4177,7.2951,7.1552,7.0793,7.0775,7.1396,7.194,7.229,7.3681,7.4669,7.5053,7.5811,7.8502,8.3552,8.3879,8.5785,9.0324,9.0618,8.7447,8.0061,8.4253,8.6538,8.4882,8.4718,8.5238,8.6461,8.6605,8.7021,8.796,8.8068,8.8197,8.8525,8.8561,8.8978,8.9518,9.0491,9.1222,9.1893,9.2833,9.3639,9.4239,9.4363,9.4638,9.5051,9.4093,9.3131,9.2932,9.2911,9.2832,9.2631,9.258,9.2631,9.2565,9.2779,9.3245,9.3937,9.4295,9.4653,9.5181,9.5419,9.5383,9.5383,9.5419,9.5419,9.5419,9.5419,9.5419,9.5419,9.5419,9.5419,8.2224,8.2454,8.248,8.2564,8.2722,8.2971,8.2771,8.2208,8.071,8.0065,8.0123,8.1013,8.1418,8.1418,8.1476,8.1097,8.0442,8.0201,7.9948,7.9599,7.9535,7.9762,8.0238,8.0429,8.0661,8.0889,8.091,8.0977,8.116,8.1201,8.1302,8.1481,8.1608,8.2156,8.3033,8.332,8.3689,8.4192,8.2669,8.1835,8.176,8.1016,7.9841,7.8293,7.6528,7.4646,7.3044,7.2849,7.2619,7.2654,7.3361,7.5842,8.0356,8.0886,8.3171,8.746,8.8081,8.8573,8.9356,8.9448,8.9778,9.0489,9.0618,8.9665,8.7761,8.8234,8.8302,8.7257,8.7128,8.718,8.7452,8.7524,8.8253,8.9656,8.9929,9.0495,9.1815,9.2037,9.2053,9.2233,9.3143,9.3562,9.3743,9.4472,9.4964,9.5145,9.5109,9.5253,9.529,9.5217,9.503,9.4973,9.4952,9.4663,9.4057,9.3918,9.3897,9.3954,9.3918,9.4192,9.4937,9.5088,9.5181,9.5383,9.5419,9.5419,9.5419,9.5419,9.5419,9.5419,9.5419,9.5419,9.5419,9.5419,9.5419,8.2888,8.304,8.3166,8.3292,8.3407,8.3277,8.2862,8.2235,8.1474,8.1117,8.1151,8.1591,8.1776,8.1776,8.1776,8.1603,8.1224,8.095,8.0778,8.0716,8.1062,8.1415,8.1774,8.2524,8.3031,8.3238,8.3325,8.3544,8.3725,8.3745,8.3785,8.3865,8.3884,8.4318,8.5151,8.5207,8.5642,8.6461,8.4888,8.4022,8.4022,8.3585,8.3004,8.2193,8.1302,8.0506,7.9698,7.9698,7.9663,7.9663,8.0396,8.1981,8.439,8.5502,8.7413,9.022,9.0956,9.1451,9.1885,9.1487,9.1052,9.0654,9.1016,9.1084,9.0586,9.0152,8.9895,8.9886,8.9866,9.0046,9.048,9.0516,9.0882,9.165,9.1758,9.2089,9.2806,9.3008,9.3168,9.3567,9.3965,9.4363,9.4819,9.5166,9.5419,9.5419,9.5419,9.5419,9.5419,9.5419,9.5419,9.5398,9.5398,9.5253,9.4891,9.4855,9.4855,9.4855,9.4855,9.5,9.5362,9.5419,9.5419,9.5419,9.5419,9.5419,9.5419,9.5419,9.5419,9.5419,9.5419,9.5419,9.5419,9.5419,9.5419,8.3925,8.383,8.4031,8.413,8.4136,8.3438,8.2811,8.2293,8.1948,8.1914,8.2017,8.1914,8.1776,8.181,8.1983,8.2007,8.1871,8.1805,8.1829,8.1952,8.2575,8.3112,8.3683,8.4712,8.5383,8.5795,8.5979,8.6141,8.6317,8.6337,8.6373,8.6373,8.6373,8.6753,8.7513,8.7549,8.7965,8.8654,8.7629,8.6652,8.5869,8.5833,8.5833,8.5833,8.5778,8.5797,8.5833,8.5977,8.6085,8.6121,8.7025,8.7549,8.7585,8.9063,9.0268,9.0902,9.1639,9.2356,9.2899,9.2428,9.1813,9.1233,9.174,9.2066,9.203,9.1523,9.1378,9.1958,9.1974,9.2263,9.2698,9.2879,9.308,9.3205,9.3277,9.335,9.3515,9.3551,9.3768,9.4384,9.4493,9.4746,9.5217,9.5419,9.5419,9.5419,9.5419,9.5419,9.5419,9.5419,9.5419,9.5419,9.5419,9.5362,9.5419,9.5362,9.5362,9.5419,9.5362,9.5362,9.5419,9.5419,9.5419,9.5419,9.5419,9.5419,9.5419,9.5419,9.5419,9.5419,9.5419,9.5419,9.5419,9.5419,9.5419,8.6011,8.5693,8.5641,8.5836,8.5796,8.4476,8.3787,8.3604,8.2397,8.219,8.2742,8.2121,8.1845,8.1879,8.25,8.2561,8.2255,8.3469,8.3902,8.3854,8.4745,8.5944,8.7114,8.7572,8.8362,8.9327,8.9425,8.9431,8.9472,8.9523,8.9539,8.9575,8.9575,9.0002,9.0851,9.098,9.146,9.2476,9.2367,9.0665,8.7616,8.738,8.7396,8.7416,8.7416,8.738,8.7544,8.81,8.8495,8.8603,9.0084,9.098,9.1073,9.2032,9.2641,9.2713,9.2843,9.2915,9.2987,9.2935,9.2806,9.2806,9.2827,9.2899,9.2899,9.2863,9.2806,9.2935,9.2899,9.2972,9.3008,9.308,9.3406,9.4001,9.4074,9.4384,9.4927,9.5166,9.5238,9.5274,9.5181,9.5347,9.5362,9.5419,9.5419,9.5419,9.5419,9.5419,9.5419,9.5419,9.5419,9.5419,9.5419,9.5419,9.5419,9.5419,9.5419,9.5419,9.5419,9.5419,9.5419,9.5419,9.5419,9.5419,9.5419,9.5419,9.5419,9.5419,9.5419,9.5419,9.5419,9.5419,9.5419,9.5419,9.5419,8.6292,8.6118,8.6144,8.5953,8.5501,8.4466,8.3993,8.389,8.2914,8.288,8.3466,8.3259,8.3087,8.3097,8.3431,8.3483,8.3504,8.4294,8.4728,8.4968,8.6056,8.7347,8.8677,8.9543,9.0528,9.1541,9.1702,9.1785,9.1785,9.1785,9.1785,9.1785,9.1785,9.2007,9.2378,9.2378,9.26,9.2951,9.3008,9.2238,9.101,9.0809,9.0789,9.0809,9.0789,9.0809,9.0846,9.1135,9.1279,9.1315,9.2012,9.2378,9.2378,9.2765,9.3205,9.3675,9.4167,9.4203,9.3748,9.3732,9.3494,9.3044,9.3422,9.3712,9.3732,9.4131,9.442,9.4348,9.3986,9.3877,9.4312,9.442,9.4565,9.4855,9.4891,9.5036,9.5326,9.5419,9.5419,9.5419,9.5419,9.5419,9.5419,9.5419,9.5419,9.5419,9.5419,9.5419,9.5419,9.5419,9.5419,9.5419,9.5419,9.5419,9.5419,9.5419,9.5419,9.5419,9.5419,9.5419,9.5419,9.5419,9.5419,9.5419,9.5419,9.5419,9.5419,9.5419,9.5419,9.5419,9.5419,9.5419,9.5419,9.5419,9.5419,8.6674,8.6329,8.6294,8.5984,8.5432,8.4673,8.4304,8.42,8.3511,8.3614,8.4294,8.4328,8.4442,8.458,8.4432,8.4395,8.4559,8.5202,8.5648,8.6096,8.7439,8.877,8.9971,9.1247,9.2358,9.3218,9.3535,9.366,9.366,9.366,9.366,9.366,9.366,9.366,9.366,9.366,9.366,9.3696,9.366,9.366,9.366,9.366,9.3443,9.308,9.3008,9.3008,9.3008,9.3225,9.3313,9.3334,9.3515,9.366,9.366,9.366,9.3913,9.4493,9.5072,9.5145,9.4565,9.4529,9.4276,9.3805,9.4239,9.4529,9.4638,9.5036,9.5362,9.5311,9.4855,9.4783,9.5274,9.5419,9.5419,9.5419,9.5419,9.5419,9.5419,9.5419,9.5419,9.5419,9.5419,9.5419,9.5419,9.5419,9.5419,9.5419,9.5419,9.5419,9.5419,9.5419,9.5419,9.5419,9.5419,9.5419,9.5419,9.5419,9.5419,9.5419,9.5419,9.5419,9.5419,9.5419,9.5419,9.5419,9.5419,9.5419,9.5419,9.5419,9.5419,9.5419,9.5419,9.5419,9.5419,9.5419,9.5419,8.7639,8.6398,8.6294,8.626,8.6191,8.5432,8.5121,8.5087,8.4328,8.4397,8.5087,8.5156,8.5535,8.6053,8.5432,8.5011,8.5074,8.6461,8.7083,8.7168,8.8951,9.0468,9.1541,9.2804,9.3884,9.4661,9.4931,9.5109,9.5166,9.5238,9.5311,9.5217,9.5166,9.5217,9.5166,9.513,9.5274,9.5109,9.5109,9.5238,9.5238,9.5238,9.4493,9.3298,9.3044,9.3117,9.3153,9.3748,9.4146,9.4146,9.4819,9.5217,9.5238,9.5238,9.5238,9.529,9.5362,9.5383,9.5311,9.5274,9.5217,9.5238,9.5181,9.5311,9.5217,9.5347,9.5419,9.5419,9.5311,9.5326,9.5362,9.5419,9.5419,9.5419,9.5419,9.5419,9.5419,9.5419,9.5419,9.5419,9.5419,9.5419,9.5419,9.5419,9.5419,9.5419,9.5419,9.5419,9.5419,9.5419,9.5419,9.5419,9.5419,9.5419,9.5419,9.5419,9.5419,9.5419,9.5419,9.5419,9.5419,9.5419,9.5419,9.5419,9.5419,9.5419,9.5419,9.5419,9.5419,9.5419,9.5419,9.5419,9.5419,9.5419,9.5419,8.6811,8.6294,8.6294,8.6294,8.6225,8.5501,8.5466,8.5811,8.5087,8.519,8.5811,8.5915,8.6053,8.6294,8.6018,8.6039,8.6327,8.6969,8.7409,8.7908,8.9227,9.0463,9.1649,9.2876,9.4028,9.4914,9.5293,9.5419,9.5419,9.5419,9.5419,9.5419,9.5419,9.5419,9.5419,9.5419,9.5419,9.5419,9.5419,9.5419,9.5419,9.5419,9.5072,9.4602,9.4529,9.4529,9.455,9.4819,9.4964,9.4964,9.5253,9.5419,9.5419,9.5419,9.5419,9.5419,9.5419,9.5419,9.5419,9.5419,9.5419,9.5419,9.5419,9.5419,9.5419,9.5419,9.5419,9.5419,9.5419,9.5419,9.5419,9.5419,9.5419,9.5419,9.5419,9.5419,9.5419,9.5419,9.5419,9.5419,9.5419,9.5419,9.5419,9.5419,9.5419,9.5419,9.5419,9.5419,9.5419,9.5419,9.5419,9.5419,9.5419,9.5419,9.5419,9.5419,9.5419,9.5419,9.5419,9.5419,9.5419,9.5419,9.5419,9.5419,9.5419,9.5419,9.5419,9.5419,9.5419,9.5419,9.5419,9.5419,9.5419,9.5419,9.5419,8.6294,8.6294,8.6294,8.6294,8.626,8.5777,8.5846,8.6225,8.5777,8.5846,8.6294,8.6536,8.6674,8.6708,8.6915,8.7279,8.7631,8.7409,8.7701,8.8613,8.9631,9.0718,9.1907,9.3094,9.4106,9.4842,9.5235,9.5398,9.5419,9.5419,9.5419,9.5419,9.5419,9.5419,9.5419,9.5419,9.5419,9.5419,9.5419,9.5419,9.5419,9.5419,9.5419,9.5419,9.5419,9.5419,9.5419,9.5419,9.5419,9.5419,9.5419,9.5419,9.5419,9.5419,9.5419,9.5419,9.5419,9.5419,9.5419,9.5419,9.5419,9.5419,9.5419,9.5419,9.5419,9.5419,9.5419,9.5419,9.5419,9.5419,9.5419,9.5419,9.5419,9.5419,9.5419,9.5419,9.5419,9.5419,9.5419,9.5419,9.5419,9.5419,9.5419,9.5419,9.5419,9.5419,9.5419,9.5419,9.5419,9.5419,9.5419,9.5419,9.5419,9.5419,9.5419,9.5419,9.5419,9.5419,9.5419,9.5419,9.5419,9.5419,9.5419,9.5419,9.5419,9.5419,9.5419,9.5419,9.5419,9.5419,9.5419,9.5419,9.5419,9.5419,9.5419,8.6363,8.6432,8.6363,8.6467,8.6501,8.6363,8.6329,8.6398,8.6329,8.6363,8.6536,8.7087,8.7432,8.7536,8.8053,8.862,8.8638,8.7921,8.8192,8.9342,9.0375,9.136,9.2334,9.3414,9.4213,9.4741,9.5172,9.5398,9.5419,9.5419,9.5419,9.5419,9.5419,9.5419,9.5419,9.5419,9.5419,9.5419,9.5419,9.5419,9.5419,9.5419,9.5419,9.5419,9.5419,9.5419,9.5419,9.5419,9.5419,9.5419,9.5419,9.5419,9.5419,9.5419,9.5419,9.5419,9.5419,9.5419,9.5419,9.5419,9.5419,9.5419,9.5419,9.5419,9.5419,9.5419,9.5419,9.5419,9.5419,9.5419,9.5419,9.5419,9.5419,9.5419,9.5419,9.5419,9.5419,9.5419,9.5419,9.5419,9.5419,9.5419,9.5419,9.5419,9.5419,9.5419,9.5419,9.5419,9.5419,9.5419,9.5419,9.5419,9.5419,9.5419,9.5419,9.5419,9.5419,9.5419,9.5419,9.5419,9.5419,9.5419,9.5419,9.5419,9.5419,9.5419,9.5419,9.5419,9.5419,9.5419,9.5419,9.5419,9.5419,9.5419,9.5419,8.7363,8.7881,8.7881,8.7881,8.7812,8.7294,8.7053,8.7028,8.7053,8.7053,8.72,8.7881,8.8226,8.826,8.8501,8.8759,8.8969,8.8658,8.891,8.9781,9.0702,9.1517,9.2328,9.3443,9.4321,9.4871,9.5214,9.5419,9.5456,9.5456,9.5419,9.5419,9.5419,9.5419,9.5419,9.5419,9.5419,9.5419,9.5419,9.5419,9.5419,9.5419,9.5419,9.5419,9.5419,9.5419,9.5419,9.5419,9.5419,9.5419,9.5419,9.5419,9.5419,9.5419,9.5419,9.5419,9.5419,9.5419,9.5419,9.5419,9.5419,9.5419,9.5419,9.5419,9.5419,9.5419,9.5419,9.5419,9.5419,9.5419,9.5419,9.5419,9.5419,9.5419,9.5419,9.5419,9.5419,9.5419,9.5419,9.5419,9.5419,9.5419,9.5419,9.5419,9.5419,9.5419,9.5419,9.5419,9.5419,9.5419,9.5419,9.5419,9.5419,9.5419,9.5419,9.5419,9.5419,9.5419,9.5419,9.5419,9.5419,9.5419,9.5419,9.5419,9.5419,9.5419,9.5419,9.5419,9.5419,9.5419,9.5419,9.5419,9.5419,9.5419,9.5419,8.7881,8.8536,8.826,8.8364,8.8501,8.7743,8.757,8.7812,8.7846,8.7846,8.8019,8.8674,8.9019,8.9053,8.9295,8.9502,8.9656,8.9656,9.0136,9.0788,9.091,9.1618,9.2589,9.4031,9.4965,9.5463,9.6016,9.6289,9.6268,9.5999,9.5854,9.5833,9.5564,9.5461,9.5488,9.5508,9.5566,9.5592,9.5612,9.5612,9.5612,9.5612,9.5612,9.5649,9.5612,9.5612,9.5612,9.5649,9.5529,9.544,9.5419,9.5419,9.5419,9.5419,9.5419,9.5419,9.5419,9.5419,9.5419,9.5419,9.5419,9.5419,9.5419,9.5419,9.5419,9.5419,9.5419,9.5419,9.5419,9.5419,9.5419,9.5419,9.5419,9.5419,9.5419,9.5419,9.5419,9.5419,9.5419,9.5419,9.5419,9.5419,9.5419,9.5419,9.5419,9.5419,9.5419,9.5419,9.5419,9.5419,9.5419,9.5419,9.5419,9.5419,9.5419,9.5419,9.5419,9.5419,9.5419,9.5419,9.5419,9.5419,9.5419,9.5419,9.5419,9.5419,9.5419,9.5419,9.5419,9.5419,9.5419,9.5419,9.5419,9.5419,9.5419,8.8019,8.857,8.7881,8.8191,8.8812,8.8053,8.8191,8.8777,8.8881,8.8915,8.9053,8.9778,9.0054,9.0123,9.0709,9.0977,9.0942,9.1029,9.1646,9.2224,9.2055,9.22,9.3699,9.5175,9.5986,9.648,9.7282,9.773,9.7591,9.7083,9.6708,9.67,9.6177,9.5747,9.6058,9.5897,9.6125,9.632,9.6271,9.6251,9.6142,9.6089,9.6016,9.5996,9.596,9.596,9.5939,9.5939,9.5777,9.5503,9.5461,9.544,9.5419,9.5419,9.5419,9.5419,9.5419,9.5419,9.5419,9.5419,9.5419,9.5419,9.5419,9.5419,9.5419,9.5419,9.5419,9.5419,9.5419,9.5419,9.5419,9.5419,9.5419,9.544,9.5461,9.5461,9.5461,9.5482,9.5467,9.5425,9.544,9.5419,9.5419,9.5419,9.5419,9.5419,9.5419,9.5419,9.5419,9.5419,9.5419,9.5419,9.5419,9.5419,9.5419,9.5419,9.5419,9.5419,9.5419,9.5419,9.5419,9.5419,9.5419,9.5419,9.5419,9.5419,9.5419,9.5419,9.5419,9.5419,9.5419,9.5419,9.5419,9.5419,9.5419,8.9536,9.0123,8.9398,8.9881,9.0812,8.9709,8.9847,9.1019,9.1054,9.095,9.1226,9.1882,9.2088,9.2192,9.233,9.2609,9.2639,9.2727,9.3173,9.3814,9.3698,9.4239,9.5379,9.6288,9.7035,9.7627,9.8114,9.8318,9.8318,9.8095,9.797,9.7991,9.7715,9.7647,9.7745,9.7672,9.7802,9.7864,9.7848,9.7463,9.6988,9.6915,9.6603,9.6036,9.6093,9.6093,9.6036,9.6,9.5899,9.5654,9.5612,9.5529,9.5461,9.544,9.544,9.544,9.544,9.5419,9.5419,9.5419,9.5419,9.5419,9.5419,9.5419,9.5419,9.5419,9.5419,9.5419,9.5419,9.5419,9.5419,9.5419,9.5482,9.5607,9.5612,9.5674,9.5777,9.5838,9.5797,9.5654,9.5649,9.5566,9.5461,9.5419,9.5419,9.5419,9.5419,9.5419,9.5419,9.5419,9.5419,9.5419,9.5419,9.5419,9.5419,9.5419,9.5419,9.5419,9.5419,9.5419,9.5419,9.5419,9.5419,9.5419,9.5419,9.5419,9.5419,9.5419,9.5419,9.5419,9.5419,9.5419,9.5419,9.5419,9.5419,9.0123,9.0778,9.0364,9.0674,9.1364,9.0536,9.0881,9.1847,9.2012,9.2192,9.2529,9.3016,9.3196,9.3116,9.3357,9.3464,9.3517,9.3649,9.4138,9.4903,9.5633,9.6131,9.6656,9.7354,9.8245,9.8744,9.9224,9.9484,9.9411,9.9177,9.8995,9.8864,9.865,9.8546,9.8554,9.8627,9.8668,9.8692,9.8749,9.8456,9.8034,9.7998,9.7815,9.7376,9.7303,9.7303,9.7303,9.7303,9.6907,9.6117,9.5818,9.5777,9.5654,9.5654,9.5654,9.5633,9.5654,9.5612,9.5529,9.5508,9.5503,9.544,9.5419,9.5419,9.5419,9.5419,9.5419,9.5419,9.5419,9.5419,9.5419,9.5419,9.5529,9.5756,9.5818,9.5879,9.6,9.598,9.5899,9.5777,9.5695,9.5612,9.544,9.5419,9.5419,9.5419,9.5419,9.5419,9.5419,9.5419,9.5419,9.5419,9.5419,9.5419,9.5419,9.5419,9.5419,9.5419,9.5419,9.5419,9.5419,9.5419,9.5419,9.5419,9.5419,9.5419,9.5419,9.5419,9.5419,9.5419,9.5419,9.5419,9.5419,9.5419,9.5419,9.0192,9.0786,9.0709,9.0778,9.095,9.0847,9.1399,9.2192,9.2364,9.2778,9.335,9.3661,9.3807,9.3411,9.417,9.4147,9.3962,9.4399,9.5044,9.61,9.7215,9.7885,9.7592,9.8657,9.9451,9.9839,10.0553,10.072,10.0579,10.0141,9.988,9.9776,9.9264,9.9033,9.9322,9.9232,9.9223,9.9432,9.9543,9.9432,9.9212,9.9139,9.8973,9.8716,9.8736,9.8736,9.8829,9.8829,9.8214,9.6429,9.6316,9.6421,9.6364,9.6271,9.6267,9.6316,9.6347,9.6229,9.6042,9.6126,9.5996,9.6001,9.5944,9.5627,9.5778,9.5778,9.5663,9.5482,9.5419,9.5419,9.5419,9.5419,9.5571,9.5858,9.598,9.6,9.606,9.608,9.598,9.5756,9.5736,9.5633,9.5503,9.5419,9.5419,9.5419,9.5419,9.5419,9.5419,9.5419,9.5419,9.5419,9.5419,9.5419,9.5419,9.5419,9.5419,9.5419,9.5419,9.5419,9.5419,9.5419,9.5419,9.5419,9.5419,9.5419,9.5419,9.5419,9.5419,9.5419,9.5419,9.5419,9.5419,9.5419,9.5419,9.0674,9.0743,9.0192,9.064,9.1537,9.1123,9.195,9.3709,9.3771,9.4116,9.4826,9.5149,9.5222,9.5168,9.5468,9.5828,9.5821,9.6039,9.67,9.7658,9.8539,9.932,9.9461,10.0034,10.0448,10.0916,10.1206,10.1352,10.1242,10.1128,10.1116,10.0986,10.0725,10.0843,10.079,10.068,10.094,10.0943,10.0907,10.054,10.0099,10.0026,9.9769,9.9308,9.9218,9.9125,9.9088,9.9088,9.8865,9.851,9.8297,9.812,9.7852,9.7668,9.7549,9.7507,9.7434,9.7407,9.7527,9.746,9.7632,9.7585,9.7512,9.7538,9.6825,9.666,9.6271,9.5809,9.5488,9.5585,9.56,9.5456,9.57,9.5988,9.6056,9.614,9.6453,9.6531,9.6355,9.604,9.5919,9.5797,9.5482,9.5419,9.5419,9.5419,9.5419,9.5419,9.5419,9.5419,9.5419,9.5419,9.5419,9.5419,9.5419,9.5419,9.5419,9.5419,9.5419,9.5419,9.5419,9.5419,9.5419,9.5419,9.5419,9.5419,9.5419,9.5419,9.5419,9.5419,9.5419,9.5419,9.5419,9.5419,9.5419,9.0786,9.0812,9.0778,9.1226,9.1916,9.195,9.2813,9.4089,9.4296,9.4819,9.5509,9.5885,9.5994,9.6048,9.6422,9.6686,9.6791,9.7257,9.7867,9.8706,9.9474,10.0188,10.0782,10.0944,10.1152,10.1494,10.1494,10.1514,10.1514,10.1514,10.1457,10.1514,10.1551,10.1364,10.1514,10.1551,10.142,10.1441,10.1514,10.1294,10.0907,10.0833,10.0723,10.0319,10.0209,10.0209,10.0283,10.0246,10.0246,10.0189,10.0073,9.9606,9.8879,9.855,9.8427,9.8386,9.8198,9.8051,9.8114,9.8198,9.8225,9.8339,9.8422,9.8265,9.7937,9.7725,9.7419,9.6988,9.6753,9.6669,9.6506,9.6086,9.6209,9.6372,9.6219,9.6236,9.657,9.6685,9.6511,9.614,9.6,9.5777,9.555,9.544,9.5419,9.5419,9.5419,9.5419,9.5419,9.5419,9.5419,9.5419,9.5419,9.5419,9.5419,9.5419,9.5419,9.5419,9.5419,9.5419,9.5419,9.5419,9.5419,9.5419,9.5419,9.5419,9.5419,9.5419,9.5419,9.5419,9.5419,9.5419,9.5419,9.5419,9.5419,9.0916,9.0881,9.1537,9.1813,9.1916,9.2537,9.3315,9.4067,9.4343,9.4948,9.5781,9.6147,9.6254,9.6387,9.6791,9.6982,9.7231,9.7693,9.8467,9.9474,9.999,10.0676,10.1234,10.1413,10.1433,10.1514,10.1514,10.1514,10.1551,10.1661,10.1844,10.1771,10.1918,10.1971,10.1808,10.1698,10.1698,10.1551,10.1514,10.1477,10.1404,10.1404,10.1367,10.133,10.1294,10.1257,10.1257,10.1294,10.1404,10.1514,10.1514,10.076,9.9876,9.9296,9.9135,9.9131,9.8953,9.8874,9.8805,9.8765,9.8792,9.8541,9.8823,9.8895,9.8826,9.8733,9.8463,9.8209,9.7938,9.777,9.7759,9.7173,9.7007,9.7174,9.6786,9.6622,9.6753,9.6869,9.6712,9.612,9.598,9.5818,9.555,9.5419,9.5419,9.5419,9.5419,9.5419,9.5419,9.5419,9.5419,9.5419,9.5419,9.5419,9.5419,9.5419,9.5419,9.5419,9.5419,9.5419,9.5419,9.5419,9.5419,9.5419,9.5419,9.5419,9.5419,9.5419,9.5419,9.5419,9.5419,9.5419,9.5419,9.5419,9.5419,9.1399,9.0812,9.095,9.1019,9.1157,9.1847,9.2843,9.3653,9.4441,9.5192,9.6112,9.6448,9.6616,9.6721,9.693,9.7359,9.7778,9.8236,9.8965,9.9946,10.0441,10.0866,10.1393,10.1514,10.1514,10.1514,10.1514,10.1514,10.1698,10.2118,10.2191,10.2522,10.2889,10.2925,10.2448,10.2448,10.1971,10.1551,10.1514,10.1514,10.1514,10.1587,10.1551,10.1551,10.1587,10.1587,10.1514,10.1514,10.1514,10.1514,10.1514,10.131,10.0997,10.0762,10.0541,10.0318,10.0051,9.9844,9.9859,10.0005,10.0312,10.0595,10.0537,10.033,10.0062,9.9838,9.9476,9.8895,9.8464,9.8118,9.7832,9.7716,9.7842,9.8027,9.801,9.7787,9.7723,9.7638,9.7281,9.6538,9.6235,9.5858,9.5571,9.5419,9.5419,9.5419,9.5419,9.5419,9.5419,9.5419,9.5419,9.5419,9.5419,9.5419,9.5419,9.5419,9.5419,9.5419,9.5419,9.5419,9.5419,9.5419,9.5419,9.5419,9.5419,9.5419,9.5419,9.5419,9.5419,9.5419,9.5419,9.5419,9.5419,9.5419,9.5419,9.1537,9.0786,9.0786,9.1261,9.2012,9.2525,9.3522,9.466,9.5272,9.5834,9.6352,9.6642,9.6773,9.6904,9.7034,9.7511,9.8114,9.8634,9.9382,10.0289,10.0782,10.111,10.1494,10.1514,10.1514,10.1514,10.1514,10.1551,10.1551,10.1844,10.2155,10.2118,10.2485,10.2412,10.2155,10.2008,10.1898,10.1551,10.1551,10.1551,10.1624,10.1881,10.1934,10.1698,10.1861,10.1898,10.1551,10.1514,10.1514,10.1514,10.1514,10.1514,10.1474,10.1393,10.125,10.1002,10.0707,10.0492,10.0492,10.0492,10.0563,10.0755,10.1023,10.1062,10.0872,10.0688,10.0408,9.9922,9.9583,9.928,9.9114,9.8658,9.8613,9.8702,9.8651,9.8461,9.843,9.8459,9.7915,9.7138,9.6547,9.6072,9.5545,9.5419,9.5419,9.5419,9.5435,9.5507,9.5579,9.5507,9.5543,9.5419,9.5419,9.5419,9.5419,9.5419,9.5419,9.5419,9.5419,9.5419,9.5419,9.5419,9.5419,9.5419,9.5419,9.5419,9.5419,9.5419,9.5419,9.5419,9.5419,9.5419,9.5419,9.5419,9.5419,9.1985,9.1261,9.1314,9.2065,9.3154,9.3664,9.4552,9.5673,9.6131,9.644,9.6747,9.68,9.6904,9.7112,9.7333,9.7753,9.8454,9.9175,9.9946,10.0655,10.1172,10.1494,10.1494,10.1641,10.1714,10.1514,10.1788,10.1714,10.1861,10.1934,10.1861,10.2228,10.2101,10.1844,10.1955,10.2228,10.1881,10.1808,10.1955,10.1991,10.2175,10.2558,10.2669,10.2081,10.2595,10.2632,10.2228,10.2212,10.2212,10.2101,10.1955,10.1808,10.1734,10.1587,10.1433,10.1209,10.0813,10.06,10.0471,10.0442,10.0464,10.0578,10.0855,10.1023,10.1193,10.1185,10.1201,10.0881,10.0576,10.0304,9.9919,9.96,9.9419,9.9395,9.9171,9.8885,9.9001,9.9013,9.8786,9.7962,9.7021,9.6577,9.6352,9.6268,9.6449,9.6412,9.6485,9.6412,9.6412,9.5942,9.5797,9.5507,9.5419,9.5419,9.5419,9.5419,9.5419,9.5419,9.5419,9.5419,9.5419,9.5419,9.5419,9.5419,9.5419,9.5419,9.5419,9.5419,9.5419,9.5419,9.5419,9.5419,9.5419,9.5419,9.5419,9.3572,9.284,9.3046,9.3325,9.3594,9.4476,9.5123,9.562,9.6336,9.68,9.7008,9.7034,9.706,9.724,9.7778,9.843,9.9152,9.9812,10.0548,10.1193,10.1507,10.1661,10.1698,10.2265,10.2118,10.1861,10.2228,10.2522,10.2412,10.2375,10.2779,10.3109,10.3072,10.3219,10.2485,10.2925,10.3219,10.2815,10.3219,10.3513,10.3513,10.366,10.366,10.3549,10.3623,10.3623,10.3366,10.3293,10.3366,10.3366,10.2852,10.2595,10.2448,10.1824,10.1567,10.1352,10.1028,10.067,10.0535,10.0377,10.0311,10.0442,10.0578,10.0791,10.1064,10.127,10.125,10.086,10.077,10.0557,10.0267,10.007,10.0166,10.0166,10.0005,9.9859,9.9869,9.9691,9.9426,9.9026,9.8209,9.7927,9.7687,9.7593,9.7535,9.7535,9.7463,9.739,9.7209,9.6702,9.618,9.589,9.5673,9.5673,9.5419,9.5419,9.5419,9.5419,9.5419,9.5419,9.5419,9.5419,9.5419,9.5419,9.5419,9.5419,9.5419,9.5419,9.5419,9.5419,9.5419,9.5419,9.5419,9.5419,9.5419,9.3815,9.2743,9.3291,9.3866,9.4441,9.5079,9.5646,9.6196,9.6738,9.6982,9.7086,9.7112,9.7112,9.7292,9.7878,9.8598,9.9337,10.0078,10.0782,10.1539,10.1861,10.2118,10.2375,10.2925,10.2925,10.2338,10.2485,10.2595,10.2595,10.2301,10.2265,10.2632,10.3036,10.2999,10.2889,10.3513,10.3623,10.3549,10.3696,10.3843,10.4027,10.4284,10.4357,10.3953,10.4357,10.432,10.4063,10.388,10.388,10.3843,10.3476,10.3146,10.2779,10.2338,10.2045,10.1474,10.1209,10.0939,10.0685,10.0377,10.0289,10.0333,10.0464,10.0664,10.0902,10.1028,10.1023,10.0664,10.0643,10.0471,10.0303,10.0179,10.0259,10.0333,10.0442,10.0411,10.0312,10.036,10.0156,9.9811,9.9444,9.9106,9.8701,9.8317,9.8115,9.8006,9.7934,9.7789,9.768,9.7427,9.6847,9.6253,9.6108,9.5999,9.5637,9.5419,9.5419,9.5419,9.5419,9.5419,9.5419,9.5419,9.5419,9.5419,9.5419,9.5419,9.5419,9.5419,9.5419,9.5419,9.5419,9.5419,9.5419,9.5419,9.5419,9.3527,9.2721,9.3833,9.4764,9.5497,9.576,9.624,9.6756,9.7008,9.7086,9.7112,9.7112,9.7189,9.7537,9.8187,9.8942,9.9633,10.0355,10.0944,10.1592,10.2045,10.2265,10.2522,10.3109,10.3293,10.2485,10.3293,10.3146,10.2669,10.2448,10.2395,10.2101,10.2999,10.3072,10.3256,10.3843,10.432,10.4687,10.4651,10.4687,10.4761,10.5165,10.5054,10.4944,10.5018,10.5165,10.4614,10.4577,10.4614,10.4614,10.432,10.388,10.3219,10.2779,10.2228,10.1637,10.127,10.1085,10.0834,10.0593,10.0289,10.0267,10.0377,10.0578,10.0707,10.0734,10.0749,10.0535,10.0514,10.042,10.0281,10.0179,10.0237,10.0281,10.0333,10.042,10.0471,10.0411,10.0403,10.0215,9.9977,10.0028,9.9571,9.8969,9.8658,9.8513,9.8368,9.826,9.8187,9.8115,9.7463,9.6796,9.6434,9.6216,9.5709,9.5419,9.5419,9.5419,9.5419,9.5419,9.5419,9.5419,9.5419,9.5419,9.5419,9.5419,9.5419,9.5419,9.5419,9.5419,9.5419,9.5419,9.5419,9.5419,9.5419,9.2765,9.3323,9.5463,9.6362,9.6485,9.6886,9.6981,9.7058,9.7128,9.7266,9.7343,9.7189,9.7562,9.8163,9.8871,9.9587,10.0333,10.109,10.1336,10.1474,10.1567,10.1824,10.2301,10.2925,10.3256,10.2448,10.3403,10.366,10.3256,10.3476,10.3549,10.377,10.3733,10.3806,10.4063,10.4614,10.5311,10.5715,10.5825,10.5899,10.5935,10.6119,10.6082,10.6119,10.6156,10.6229,10.6192,10.6009,10.5899,10.5862,10.5348,10.4504,10.3733,10.3182,10.2522,10.1674,10.1352,10.1188,10.1059,10.0685,10.042,10.0311,10.0355,10.0485,10.0514,10.067,10.0649,10.0492,10.0427,10.0377,10.0245,10.0179,10.0179,10.0201,10.0267,10.0311,10.0355,10.0311,10.0304,10.0406,10.0362,10.0267,10.0223,9.9563,9.9419,9.9274,9.931,9.9201,9.902,9.8839,9.8042,9.7354,9.6847,9.634,9.5673,9.5456,9.5419,9.5419,9.5419,9.5419,9.5419,9.5419,9.5419,9.5419,9.5419,9.5419,9.5419,9.5419,9.5419,9.5419,9.5419,9.5419,9.5419,9.5419,9.5419,9.2876,9.3374,9.4882,9.5519,9.5605,9.6609,9.7035,9.7205,9.8023,9.8454,9.8346,9.8015,9.8163,9.8895,9.961,10.0114,10.0484,10.1152,10.1433,10.1734,10.1898,10.2155,10.2669,10.3072,10.3586,10.3182,10.399,10.421,10.366,10.4284,10.4541,10.4593,10.4651,10.463,10.4887,10.5385,10.5972,10.6229,10.6376,10.6376,10.6376,10.6376,10.6376,10.6376,10.6376,10.6376,10.6339,10.6376,10.6376,10.6302,10.6009,10.5128,10.41,10.3586,10.2742,10.1734,10.1429,10.1311,10.1126,10.077,10.042,10.0281,10.0267,10.0311,10.0333,10.042,10.042,10.0333,10.0333,10.0267,10.0223,10.0179,10.0179,10.0179,10.0201,10.0245,10.0245,10.0237,10.0237,10.0333,10.0289,10.0201,10.0179,10.0143,10.0107,10.0107,10.0143,10.0107,9.9781,9.9527,9.8767,9.8115,9.7571,9.6847,9.618,9.5782,9.5435,9.5419,9.5419,9.5419,9.5419,9.5419,9.5419,9.5419,9.5419,9.5419,9.5419,9.5419,9.5419,9.5419,9.5419,9.5419,9.5419,9.5419,9.5419,9.2874,9.3359,9.4084,9.4687,9.5184,9.6229,9.691,9.7444,9.8116,9.8751,9.8885,9.8396,9.8739,9.956,10.0078,10.057,10.0803,10.1254,10.1454,10.1661,10.1934,10.2301,10.2595,10.2962,10.3366,10.3623,10.4173,10.4284,10.432,10.5091,10.5422,10.5495,10.5495,10.5495,10.5642,10.6009,10.6376,10.6376,10.6376,10.6376,10.6376,10.6376,10.6376,10.6376,10.6376,10.6376,10.6376,10.6376,10.6376,10.6376,10.6156,10.5422,10.4541,10.366,10.2999,10.2101,10.1494,10.1433,10.1209,10.0791,10.0427,10.0333,10.0201,10.0201,10.0179,10.0179,10.0223,10.0237,10.0179,10.0179,10.0179,10.0179,10.0179,10.0179,10.0179,10.0201,10.0201,10.0215,10.0215,10.0201,10.0179,10.0179,10.0179,10.0179,10.0179,10.0179,10.0179,10.0179,10.007,9.9853,9.9563,9.8948,9.8404,9.7571,9.6775,9.634,9.5869,9.5419,9.5419,9.5419,9.5419,9.5419,9.5419,9.5419,9.5419,9.5419,9.5419,9.5419,9.5419,9.5419,9.5419,9.5419,9.5419,9.5419,9.5419,9.2662,9.345,9.3567,9.442,9.5641,9.5842,9.6683,9.7677,9.7466,9.7736,9.8438,9.8294,9.9064,10.0144,10.0548,10.086,10.1234,10.1454,10.1514,10.1587,10.1641,10.1624,10.1918,10.2375,10.3109,10.3182,10.4063,10.4887,10.5128,10.5752,10.6156,10.6192,10.6119,10.6156,10.6302,10.6339,10.6376,10.6376,10.6376,10.6376,10.6376,10.6376,10.6376,10.6376,10.6376,10.6376,10.6376,10.6376,10.6376,10.6376,10.6376,10.5605,10.4357,10.399,10.3146,10.1844,10.1587,10.1494,10.1454,10.0855,10.0578,10.0427,10.0311,10.0223,10.0179,10.0179,10.0179,10.0179,10.0179,10.0179,10.0179,10.0179,10.0179,10.0179,10.0179,10.0179,10.0179,10.0179,10.0179,10.0179,10.0179,10.0179,10.0179,10.0179,10.0179,10.0179,10.0179,10.0179,10.0179,10.0107,9.9889,9.9527,9.8948,9.8078,9.7245,9.6775,9.6268,9.5724,9.5419,9.5419,9.5419,9.5419,9.5419,9.5419,9.5419,9.5419,9.5419,9.5419,9.5419,9.5419,9.5419,9.5419,9.5419,9.5419,9.5419,9.2552,9.3439,9.3403,9.4278,9.5657,9.6264,9.6777,9.7239,9.7571,9.8329,9.9259,9.9077,9.9699,10.0746,10.111,10.1234,10.1454,10.1514,10.1514,10.1514,10.1514,10.1514,10.1734,10.2265,10.2962,10.366,10.4651,10.5458,10.5972,10.6302,10.6339,10.6376,10.6376,10.6376,10.6376,10.6376,10.6376,10.6376,10.6376,10.6376,10.6376,10.6376,10.6376,10.6376,10.6376,10.6376,10.6376,10.6376,10.6376,10.6376,10.6376,10.5789,10.4724,10.4357,10.3439,10.2338,10.1934,10.1514,10.1433,10.1126,10.0813,10.0636,10.0442,10.0311,10.0223,10.0215,10.0179,10.0179,10.0179,10.0179,10.0179,10.0179,10.0179,10.0179,10.0179,10.0179,10.0179,10.0179,10.0179,10.0179,10.0179,10.0179,10.0179,10.0179,10.0179,10.0179,10.0179,10.0179,10.0179,10.0179,10.007,9.9817,9.931,9.8477,9.7789,9.7354,9.6593,9.5854,9.5528,9.5419,9.5419,9.5419,9.5419,9.5419,9.5419,9.5419,9.5419,9.5419,9.5419,9.5419,9.5419,9.5419,9.5419,9.5419,9.5419,9.267,9.3738,9.3759,9.4628,9.5903,9.627,9.6509,9.6875,9.7645,9.8583,9.9223,9.9196,9.9801,10.0843,10.1367,10.1514,10.1514,10.1514,10.1514,10.1514,10.1514,10.1514,10.1771,10.2338,10.3072,10.3917,10.4724,10.5532,10.6266,10.6339,10.6376,10.6376,10.6376,10.6376,10.6376,10.6376,10.6376,10.6376,10.6376,10.6376,10.6376,10.6376,10.6376,10.6376,10.6376,10.6376,10.6376,10.6376,10.6376,10.6376,10.6266,10.5972,10.5201,10.4614,10.388,10.3146,10.2705,10.2395,10.2371,10.2346,10.202,10.136,10.0876,10.0464,10.0289,10.0245,10.0215,10.0179,10.0215,10.0157,10.0157,10.0157,10.0171,10.0171,10.0157,10.0157,10.0179,10.0179,10.0179,10.0179,10.0179,10.0179,10.0179,10.0179,10.0179,10.0179,10.0179,10.0179,10.0179,10.0179,10.0179,9.9998,9.9744,9.9093,9.8513,9.8078,9.7173,9.6035,9.5782,9.5709,9.5419,9.5419,9.5419,9.5419,9.5456,9.5456,9.5419,9.5398,9.5543,9.5507,9.5419,9.5419,9.5419,9.5419,9.5419,9.3043,9.4293,9.4407,9.5241,9.6438,9.6056,9.6137,9.6757,9.751,9.7877,9.8007,9.8792,9.9526,10.0373,10.109,10.1441,10.1514,10.1514,10.1514,10.1514,10.1514,10.1514,10.1808,10.2412,10.3256,10.399,10.4834,10.5789,10.6339,10.6376,10.6376,10.6376,10.6376,10.6376,10.6376,10.6376,10.6376,10.6376,10.6376,10.6376,10.6376,10.6376,10.6376,10.6376,10.6376,10.6376,10.6376,10.6376,10.6376,10.6376,10.6339,10.5862,10.5458,10.5107,10.4577,10.41,10.377,10.366,10.3586,10.3472,10.3226,10.2349,10.1484,10.0891,10.0464,10.0333,10.0245,10.0215,10.0171,10.0135,10.0135,10.0091,10.0105,10.0127,10.0149,10.0171,10.0193,10.0179,10.0179,10.0179,10.0179,10.0179,10.0179,10.0179,10.0179,10.0179,10.0179,10.0179,10.0179,10.0179,10.0179,10.0179,9.9962,9.9744,9.9201,9.8585,9.7897,9.6775,9.6397,9.6216,9.5854,9.5492,9.5419,9.5419,9.5492,9.5564,9.5745,9.5797,9.5797,9.5797,9.6014,9.56,9.5673,9.5456,9.5419,9.2939,9.4291,9.4327,9.5248,9.6574,9.6455,9.6531,9.6759,9.6979,9.7309,9.7897,9.8117,9.9108,10.0283,10.054,10.1037,10.133,10.1514,10.1514,10.1514,10.1514,10.1514,10.1955,10.2705,10.3513,10.4247,10.5091,10.5899,10.6266,10.6339,10.6376,10.6376,10.6376,10.6376,10.6376,10.6376,10.6376,10.6376,10.6376,10.6376,10.6376,10.6376,10.6376,10.6376,10.6376,10.6376,10.6376,10.6376,10.6376,10.6376,10.6376,10.6119,10.6119,10.5458,10.4761,10.4027,10.3843,10.3843,10.388,10.3917,10.3765,10.3536,10.2918,10.1797,10.1073,10.0573,10.0464,10.0281,10.0068,10.0002,9.9934,9.989,9.9912,9.9957,10.0002,10.0046,10.0091,10.0179,10.0179,10.0179,10.0179,10.0179,10.0179,10.0179,10.0179,10.0179,10.0179,10.0179,10.0179,10.0179,10.0179,10.0179,10.0143,9.9889,9.9491,9.8911,9.8332,9.768,9.7282,9.6832,9.6434,9.6071,9.5637,9.5637,9.6035,9.6216,9.6325,9.6397,9.6557,9.6956,9.7173,9.6434,9.5854,9.5854,9.5745,9.2861,9.4207,9.4299,9.5217,9.6539,9.6722,9.6722,9.6722,9.6722,9.7126,9.786,9.8264,9.9071,10.0209,10.0686,10.109,10.1477,10.1514,10.1514,10.1514,10.1514,10.1514,10.2028,10.2705,10.3219,10.3953,10.4651,10.5348,10.5862,10.6266,10.6376,10.6376,10.6376,10.6376,10.6376,10.6376,10.6376,10.6376,10.6376,10.6376,10.6376,10.6376,10.6376,10.6376,10.6376,10.6376,10.6376,10.6376,10.6376,10.6376,10.6376,10.6376,10.6339,10.5825,10.5568,10.5018,10.5018,10.5054,10.5054,10.5039,10.4724,10.4426,10.4269,10.3342,10.2241,10.1495,10.0943,10.0464,10.0105,9.9786,9.9696,9.9627,9.9696,9.9786,9.9867,9.9957,10.0046,10.0157,10.0179,10.0179,10.0179,10.0179,10.0179,10.0179,10.0179,10.0179,10.0179,10.0179,10.0179,10.0179,10.0179,10.0179,10.0179,10.007,9.9636,9.9346,9.8948,9.8549,9.8223,9.7716,9.7173,9.6868,9.663,9.6666,9.6832,9.6956,9.7064,9.7318,9.7535,9.7897,9.8006,9.739,9.6883,9.6775,9.6666,9.2758,9.4336,9.4465,9.5401,9.6612,9.6722,9.6722,9.6722,9.6722,9.7089,9.7787,9.8594,9.9292,10.0026,10.0686,10.122,10.1441,10.1514,10.1514,10.1514,10.1514,10.1514,10.1734,10.2301,10.2852,10.3072,10.3623,10.4761,10.5275,10.5752,10.6119,10.6339,10.6376,10.6376,10.6376,10.6376,10.6376,10.6376,10.6376,10.6376,10.6376,10.6376,10.6376,10.6376,10.6376,10.6376,10.6376,10.6376,10.6376,10.6376,10.6376,10.6376,10.6339,10.6339,10.6229,10.6192,10.6009,10.5972,10.5935,10.5935,10.5715,10.5458,10.518,10.4541,10.3556,10.2496,10.1836,10.1277,10.0954,10.0557,10.041,9.9891,9.9701,9.9824,9.9876,10.002,10.0113,10.0215,10.0179,10.0179,10.0179,10.0179,10.0179,10.0179,10.0179,10.0179,10.0179,10.0179,10.0179,10.0179,10.0179,10.0179,10.0179,10.0143,10.007,9.9817,9.9672,9.9382,9.8984,9.8585,9.797,9.7789,9.7752,9.7608,9.7463,9.7752,9.7934,9.826,9.8441,9.8477,9.8477,9.8187,9.797,9.7897,9.7499,9.2758,9.441,9.5621,9.6392,9.6685,9.6722,9.6722,9.6722,9.6722,9.6832,9.7126,9.786,9.8724,9.9642,10.0429,10.1037,10.1441,10.1514,10.1514,10.1514,10.1514,10.1514,10.1624,10.2191,10.2558,10.2962,10.3513,10.4284,10.5054,10.5458,10.5825,10.6302,10.6376,10.6376,10.6376,10.6376,10.6376,10.6376,10.6376,10.6376,10.6376,10.6376,10.6376,10.6376,10.6376,10.6376,10.6376,10.6376,10.6376,10.6376,10.6376,10.6376,10.6376,10.6376,10.6376,10.6376,10.6376,10.6376,10.6376,10.6376,10.6192,10.6156,10.5899,10.5474,10.4761,10.3744,10.294,10.2433,10.1912,10.1492,10.1025,10.0385,9.9861,9.9927,10.0001,10.0129,10.0229,10.0193,10.0179,10.0179,10.0179,10.0179,10.0179,10.0179,10.0179,10.0179,10.0179,10.0179,10.0179,10.0179,10.0179,10.0179,10.0179,10.0179,10.0179,10.0179,9.9962,9.9744,9.9382,9.902,9.873,9.8549,9.8368,9.8187,9.8115,9.8477,9.8875,9.9346,9.9491,9.9274,9.9237,9.9056,9.9237,9.9237,9.8622,9.2574,9.3932,9.5511,9.6392,9.6685,9.6722,9.6722,9.6722,9.6722,9.6722,9.6906,9.7897,9.889,9.9737,10.0526,10.0963,10.1477,10.1514,10.1514,10.1514,10.1514,10.1514,10.1751,10.1971,10.2008,10.2412,10.3439,10.4284,10.4944,10.5642,10.6082,10.6339,10.6376,10.6376,10.6376,10.6376,10.6376,10.6376,10.6376,10.6376,10.6376,10.6376,10.6376,10.6376,10.6376,10.6376,10.6376,10.6376,10.6376,10.6376,10.6376,10.6376,10.6376,10.6376,10.6376,10.6376,10.6376,10.6376,10.6376,10.6376,10.6376,10.6376,10.6376,10.5841,10.5841,10.4881,10.4116,10.3561,10.2673,10.2162,10.2058,10.1564,10.0994,10.0842,10.0693,10.067,10.0433,10.0215,10.0179,10.0179,10.0179,10.0179,10.0179,10.0179,10.0179,10.0179,10.0179,10.0179,10.0179,10.0179,10.0179,10.0179,10.0179,10.0179,10.0179,10.0179,10.0143,9.9926,9.9744,9.9636,9.9419,9.9165,9.8948,9.8948,9.902,9.9346,9.9781,9.9998,10.007,9.9853,9.9926,10.0034,10.0179,10.0179,9.96,9.2336,9.3309,9.4759,9.5861,9.6503,9.6577,9.6631,9.6685,9.6722,9.676,9.7038,9.8413,9.9593,10.0348,10.119,10.1387,10.1514,10.1514,10.1514,10.1514,10.1514,10.1514,10.1514,10.1587,10.1661,10.1991,10.2779,10.3843,10.4798,10.5275,10.5678,10.6192,10.6376,10.6376,10.6376,10.6376,10.6376,10.6376,10.6376,10.6376,10.6376,10.6376,10.6376,10.6376,10.6376,10.6376,10.6376,10.6376,10.6376,10.6376,10.6376,10.6376,10.6376,10.6376,10.6376,10.6376,10.6376,10.6376,10.6376,10.6376,10.6376,10.6376,10.6376,10.6376,10.6339,10.5967,10.5164,10.4586,10.3664,10.3196,10.3129,10.2763,10.2216,10.1452,10.1257,10.094,10.0541,10.0215,10.0179,10.0179,10.0179,10.0179,10.0179,10.0179,10.0179,10.0179,10.0179,10.0179,10.0179,10.0179,10.0179,10.0179,10.0179,10.0179,10.0179,10.0179,10.0179,10.0143,9.9998,10.0107,10.0107,9.9744,9.9636,9.9889,10.0034,9.9998,9.9998,10.0143,10.0179,10.0179,10.0179,10.0179,10.0179,10.0179,10.0179,9.2372,9.3363,9.4465,9.5331,9.5921,9.5976,9.625,9.6668,9.6685,9.6857,9.7394,9.838,9.9274,9.9461,10.0947,10.1441,10.1371,10.1461,10.1514,10.1514,10.1534,10.1534,10.1514,10.1514,10.1514,10.1918,10.2375,10.2889,10.4614,10.4798,10.5165,10.6302,10.6376,10.6376,10.6376,10.6376,10.6376,10.6376,10.6376,10.6376,10.6376,10.6376,10.6376,10.6376,10.6376,10.6376,10.6376,10.6376,10.6376,10.6376,10.6413,10.6413,10.6449,10.6449,10.647,10.6523,10.6486,10.6376,10.6376,10.6376,10.6376,10.6376,10.6376,10.6376,10.6376,10.6339,10.5851,10.5787,10.5115,10.4691,10.4484,10.3855,10.3271,10.2062,10.1438,10.0809,10.0288,10.0215,10.0179,10.0179,10.0179,10.0179,10.0179,10.0179,10.0179,10.0179,10.0179,10.0179,10.0179,10.0179,10.0179,10.0179,10.0179,10.0179,10.0179,10.0179,10.0179,10.0179,10.0179,10.0179,10.0179,10.0179,10.0179,10.0179,10.0179,10.0143,10.0179,10.0179,10.0179,10.0179,10.0179,10.0179,10.0179,10.0179,10.0179]}]]